[[{"header":{"parameterUnit":"m.s-1","parameterCategory":1,"la1":30.6,"la2":28.766,"lo1":-90.7593,"lo2":-88.6598,"dx":0.0162,"dy":0.0183,"nx":116,"ny":114,"refTime":"2022-12-10T18:00:00:Z","depth":0,"parameterNumber":2,"parameterNumberName":"U-component_of_WINDS"},"data":[0.0,0.0,0.0,0.0,0.0,0.0,0.0,0.0,0.0,0.0,0.0,0.0,0.0,0.0,0.0,0.0,0.0,0.0,0.0,0.0,0.0,0.0,0.0,0.0,0.0,0.0,0.0,0.0,0.0,0.0,0.0,0.0,0.0,0.0,0.0,0.0,0.0,0.0,0.0,0.0,0.0,0.0,0.0,0.0,0.0,0.0,0.0,0.0,0.0,0.0,0.0,0.0,0.0,0.0,0.0,0.0,0.0,0.0,0.0,0.0,0.0,0.0,0.0,0.0,0.0,0.0,0.0,0.0,0.0,0.0,0.0,0.0,0.0,0.0,0.0,0.0,0.0,0.0,0.0,0.0,0.0,0.0,0.0,0.0,0.0,0.0,0.0,0.0,0.0,0.0,0.0,0.0,0.0,0.0,0.0,0.0,0.0,0.0,0.0,0.0,0.0,0.0,0.0,0.0,0.0,0.0,0.0,0.0,0.0,0.0,0.0,0.0,0.0,0.0,0.0,0.0,0.0,0.0,0.0,0.0,0.0,0.0,0.0,0.0,0.0,0.0,0.0,0.0,0.0,0.0,0.0,0.0,0.0,0.0,0.0,0.0,0.0,0.0,0.0,0.0,0.0,0.0,0.0,0.0,0.0,0.0,0.0,0.0,0.0,0.0,0.0,0.0,0.0,0.0,0.0,0.0,0.0,0.0,0.0,0.0,0.0,0.0,0.0,0.0,0.0,0.0,0.0,0.0,0.0,0.0,0.0,0.0,0.0,0.0,0.0,0.0,0.0,0.0,0.0,0.0,0.0,0.0,0.0,0.0,0.0,0.0,0.0,0.0,0.0,0.0,0.0,0.0,0.0,0.0,0.0,0.0,0.0,0.0,0.0,0.0,0.0,0.0,0.0,0.0,0.0,0.0,0.0,0.0,0.0,0.0,0.0,0.0,0.0,0.0,0.0,0.0,0.0,0.0,0.0,0.0,0.0,0.0,0.0,0.0,0.0,0.0,0.0,0.0,0.0,0.0,0.0,0.0,0.0,0.0,0.0,0.0,0.0,0.0,0.0,0.0,0.0,0.0,0.0,0.0,0.0,0.0,0.0,0.0,0.0,0.0,0.0,0.0,0.0,0.0,0.0,0.0,0.0,0.0,0.0,0.0,0.0,0.0,0.0,0.0,0.0,0.0,0.0,0.0,0.0,0.0,0.0,0.0,0.0,0.0,0.0,0.0,0.0,0.0,0.0,0.0,0.0,0.0,0.0,0.0,0.0,0.0,0.0,0.0,0.0,0.0,0.0,0.0,0.0,0.0,0.0,0.0,0.0,0.0,0.0,0.0,0.0,0.0,0.0,0.0,0.0,0.0,0.0,0.0,0.0,0.0,0.0,0.0,0.0,0.0,0.0,0.0,0.0,0.0,0.0,0.0,0.0,0.0,0.0,0.0,0.0,0.0,0.0,0.0,0.0,0.0,0.0,0.0,0.0,0.0,0.0,0.0,0.0,0.0,0.0,0.0,0.0,0.0,0.0,0.0,0.0,0.0,0.0,0.0,0.0,0.0,0.0,0.0,0.0,0.0,0.0,0.0,0.0,0.0,0.0,0.0,0.0,0.0,0.0,0.0,0.0,0.0,0.0,0.0,0.0,0.0,0.0,0.0,0.0,0.0,0.0,0.0,0.0,0.0,0.0,0.0,0.0,0.0,0.0,0.0,0.0,0.0,0.0,0.0,0.0,0.0,0.0,0.0,0.0,0.0,0.0,0.0,0.0,0.0,0.0,0.0,0.0,0.0,0.0,0.0,0.0,0.0,0.0,0.0,0.0,0.0,0.0,0.0,0.0,0.0,0.0,0.0,0.0,0.0,0.0,0.0,0.0,0.0,0.0,0.0,0.0,0.0,0.0,0.0,0.0,0.0,0.0,0.0,0.0,0.0,0.0,0.0,0.0,0.0,0.0,0.0,0.0,0.0,0.0,0.0,0.0,0.0,0.0,0.0,0.0,0.0,0.0,0.0,0.0,0.0,0.0,0.0,0.0,0.0,0.0,0.0,0.0,0.0,0.0,0.0,0.0,0.0,0.0,0.0,0.0,0.0,0.0,0.0,0.0,0.0,0.0,0.0,0.0,0.0,0.0,0.0,0.0,0.0,0.0,0.0,0.0,0.0,0.0,0.0,0.0,0.0,0.0,0.0,0.0,0.0,0.0,0.0,0.0,0.0,0.0,0.0,0.0,0.0,0.0,0.0,0.0,0.0,0.0,0.0,0.0,0.0,0.0,0.0,0.0,0.0,0.0,0.0,0.0,0.0,0.0,0.0,0.0,0.0,0.0,0.0,0.0,0.0,0.0,0.0,0.0,0.0,0.0,0.0,0.0,0.0,0.0,0.0,0.0,0.0,0.0,0.0,0.0,0.0,0.0,0.0,0.0,0.0,0.0,0.0,0.0,0.0,0.0,0.0,0.0,0.0,0.0,0.0,0.0,0.0,0.0,0.0,0.0,0.0,0.0,0.0,0.0,0.0,0.0,0.0,0.0,0.0,0.0,0.0,0.0,0.0,0.0,0.0,0.0,0.0,0.0,0.0,0.0,0.0,0.0,0.0,0.0,0.0,0.0,0.0,0.0,0.0,0.0,0.0,0.0,0.0,0.0,0.0,0.0,0.0,0.0,0.0,0.0,0.0,0.0,0.0,0.0,0.0,0.0,0.0,0.0,0.0,0.0,0.0,0.0,0.0,0.0,0.0,0.0,0.0,0.0,0.0,0.0,0.0,0.0,0.0,0.0,0.0,0.0,0.0,0.0,0.0,0.0,0.0,0.0,0.0,0.0,0.0,0.0,0.0,0.0,0.0,0.0,0.0,0.0,0.0,0.0,0.0,0.0,0.0,0.0,0.0,0.0,0.0,0.0,0.0,0.0,0.0,0.0,0.0,0.0,0.0,0.0,0.0,0.0,0.0,0.0,0.0,0.0,0.0,0.0,0.0,0.0,0.0,0.0,0.0,0.0,0.0,0.0,0.0,0.0,0.0,0.0,0.0,0.0,0.0,0.0,0.0,0.0,0.0,0.0,0.0,0.0,0.0,0.0,0.0,0.0,0.0,0.0,0.0,0.0,0.0,0.0,0.0,0.0,0.0,0.0,0.0,0.0,0.0,0.0,0.0,0.0,0.0,0.0,0.0,0.0,0.0,0.0,0.0,0.0,0.0,0.0,0.0,0.0,0.0,0.0,0.0,0.0,0.0,0.0,0.0,0.0,0.0,0.0,0.0,0.0,0.0,0.0,0.0,0.0,0.0,0.0,0.0,0.0,0.0,0.0,0.0,0.0,0.0,0.0,0.0,0.0,0.0,0.0,0.0,0.0,0.0,0.0,0.0,0.0,0.0,0.0,0.0,0.0,0.0,0.0,0.0,0.0,0.0,0.0,0.0,0.0,0.0,0.0,0.0,0.0,0.0,0.0,0.0,0.0,0.0,0.0,0.0,0.0,0.0,0.0,0.0,0.0,0.0,0.0,0.0,0.0,0.0,0.0,0.0,0.0,0.0,0.0,0.0,0.0,0.0,0.0,0.0,0.0,0.0,0.0,0.0,0.0,0.0,0.0,0.0,0.0,0.0,0.0,0.0,0.0,0.0,0.0,0.0,0.0,0.0,0.0,0.0,0.0,0.0,0.0,0.0,0.0,0.0,0.0,0.0,0.0,0.0,0.0,0.0,0.0,0.0,0.0,0.0,0.0,0.0,0.0,0.0,0.0,0.0,0.0,0.0,0.0,0.0,0.0,0.0,0.0,0.0,0.0,0.0,0.0,0.0,0.0,0.0,0.0,0.0,0.0,0.0,0.0,0.0,0.0,0.0,0.0,0.0,0.0,0.0,0.0,0.0,0.0,0.0,0.0,0.0,0.0,0.0,0.0,0.0,0.0,0.0,0.0,0.0,0.0,0.0,0.0,0.0,0.0,0.0,0.0,0.0,0.0,0.0,0.0,0.0,0.0,0.0,0.0,0.0,0.0,0.0,0.0,0.0,0.0,0.0,0.0,0.0,0.0,0.0,0.0,0.0,0.0,0.0,0.0,0.0,0.0,0.0,0.0,0.0,0.0,0.0,0.0,0.0,0.0,0.0,0.0,0.0,0.0,0.0,0.0,0.0,0.0,0.0,0.0,0.0,0.0,0.0,0.0,0.0,0.0,0.0,0.0,0.0,0.0,0.0,0.0,0.0,0.0,0.0,0.0,0.0,0.0,0.0,0.0,0.0,0.0,0.0,0.0,0.0,0.0,0.0,0.0,0.0,0.0,0.0,0.0,0.0,0.0,0.0,0.0,0.0,0.0,0.0,0.0,0.0,0.0,0.0,0.0,0.0,0.0,0.0,0.0,0.0,0.0,0.0,0.0,0.0,0.0,0.0,0.0,0.0,0.0,0.0,0.0,0.0,0.0,0.0,0.0,0.0,0.0,0.0,0.0,0.0,0.0,0.0,0.0,0.0,0.0,0.0,0.0,0.0,0.0,0.0,0.0,0.0,0.0,0.0,0.0,0.0,0.0,0.0,0.0,0.0,0.0,0.0,0.0,0.0,0.0,0.0,0.0,0.0,0.0,0.0,0.0,0.0,0.0,0.0,0.0,0.0,0.0,0.0,0.0,0.0,0.0,0.0,0.0,0.0,0.0,0.0,0.0,0.0,0.0,0.0,0.0,0.0,0.0,0.0,0.0,0.0,0.0,0.0,0.0,0.0,0.0,0.0,0.0,0.0,0.0,0.0,0.0,0.0,0.0,0.0,0.0,0.0,0.0,0.0,0.0,0.0,0.0,0.0,0.0,0.0,0.0,0.0,0.0,0.0,0.0,0.0,0.0,0.0,0.0,0.0,0.0,0.0,0.0,0.0,0.0,0.0,0.0,0.0,0.0,0.0,0.0,0.0,0.0,0.0,0.0,0.0,0.0,0.0,0.0,0.0,0.0,0.0,0.0,0.0,0.0,0.0,0.0,0.0,0.0,0.0,0.0,0.0,0.0,0.0,0.0,0.0,0.0,0.0,0.0,0.0,0.0,0.0,0.0,0.0,0.0,0.0,0.0,0.0,0.0,0.0,0.0,0.0,0.0,0.0,0.0,0.0,0.0,0.0,0.0,0.0,0.0,0.0,0.0,0.0,0.0,0.0,0.0,0.0,0.0,0.0,0.0,0.0,0.0,0.0,0.0,0.0,0.0,0.0,0.0,0.0,0.0,0.0,0.0,0.0,0.0,0.0,0.0,0.0,0.0,0.0,0.0,0.0,0.0,0.0,0.0,0.0,0.0,0.0,0.0,0.0,0.0,0.0,0.0,0.0,0.0,0.0,0.0,0.0,0.0,0.0,0.0,0.0,0.0,0.0,0.0,0.0,0.0,0.0,0.0,0.0,0.0,0.0,0.0,0.0,0.0,0.0,0.0,0.0,0.0,0.0,0.0,0.0,0.0,0.0,0.0,0.0,0.0,0.0,0.0,0.0,0.0,0.0,0.0,0.0,0.0,0.0,0.0,0.0,0.0,0.0,0.0,0.0,0.0,0.0,0.0,0.0,0.0,0.0,0.0,0.0,0.0,0.0,0.0,0.0,0.0,0.0,0.0,0.0,0.0,0.0,0.0,0.0,0.0,0.0,0.0,0.0,0.0,0.0,0.0,0.0,0.0,0.0,0.0,0.0,0.0,0.0,0.0,0.0,0.0,0.0,0.0,0.0,0.0,0.0,0.0,0.0,0.0,0.0,0.0,0.0,0.0,0.0,0.0,0.0,0.0,0.0,0.0,0.0,0.0,0.0,0.0,0.0,0.0,0.0,0.0,0.0,0.0,0.0,0.0,0.0,0.0,0.0,0.0,0.0,0.0,0.0,0.0,0.0,0.0,0.0,0.0,0.0,0.0,0.0,0.0,0.0,0.0,0.0,0.0,0.0,0.0,0.0,0.0,0.0,0.0,0.0,0.0,0.0,0.0,0.0,0.0,0.0,0.0,0.0,0.0,0.0,0.0,0.0,0.0,0.0,0.0,0.0,0.0,0.0,0.0,0.0,0.0,0.0,0.0,0.0,0.0,0.0,0.0,0.0,0.0,0.0,0.0,0.0,0.0,0.0,0.0,0.0,0.0,0.0,0.0,0.0,4.4541,3.9362,0.0,0.0,0.0,0.0,0.0,0.0,0.0,0.0,0.0,0.0,0.0,0.0,0.0,0.0,0.0,0.0,0.0,0.0,0.0,0.0,0.0,0.0,0.0,1.8194,1.8313,1.8642,1.8672,0.0,0.0,0.0,0.0,0.0,0.0,0.0,0.0,0.0,2.2373,2.3254,2.594,2.9358,3.3372,3.1745,2.9789,2.7676,0.0,0.0,0.0,0.0,0.0,0.0,0.0,0.0,0.0,0.0,0.0,0.0,0.0,0.0,0.0,0.0,0.0,0.0,0.0,0.0,0.0,0.0,0.0,0.0,0.0,0.0,0.0,0.0,0.0,0.0,0.0,0.0,0.0,0.0,0.0,0.0,0.0,0.0,0.0,0.0,0.0,0.0,0.0,0.0,0.0,0.0,0.0,0.0,0.0,0.0,0.0,0.0,0.0,0.0,0.0,0.0,0.0,0.0,0.0,0.0,0.0,0.0,0.0,0.0,0.0,0.0,0.0,0.0,0.0,0.0,4.9763,4.6684,0.0,0.0,0.0,0.0,0.0,0.0,0.0,0.0,0.0,0.0,0.0,0.0,0.0,0.0,0.0,0.0,0.0,0.0,0.0,0.0,0.0,1.8373,1.9151,1.9241,1.945,1.9989,2.0049,2.0049,2.0049,2.0049,0.0,0.0,0.0,0.0,2.3164,2.3217,2.4531,2.7283,3.1589,3.6174,4.0821,4.2025,4.0019,3.5338,3.1964,0.0,0.0,0.0,0.0,0.0,0.0,0.0,0.0,0.0,0.0,0.0,0.0,0.0,0.0,0.0,0.0,0.0,0.0,0.0,0.0,0.0,0.0,0.0,0.0,0.0,0.0,0.0,0.0,0.0,0.0,0.0,0.0,0.0,0.0,0.0,0.0,0.0,0.0,0.0,0.0,0.0,0.0,0.0,0.0,0.0,0.0,0.0,0.0,0.0,0.0,0.0,0.0,0.0,0.0,0.0,0.0,0.0,0.0,0.0,0.0,0.0,0.0,0.0,5.2797,5.3235,5.365,5.4531,5.663,5.9404,5.5074,5.4702,5.6697,5.0541,0.0,0.0,0.0,0.0,0.0,0.0,0.0,0.0,0.0,0.0,0.0,0.0,0.0,0.0,0.0,0.0,0.0,0.0,0.0,1.9899,2.1156,2.1306,2.1335,2.1425,2.1425,2.1425,2.1425,2.1425,0.0,0.0,0.0,2.3191,2.3522,2.5463,2.8369,3.226,4.0771,4.5611,4.6768,4.7571,4.7537,4.66,4.1673,3.7266,3.3457,0.0,0.0,0.0,0.0,0.0,0.0,0.0,0.0,0.0,0.0,0.0,0.0,0.0,0.0,0.0,0.0,0.0,0.0,0.0,0.0,0.0,0.0,0.0,0.0,0.0,0.0,0.0,0.0,0.0,0.0,0.0,0.0,0.0,0.0,0.0,0.0,0.0,0.0,0.0,0.0,0.0,3.8407,3.9106,0.0,0.0,0.0,0.0,0.0,0.0,0.0,0.0,0.0,0.0,0.0,0.0,0.0,4.9957,5.2909,5.6727,5.8236,5.745,6.2259,6.4103,6.3186,6.4404,6.5527,6.6542,6.5831,0.0,5.866,5.7679,0.0,0.0,0.0,0.0,0.0,0.0,0.0,0.0,0.0,0.0,0.0,0.0,0.0,0.0,0.0,0.0,0.0,0.0,0.0,0.0,0.0,2.4777,2.5734,2.7619,2.8625,2.8296,2.6261,2.6627,0.0,0.0,2.4368,2.4967,2.5726,2.8786,3.4005,4.1427,4.5945,4.9607,5.2334,5.3044,5.3179,5.2706,5.1251,4.6447,3.9512,3.9512,0.0,0.0,0.0,0.0,0.0,0.0,0.0,0.0,0.0,0.0,0.0,0.0,0.0,0.0,0.0,0.0,0.0,0.0,0.0,0.0,0.0,0.0,0.0,0.0,0.0,0.0,0.0,0.0,0.0,0.0,0.0,0.0,0.0,0.0,0.0,0.0,0.0,0.0,0.0,3.6776,3.9125,4.0313,4.0891,4.0724,0.0,0.0,0.0,0.0,0.0,0.0,0.0,0.0,0.0,5.6731,5.6801,5.8513,6.2245,6.3328,6.4031,6.4421,6.6424,6.7367,6.7334,6.8331,6.8876,6.9214,6.962,6.8335,6.5696,6.2753,5.9641,5.6461,0.0,0.0,0.0,0.0,5.2401,5.301,0.0,0.0,0.0,0.0,0.0,0.0,0.0,0.0,0.0,0.0,0.0,0.0,2.6572,2.7889,2.9654,3.2287,3.3597,3.3223,3.0758,3.1389,3.076,2.8218,2.7739,2.832,2.9898,3.4377,4.0729,4.9052,5.0744,5.3382,5.6867,5.7408,5.7374,5.69,5.7983,5.3585,4.5432,4.5602,4.2997,3.8633,0.0,0.0,0.0,0.0,0.0,0.0,0.0,0.0,0.0,0.0,0.0,0.0,0.0,0.0,0.0,0.0,0.0,0.0,0.0,0.0,0.0,0.0,0.0,0.0,0.0,0.0,0.0,0.0,0.0,0.0,0.0,0.0,0.0,0.0,0.0,0.0,0.0,3.9813,4.166,4.2677,4.4367,4.4826,0.0,0.0,0.0,0.0,0.0,0.0,5.4769,5.5636,5.8328,6.3159,6.3525,6.5514,6.935,6.8436,6.8436,6.9383,6.9147,6.935,6.9958,7.0703,7.1041,7.1075,7.1616,7.1853,7.1515,6.7049,6.4647,6.3497,6.0486,5.8727,5.7949,5.8355,5.8761,5.9674,0.0,0.0,0.0,0.0,0.0,0.0,0.0,0.0,0.0,0.0,0.0,2.6632,2.749,2.9804,3.1659,3.2437,3.2586,3.2826,3.3275,3.3935,3.4535,3.4981,3.3624,3.4172,3.6843,4.3485,4.8655,5.2097,5.6393,5.8964,5.9877,5.9911,5.9911,5.9877,5.9945,5.6562,5.0879,5.1555,4.8883,4.3876,4.0257,0.0,0.0,0.0,0.0,0.0,0.0,0.0,0.0,0.0,0.0,0.0,0.0,0.0,0.0,0.0,0.0,0.0,0.0,0.0,0.0,0.0,0.0,0.0,0.0,0.0,0.0,0.0,0.0,0.0,0.0,0.0,0.0,0.0,0.0,0.0,0.0,0.0,0.0,4.8618,4.9926,0.0,0.0,0.0,0.0,5.5004,5.5987,5.8051,6.1704,6.0884,6.2864,6.8571,6.7635,6.8069,7.0128,7.077,7.077,7.0161,7.1515,7.2191,7.2259,7.3003,7.3308,7.3341,7.3341,7.3375,7.3206,7.0838,6.776,6.4478,6.3599,6.1028,5.8321,6.1873,6.4038,6.5764,0.0,0.0,0.0,1.8343,1.8912,1.957,2.0228,2.1276,2.2592,2.4328,2.6123,2.8607,3.2287,3.4262,3.6267,3.8631,4.0132,4.0152,3.8102,3.996,3.948,3.5738,3.7018,3.9961,4.4583,4.8167,5.2221,5.663,5.822,5.9404,6.0114,6.0114,6.0114,6.0114,6.0655,5.9708,5.7712,5.7983,5.5344,5.0913,4.956,4.5534,0.0,0.0,0.0,0.0,0.0,0.0,0.0,0.0,0.0,0.0,0.0,0.0,0.0,0.0,0.0,0.0,0.0,0.0,0.0,0.0,0.0,0.0,0.0,0.0,0.0,0.0,0.0,0.0,0.0,0.0,0.0,0.0,0.0,0.0,0.0,0.0,0.0,5.0619,5.397,0.0,5.4434,5.6854,5.9194,6.0579,6.2719,6.4952,6.7286,6.7012,6.7954,7.0466,7.0579,7.0916,7.1616,7.236,7.2834,7.3037,7.4052,7.4796,7.5303,7.5574,7.5676,7.5642,7.5134,7.4897,7.483,7.4052,7.2394,7.0297,7.0026,6.9113,6.8132,6.9992,7.0973,7.1684,0.0,0.0,0.0,1.9031,1.96,2.0258,2.0946,2.1964,2.355,2.5944,2.7799,3.0672,3.534,3.7375,3.9589,4.2462,4.4435,4.4419,4.2209,4.3792,4.3169,3.9477,4.2386,4.6202,5.0588,5.2461,5.5502,5.9776,5.9776,6.0148,6.0892,6.0892,6.0994,6.1264,6.1535,6.1806,6.2042,6.2042,6.0182,5.7103,5.5852,5.2063,4.6684,0.0,0.0,0.0,0.0,0.0,0.0,0.0,0.0,0.0,0.0,0.0,0.0,0.0,0.0,0.0,0.0,0.0,0.0,0.0,0.0,0.0,0.0,0.0,0.0,0.0,0.0,0.0,0.0,0.0,0.0,0.0,0.0,0.0,0.0,5.2852,5.56,5.3323,5.7738,6.0337,5.8849,6.1963,6.4707,6.6406,6.8301,6.9958,7.1244,7.1312,7.165,7.2394,7.2902,7.3274,7.351,7.3747,7.4119,7.4627,7.51,7.5608,7.6149,7.6386,7.6487,7.6454,7.5946,7.5709,7.5709,7.5709,7.51,7.4221,7.4221,7.4221,7.4289,7.4796,7.5134,7.5473,0.0,0.0,1.969,1.969,2.0258,2.0946,2.1605,2.2263,2.3953,2.726,2.9953,3.2856,3.6267,3.8931,4.1294,4.3319,4.4374,4.5049,4.532,4.5078,4.5525,4.6762,4.9852,5.2552,5.47,5.6654,5.8852,6.1366,6.14,6.1772,6.2448,6.2482,6.2854,6.3531,6.2787,6.2854,6.3531,6.3531,6.3159,6.2178,5.8524,5.6968,5.5886,0.0,0.0,0.0,0.0,0.0,0.0,0.0,0.0,0.0,0.0,0.0,0.0,0.0,0.0,0.0,0.0,0.0,0.0,0.0,0.0,0.0,0.0,0.0,0.0,0.0,0.0,0.0,0.0,0.0,0.0,0.0,0.0,0.0,5.5412,5.7576,5.8951,5.733,6.1426,6.4528,6.4772,6.6434,6.8944,7.2235,7.2496,7.28,7.351,7.3544,7.3849,7.4593,7.4627,7.4965,7.5676,7.4999,7.4661,7.4661,7.4661,7.4695,7.4695,7.5439,7.5777,7.5777,7.5777,7.5777,7.5777,7.5811,7.5811,7.5811,7.5743,7.5709,7.5709,7.5743,7.6251,7.6927,1.969,1.969,1.969,1.969,2.0647,2.1485,2.1665,2.2622,2.5046,2.9834,3.1509,3.4233,3.9469,4.1534,4.3223,4.508,4.5616,4.5657,4.5049,4.6011,4.7798,5.039,0.0,0.0,5.8196,6.0069,6.1672,6.2922,6.3971,6.4309,6.4005,6.4546,6.4613,6.4309,6.4072,6.4106,6.4309,6.4309,6.4478,6.4647,6.3091,6.0486,5.7306,0.0,0.0,0.0,0.0,0.0,0.0,0.0,0.0,0.0,0.0,0.0,0.0,0.0,0.0,0.0,0.0,0.0,0.0,0.0,0.0,0.0,0.0,0.0,0.0,0.0,0.0,0.0,0.0,0.0,0.0,0.0,5.8355,6.1467,5.9708,6.3082,6.5548,6.4889,6.714,6.9112,7.0119,7.1647,7.3231,7.4695,7.4796,7.4864,7.5067,7.4593,7.439,7.4593,7.4627,7.4695,7.4897,7.5236,7.5405,7.5405,7.598,7.6284,7.6284,7.7029,7.7367,7.7367,7.7367,7.7367,7.7401,7.7942,7.8179,7.801,7.6352,7.5709,7.5777,7.6352,7.7029,7.7705,1.969,1.969,1.969,1.969,2.0797,2.1695,2.1695,2.2772,2.5495,3.0795,3.2108,3.4771,4.0726,4.2551,4.3927,4.555,4.5696,4.5574,4.5092,4.7096,4.9965,5.3853,0.0,5.8833,6.1599,6.2737,6.3666,6.441,6.5256,6.5628,6.5527,6.5967,6.6102,6.5967,6.5324,6.5222,6.5493,6.485,6.485,6.5256,6.5459,6.3768,6.096,5.9066,5.7002,5.4803,5.2536,4.9729,4.7158,4.7158,0.0,0.0,0.0,0.0,0.0,0.0,0.0,0.0,0.0,0.0,0.0,0.0,0.0,0.0,0.0,0.0,0.0,0.0,0.0,0.0,0.0,0.0,0.0,0.0,6.3193,6.6102,6.5967,6.7959,6.9712,7.0174,7.1438,7.2759,7.4127,7.4762,7.5371,7.6149,7.5879,7.5709,7.5709,7.5303,7.5067,7.5067,7.5067,7.5371,7.6014,7.6149,7.6521,7.713,7.7299,7.7367,7.7367,7.7773,7.7976,7.801,7.8314,7.828,7.8077,7.9126,7.9397,7.9025,0.0,0.0,0.0,0.0,7.8551,7.8855,1.969,1.969,1.969,1.969,2.0797,2.1695,2.1695,2.2772,2.5525,3.0941,3.2228,3.4891,4.0846,4.2731,4.3898,4.4929,4.4955,4.4894,4.5177,4.8122,5.1858,5.6371,5.905,6.1738,6.441,6.4715,6.5155,6.5797,6.6068,6.6508,6.7083,6.7252,6.7624,6.8098,6.688,6.6677,6.7218,6.5831,6.5222,6.5324,6.6576,6.6576,6.5392,6.1501,6.0013,5.9505,5.5446,5.3653,5.3179,5.3179,0.0,0.0,0.0,0.0,0.0,0.0,0.0,0.0,0.0,0.0,0.0,0.0,0.0,0.0,0.0,0.0,0.0,0.0,0.0,0.0,0.0,0.0,0.0,0.0,6.8571,7.1853,7.2665,7.2293,7.2394,7.3578,7.4492,7.554,7.6893,7.6386,7.6217,7.686,7.6251,7.5811,7.5709,7.5777,0.0,0.0,0.0,7.6623,7.7976,7.7333,7.7671,7.8991,7.8382,7.8111,7.8111,7.828,7.8416,7.8517,7.9295,7.9261,7.8855,8.0141,8.031,7.9769,8.0073,8.0209,8.0209,8.0209,8.0209,8.0107,1.969,1.969,1.969,1.969,2.0797,2.1695,2.1695,2.2772,2.5704,3.1569,3.2886,3.5579,4.1534,4.3808,4.4539,4.3445,4.4004,4.4469,4.4496,4.9378,5.3068,5.515,6.0098,6.3125,6.37,6.5459,6.644,6.6609,6.8436,6.9079,6.8673,6.9891,7.0195,6.9755,7.0094,7.0297,7.0398,6.9485,6.9113,6.9079,6.8774,6.7827,6.6576,6.6271,6.617,6.6,6.4546,6.167,5.8592,5.8592,5.6122,5.2909,5.2063,5.1792,0.0,0.0,0.0,0.0,0.0,0.0,0.0,0.0,0.0,0.0,0.0,0.0,0.0,0.0,0.0,0.0,0.0,0.0,0.0,6.5189,6.9755,7.3544,7.4864,7.5506,7.5676,7.5303,7.6487,7.7435,7.7739,7.7638,7.7367,7.6927,7.6758,7.6386,7.5743,7.6318,7.6657,7.6657,7.7232,7.7671,7.7976,7.7841,7.7908,7.8213,7.8686,0.0,7.8923,8.0107,8.0987,8.1596,8.234,8.2915,8.3355,8.3659,8.3693,8.3321,8.1088,8.0209,8.0209,8.0209,8.0209,8.0175,1.969,1.969,1.969,1.969,2.0797,2.1695,2.1695,2.2772,2.5136,2.9475,3.0911,3.3155,3.7464,3.9978,4.1159,4.068,4.256,4.4318,4.5593,5.0833,5.5231,5.8111,6.1948,6.4241,6.458,6.6068,6.7184,6.7963,6.9451,7.0195,7.0229,7.1345,7.165,7.1312,7.1684,7.1853,7.1819,7.1075,7.0534,7.0195,7.0195,6.9519,6.847,6.8064,6.7895,6.7793,6.7083,6.5595,6.3937,6.3599,6.1975,5.9776,5.7509,5.6799,5.5547,0.0,0.0,0.0,0.0,0.0,0.0,0.0,0.0,0.0,0.0,0.0,0.0,0.0,0.0,5.8254,6.1231,0.0,6.7218,7.0195,7.3206,7.5574,7.669,7.7198,7.7435,7.7401,7.8077,7.8551,7.8551,7.8213,7.7841,7.7468,7.7096,7.6893,7.6826,7.7232,7.7435,7.7435,7.7807,7.8179,7.8551,7.8923,7.9464,8.0209,8.0953,8.1494,8.19,8.2644,8.3152,8.3558,8.4302,8.464,8.464,8.5046,8.5418,8.5621,8.4133,8.3084,8.2408,8.2408,8.2408,8.2408,1.969,1.969,1.969,1.969,2.0797,2.1695,2.1695,2.2772,2.4537,2.728,2.8637,3.0432,3.3185,3.5729,3.7494,3.8153,4.1115,4.4061,4.6718,5.2203,5.7112,6.1113,6.3265,6.4715,6.5459,6.6508,6.7726,6.9113,6.9958,7.0737,7.1345,7.2056,7.2462,7.2631,7.2766,7.2902,7.2969,7.209,7.1379,7.0872,7.1176,7.0939,7.0263,6.9045,6.847,6.8233,6.7523,6.7624,6.803,6.7286,6.7015,6.6373,6.2584,6.0926,5.893,5.1758,5.1251,0.0,0.0,0.0,0.0,0.0,0.0,0.0,0.0,5.4262,5.5784,5.9708,6.1095,6.2821,6.6711,6.8504,7.0838,7.5236,7.6724,7.7468,7.7942,7.8111,7.8416,7.9058,7.8991,7.8889,7.8889,7.8348,7.7976,7.7976,7.7435,7.7367,7.7942,7.8145,7.8213,7.8213,7.8619,7.9126,7.9769,8.0615,8.1663,8.2847,8.3592,8.4268,8.4843,8.5012,8.5148,8.5317,8.6095,8.6061,8.552,8.6163,8.6771,8.7347,8.7482,8.6805,8.5655,8.5215,8.508,8.508,1.969,1.969,1.969,1.969,2.0797,2.1695,2.1695,2.2772,2.4537,2.728,2.8248,2.9924,3.3155,3.534,3.6836,3.7464,4.0008,4.291,4.5894,5.2727,5.7494,5.9696,6.2259,6.3971,6.4715,6.6745,6.8199,6.9113,7.05,7.1244,7.1345,7.2056,7.2732,7.3409,7.4052,7.4728,7.5236,7.3815,7.3206,7.3003,7.1785,7.1278,7.1176,7.1007,7.05,6.9823,6.9113,6.891,6.8842,6.8064,6.7793,6.7557,6.644,6.3802,6.0452,5.6867,5.3754,5.071,4.7225,4.9289,5.3145,5.6055,5.69,5.8761,0.0,6.5019,6.4478,6.891,7.0398,7.1447,7.3274,7.4289,7.5236,7.6555,7.7942,7.8653,7.8077,7.8551,7.9025,7.9092,7.8517,7.8111,7.8111,7.8044,7.7976,7.7976,7.7908,7.7908,7.7976,7.8619,7.8991,7.8991,8.0885,8.1968,8.2035,8.3422,8.42,8.437,8.5148,8.5587,8.5689,8.6332,8.7008,8.7651,8.8395,8.8666,8.8598,8.8666,8.8767,8.8903,8.9579,8.9748,8.9342,8.738,8.6636,8.6636,1.969,1.969,1.969,1.969,2.0797,2.1695,2.1695,2.2772,2.3999,2.5106,2.5854,2.6811,2.8188,3.0821,3.2886,3.3903,3.8871,4.2664,4.4308,5.2187,5.7335,5.8475,6.1298,6.3396,6.458,6.5933,6.7421,6.9113,7.0161,7.0872,7.1345,7.2056,7.2563,7.2868,7.3612,7.4119,7.4356,7.3747,7.324,7.28,7.2191,7.1684,7.1312,7.1312,6.9755,6.7455,6.6745,6.6474,0.0,6.5595,6.5358,6.529,6.4986,6.3835,6.1467,5.5818,5.4634,5.531,5.6258,5.6055,5.6562,6.0757,6.211,6.3463,6.7489,6.7793,6.847,7.2935,7.4492,7.5202,7.5811,7.6893,7.7638,7.7536,7.8416,7.8855,7.8077,7.8247,7.845,7.845,7.8179,7.8145,7.8585,7.8653,7.8653,7.8653,7.8653,7.8991,7.987,8.0615,8.1224,8.1663,8.2983,8.3693,8.3693,8.4776,8.552,8.596,8.6704,8.7313,8.7719,8.8023,8.8564,8.9309,9.0053,9.0357,9.0357,9.0357,9.0357,9.0391,9.0729,9.0831,9.0729,8.9816,8.9444,8.9444,1.969,1.969,1.975,1.9929,2.0917,2.1695,2.1695,2.2772,2.361,2.361,2.4029,2.4567,2.5106,2.747,2.9714,3.139,3.7015,4.1355,4.3378,5.0781,5.6015,5.7893,6.0617,6.2888,6.4546,6.5324,6.6711,6.8774,6.9722,7.0466,7.1007,7.1751,7.2225,7.2428,7.2935,7.3308,7.3477,7.3274,7.2868,7.2394,7.2191,7.1785,7.121,7.0161,6.8064,6.5628,6.5087,6.4241,6.326,6.2516,6.2279,6.2245,6.2042,6.14,5.9708,5.4465,5.4397,5.69,6.0892,6.0723,6.052,6.5019,6.732,6.8673,6.9553,7.0534,7.209,7.51,7.6487,7.7266,7.7468,7.8213,7.8686,7.8348,7.8585,7.8619,7.8077,7.7976,7.8077,7.828,7.828,7.8754,7.9904,7.9464,7.9363,7.9972,8.0006,8.0648,8.2137,8.2712,8.3253,8.3795,8.4742,8.5249,8.5249,8.623,8.7076,8.782,8.8361,8.897,8.9681,8.9681,8.9985,9.0527,9.1068,9.1305,9.1305,9.1305,9.1305,9.1305,9.1508,9.1609,9.1643,9.1846,9.1677,9.1305,1.969,1.969,1.9899,2.0557,2.1246,2.1695,2.1695,2.2772,2.361,2.361,2.361,2.4358,2.6333,2.72,2.8697,3.13,3.4083,3.8031,4.3625,4.8349,5.3233,5.828,6.0315,6.2347,6.4546,6.5324,6.6406,6.7929,6.9451,7.0195,7.0229,7.1007,7.1718,7.2394,7.2428,7.2834,7.3443,7.2732,7.2428,7.2326,7.1616,7.1345,7.0906,6.7252,6.5797,6.5696,6.5662,6.3328,6.0114,5.9404,5.9167,5.9032,5.8287,5.6089,5.389,5.4397,5.3044,5.2401,5.6867,6.0655,6.441,6.891,7.2732,7.5236,7.4559,7.5574,7.6487,7.5845,7.6893,7.8179,7.8923,7.8483,7.8247,7.8957,7.8483,7.801,7.7976,7.7976,7.8247,7.8991,7.9092,7.9938,8.2103,8.0378,8.0006,8.2137,8.2306,8.2949,8.4437,8.4539,8.4573,8.4606,8.6061,8.6839,8.6839,8.826,8.9376,9.0121,9.0121,9.0527,9.1237,9.1237,9.1237,9.1271,9.1271,9.1305,9.1305,9.1305,9.1305,9.1372,9.2116,9.2387,9.2489,9.3233,9.2556,9.1305,1.9779,2.0049,2.0438,2.0677,2.1605,2.2353,2.2353,2.3071,2.361,2.361,2.361,0.0,0.0,0.0,0.0,0.0,3.2946,3.6345,3.8189,4.5485,5.077,5.3233,5.6988,6.0489,6.3755,6.3852,6.5158,6.7895,6.8402,6.8944,6.9485,7.0229,7.0703,7.0939,7.1447,7.1819,7.2022,7.1785,7.1684,7.165,7.1413,6.9823,6.7455,6.617,6.2618,5.8321,0.0,5.7509,5.6393,5.6156,5.6089,5.6055,5.5784,5.5378,5.4735,5.345,5.3619,5.5175,5.9674,6.2888,6.6136,7.1142,7.368,7.5303,7.6555,7.7638,7.8416,7.8653,7.713,7.5811,7.6082,7.5912,7.5676,7.5405,7.7266,7.872,7.872,7.916,7.9735,8.0479,8.1426,8.2306,8.305,8.2035,8.2002,8.3761,8.3862,8.4336,8.5351,8.5858,8.6366,8.6839,8.8328,8.9106,8.9106,9.0053,9.0662,9.0932,9.0932,9.1068,9.1305,9.1812,9.2319,9.2827,9.3334,9.3842,9.4282,9.4282,9.4282,9.4315,9.4552,9.4654,9.4755,9.5499,9.5432,9.4857,2.0498,2.0767,2.1126,2.1365,2.2113,0.0,0.0,0.0,0.0,0.0,0.0,0.0,0.0,0.0,0.0,0.0,0.0,3.3484,3.537,4.1379,4.5982,4.8647,5.2284,5.5766,5.8931,5.8987,6.0341,6.3093,6.4673,6.5884,6.6745,6.8842,6.9789,6.9823,7.0297,7.0534,7.0432,6.9079,6.8977,6.9519,6.7387,6.5561,6.3869,6.1738,5.7949,0.0,5.2266,5.1961,5.2232,5.2503,5.2604,5.2638,5.2909,5.3687,5.4532,5.4668,5.575,5.8152,6.4005,6.6812,6.9282,7.4255,7.6048,7.6927,7.8111,7.8957,7.9566,7.9769,7.7029,7.4627,7.4627,7.439,7.3612,7.1785,7.4661,7.7198,7.7468,7.8145,7.9363,8.1426,8.2746,8.3727,8.4268,8.4133,8.4403,8.5384,8.5452,8.5892,8.6907,8.7685,8.8294,8.8767,8.9951,9.0594,9.0594,9.1068,9.1575,9.2116,9.2658,9.2895,9.2928,9.3131,9.3639,9.4383,9.489,9.5499,9.621,9.648,9.6582,9.6582,9.6582,9.6582,9.665,9.7123,9.7461,9.7495,2.1695,2.1724,2.1934,0.0,0.0,0.0,0.0,0.0,0.0,0.0,0.0,0.0,0.0,0.0,0.0,0.0,0.0,0.0,3.4861,3.6353,0.0,4.4559,4.6614,4.8634,5.0843,5.1544,5.2671,5.4361,5.8615,6.1227,6.2144,6.6474,6.847,6.847,6.8504,6.8538,6.8301,6.4749,6.4444,6.5865,6.0182,5.9066,6.0216,5.4499,5.2198,5.1555,4.8037,4.7259,4.797,4.8714,4.912,4.9458,5.0405,5.1691,5.3687,5.8084,5.9438,6.1264,6.918,7.1887,7.3544,7.7908,7.9532,7.9938,7.9295,7.9735,8.0006,7.9126,7.6521,7.4322,7.4086,7.3612,7.209,6.8538,7.1278,7.4086,7.4897,7.5608,7.7671,8.2069,8.3219,8.4268,8.5757,8.6569,8.7042,8.7076,8.7042,8.7651,8.9072,8.9816,9.0222,9.0256,9.0966,9.1372,9.1372,9.144,9.2184,9.3605,9.506,9.577,9.577,9.5093,9.5195,9.5973,9.5973,9.6379,9.7089,9.7834,9.8104,9.8104,9.8104,9.8104,9.8138,9.8172,9.8612,9.9119,0.0,0.0,0.0,0.0,0.0,0.0,0.0,0.0,0.0,0.0,0.0,0.0,0.0,0.0,0.0,0.0,0.0,0.0,3.0941,3.4121,3.7299,0.0,0.0,0.0,4.9354,4.9783,5.1128,5.3672,5.5331,5.6571,5.7476,5.9133,5.9945,5.9945,6.0486,6.0757,6.0689,5.9708,5.9641,6.0047,5.849,5.6562,5.4431,5.2875,5.0574,4.8071,4.7124,4.6921,4.7192,4.7936,5.0405,5.389,5.7983,5.9505,6.0351,6.3159,6.5189,6.7218,7.0432,7.2665,7.4593,7.6893,7.801,7.8788,7.9701,8.0479,8.0175,7.7164,7.3781,7.0297,6.6948,6.847,6.9925,6.8944,7.4255,7.8923,8.0242,8.0581,8.1765,8.4573,8.5587,8.6399,8.7347,8.8091,8.8767,8.9342,8.8835,8.8937,8.9884,9.0121,9.0459,9.1,9.1744,9.215,9.215,9.3267,9.374,9.3605,9.4552,9.5263,9.5804,9.5601,9.6514,9.824,9.824,9.8679,9.939,9.9593,9.966,9.966,9.966,9.966,9.9728,10.0303,10.0675,10.0878,0.0,0.0,0.0,0.0,0.0,0.0,0.0,0.0,0.0,0.0,0.0,0.0,0.0,0.0,0.0,0.0,0.0,0.0,0.0,3.1509,3.3759,3.5676,0.0,0.0,4.3,4.3459,4.4768,4.6925,4.9296,5.087,5.1785,5.4506,5.5755,5.5755,5.6588,5.6934,5.6833,5.5175,5.504,0.0,0.0,5.1386,5.027,4.9289,4.7631,4.5805,4.5805,4.7293,4.9593,5.1995,5.4905,5.8118,6.1366,6.2618,6.3497,6.6711,6.8571,7.0195,7.3003,7.4897,7.6386,7.757,7.8653,7.9126,7.801,7.8314,7.7671,7.3646,6.9857,6.6508,6.3971,6.6846,6.9045,6.7387,7.395,7.9498,8.0344,8.075,8.2171,8.5384,8.6433,8.7211,8.7922,8.8666,8.941,9.0154,8.9816,8.9884,9.0628,9.1,9.1372,9.1778,9.2522,9.3098,9.3436,9.4282,9.4823,9.5026,9.5804,9.6379,9.6785,9.6785,9.7631,9.9085,9.9085,9.9728,10.0777,10.1115,10.1216,10.1216,10.1216,10.1216,10.1318,10.169,10.1893,10.1893,0.0,0.0,0.0,0.0,0.0,0.0,0.0,0.0,0.0,2.361,2.361,2.364,2.3729,2.4268,0.0,0.0,0.0,0.0,0.0,0.0,3.0073,3.1422,3.2617,3.3873,3.522,3.6099,3.7162,3.8461,4.2604,4.4922,4.5782,5.0561,5.2804,5.2837,5.3782,5.4228,5.4025,5.0744,5.0507,5.186,4.665,4.5737,4.7259,0.0,4.4587,4.4587,4.4587,4.7834,5.2875,5.7476,6.0351,6.2245,6.3463,6.4377,6.5764,6.9755,7.0906,7.1819,7.5912,7.7502,7.8179,7.9058,8.0276,8.0141,7.5743,7.5236,7.4289,6.9383,6.5696,6.3226,6.2719,6.6203,6.8301,6.5764,7.2293,7.7942,7.8619,7.9295,8.1257,8.5452,8.6501,8.7245,8.8057,8.8801,8.9545,9.029,9.0459,9.0763,9.1406,9.2049,9.2455,9.259,9.3233,9.3943,9.4687,9.4823,9.5533,9.6886,9.7529,9.8003,9.8307,9.8206,9.8679,9.9559,9.9559,10.0303,10.1589,10.2198,10.2502,10.2502,10.2502,10.2502,10.2502,10.2502,10.2502,10.2502,0.0,0.0,0.0,0.0,0.0,0.0,0.0,0.0,0.0,0.0,2.361,2.3819,0.0,0.0,0.0,0.0,0.0,0.0,0.0,0.0,0.0,3.1392,3.1691,3.2497,3.3814,3.5644,3.6755,3.7095,3.9629,4.0958,4.1176,4.3342,4.4368,4.4462,4.5883,4.6515,4.6481,4.5805,4.5771,4.6041,4.4993,4.4823,4.5128,4.4722,0.0,0.0,4.4587,4.753,5.2198,5.7306,6.2076,6.6542,7.0364,7.209,7.2969,7.4356,7.4728,7.5202,7.7232,7.7874,7.8314,7.9667,8.0648,8.0276,7.6386,7.5608,7.3544,6.6034,6.3463,6.1637,5.8524,6.1129,6.4952,6.8605,7.3071,7.7604,8.1934,8.2644,8.3727,8.6399,8.6839,8.7448,8.8767,8.9579,9.0324,9.1034,9.1677,9.2083,9.2218,9.2353,9.2725,9.3368,9.3503,9.3943,9.4687,9.5296,9.6041,9.6886,9.7022,9.8037,9.9829,9.9187,9.9999,10.1893,10.1893,10.2096,10.2299,10.2434,10.2502,10.2502,10.2502,10.2502,10.2502,10.2502,10.2502,10.2502,0.0,0.0,0.0,0.0,0.0,0.0,0.0,2.3909,2.4148,2.4148,2.4418,2.4627,2.4582,2.5226,2.5914,0.0,0.0,0.0,0.0,0.0,0.0,0.0,0.0,0.0,0.0,3.3759,3.4821,3.5583,0.0,3.7808,3.8213,3.9753,4.0627,4.1081,4.2327,4.3037,4.3369,4.3369,4.3369,4.3436,4.3809,4.3978,4.4012,0.0,0.0,0.0,4.4587,4.7428,5.1657,5.4532,6.0283,6.7151,7.2428,7.4052,7.4255,7.5371,7.5709,7.5946,7.7096,7.7435,7.7773,7.9261,8.0175,7.9126,7.3037,7.1954,6.9823,6.1231,5.9167,5.8355,5.6562,5.9911,6.3802,6.6305,7.2428,7.7908,8.0818,8.2881,8.4945,8.7211,8.7144,8.7482,8.8937,8.9782,9.0527,9.1237,9.1981,9.259,9.2996,9.303,9.3199,9.3571,9.3977,9.4518,9.5263,9.6007,9.6717,9.7461,9.824,9.8984,9.966,10.01,10.0878,10.1893,10.1893,10.2096,10.2502,10.2502,10.2502,10.2502,10.2502,10.2502,10.2502,10.2502,10.2502,10.2502,0.0,0.0,0.0,0.0,0.0,0.0,0.0,2.4268,2.4642,2.4791,2.5405,2.5615,2.5106,2.5974,2.6662,0.0,0.0,0.0,0.0,0.0,0.0,0.0,0.0,0.0,0.0,0.0,0.0,3.4053,3.5052,0.0,0.0,0.0,0.0,0.0,4.0671,4.1544,4.2072,4.2233,4.2286,0.0,0.0,4.3166,0.0,0.0,0.0,0.0,0.0,4.6819,5.0067,5.1928,5.7137,6.3937,7.0263,7.2394,7.28,7.4119,7.4525,7.4864,7.6454,7.7029,7.7468,7.8788,7.9769,7.8213,6.9823,6.8402,6.6305,5.7306,5.5344,5.531,5.5446,5.8964,6.2212,6.3328,7.0026,7.6048,7.8754,8.146,8.4403,8.7617,8.7347,8.7482,8.8937,8.9918,9.0696,9.1271,9.215,9.2928,9.3537,9.374,9.3842,9.3842,9.4552,9.5364,9.6244,9.6683,9.7428,9.851,9.9491,9.9829,9.9627,10.0811,10.1487,10.1589,10.1589,10.1995,10.2502,10.2502,10.2502,10.2502,10.2502,10.2502,10.2502,10.2502,10.2502,10.2502,0.0,0.0,0.0,0.0,0.0,0.0,0.0,2.4552,2.4837,2.5435,2.6093,2.6482,2.6422,2.6512,2.6841,0.0,0.0,0.0,0.0,0.0,0.0,0.0,0.0,0.0,0.0,0.0,0.0,3.2706,3.4606,0.0,0.0,0.0,0.0,0.0,0.0,4.1262,4.1375,4.2017,0.0,0.0,0.0,0.0,0.0,0.0,0.0,0.0,0.0,4.4823,4.6041,5.1555,5.345,5.4803,6.2212,6.6812,6.9654,7.0466,7.0703,7.1616,7.5777,7.7401,7.8077,7.8923,8.0175,7.8855,6.9925,6.7963,6.5493,5.6528,5.416,5.3923,5.4566,5.5649,5.7983,6.2753,6.4816,6.8944,7.7874,7.8822,8.0919,8.7245,8.7347,8.7482,8.8937,9.0357,9.1237,9.1271,9.2658,9.3503,9.3571,9.4248,9.462,9.462,9.5296,9.6379,9.78,9.7191,9.7935,9.9999,9.9457,9.9897,10.1183,10.1284,10.1792,10.2401,10.2401,10.2401,10.2502,10.2502,10.2502,10.2502,10.2502,10.2502,10.2502,10.2502,10.2502,10.2502,0.0,0.0,0.0,0.0,0.0,0.0,2.4492,2.4956,2.5465,2.6123,2.6782,2.7171,2.7171,2.7171,2.729,2.761,0.0,0.0,0.0,0.0,0.0,0.0,0.0,0.0,0.0,0.0,3.2428,3.2527,3.3698,0.0,0.0,0.0,0.0,0.0,0.0,3.9631,4.0514,4.0321,0.0,0.0,0.0,0.0,0.0,0.0,0.0,0.0,0.0,0.0,4.5026,4.7868,5.0371,5.2604,5.4262,5.7983,6.2821,6.8504,7.05,7.1751,7.5811,7.7435,7.8179,7.8923,7.7502,7.4289,6.7996,6.4478,6.0655,5.3923,5.2334,5.2334,5.3078,5.3856,5.5344,5.8321,6.1704,6.5764,7.0973,7.6115,8.0648,8.42,8.6771,8.8632,8.9647,9.0696,9.1677,9.259,9.3233,9.3774,9.4248,9.4552,9.5127,9.6007,9.6751,9.7428,9.8003,9.8612,9.9119,9.9559,10.0202,10.0777,10.1386,10.1893,10.2198,10.2502,10.2502,10.2502,10.2502,10.2502,10.2502,10.2502,10.2502,10.2502,10.2502,10.2502,10.2502,10.2502,0.0,0.0,0.0,0.0,0.0,2.4118,2.4761,2.5465,2.6123,2.6811,2.729,2.761,2.761,2.761,2.761,2.761,2.761,0.0,0.0,0.0,0.0,0.0,0.0,0.0,0.0,0.0,3.1869,3.2527,3.3185,3.3814,0.0,0.0,3.6904,3.744,0.0,0.0,0.0,0.0,0.0,0.0,0.0,0.0,0.0,0.0,0.0,0.0,0.0,0.0,0.0,0.0,0.0,5.0202,4.9289,5.1522,5.6089,6.4174,6.803,7.0466,7.4221,7.6758,7.845,7.8991,7.5709,7.121,6.6711,6.2042,5.7273,5.2232,5.1217,5.1454,5.2164,5.2976,5.3991,5.548,5.8998,6.2753,6.6305,7.2056,7.7096,8.0378,8.3321,8.6027,8.8328,9.0425,9.2184,9.347,9.3774,9.4248,9.4992,9.5432,9.6142,9.7191,9.8172,9.8781,9.9018,9.9829,10.01,9.9796,10.0878,10.1386,10.1386,10.2198,10.2502,10.2502,10.2502,10.2502,10.2502,10.2502,10.2502,10.2502,10.2502,10.2502,10.2502,10.2502,10.2502,10.2502,0.0,0.0,0.0,0.0,0.0,0.0,2.5495,2.6153,2.6811,2.752,2.761,2.761,2.761,2.761,2.761,2.761,2.761,0.0,0.0,0.0,0.0,0.0,0.0,0.0,0.0,0.0,3.1869,3.2527,3.3185,3.3814,3.4565,3.5953,3.66,3.6661,0.0,0.0,0.0,0.0,0.0,0.0,0.0,0.0,0.0,0.0,0.0,0.0,0.0,0.0,0.0,0.0,0.0,0.0,0.0,4.9052,5.027,5.6258,6.167,6.6576,7.0364,7.5168,7.9092,7.9126,7.5709,7.121,6.6711,6.1637,5.663,5.2131,5.1217,5.1454,5.2164,5.2976,5.3991,5.548,5.6359,5.9201,6.5865,6.6237,6.8571,7.6014,7.6284,7.8179,8.4099,8.9376,9.2725,9.3537,9.4282,9.5026,9.5736,9.7157,9.7969,9.8003,9.9424,10.0608,10.1386,10.0608,10.0608,10.1386,10.1386,10.1386,10.1386,10.2198,10.2502,10.2502,10.2502,10.2502,10.2502,10.2502,10.2502,10.2502,10.2502,10.2502,10.2502,10.2502,10.2502,10.2502,0.0,0.0,0.0,0.0,0.0,0.0,0.0,2.6183,2.6811,2.752,2.761,2.761,2.761,2.761,2.761,2.761,2.761,0.0,0.0,0.0,0.0,0.0,0.0,0.0,0.0,3.13,3.2317,3.2527,3.3634,3.4262,3.4565,3.5953,3.6904,3.744,3.7905,3.8414,0.0,0.0,0.0,0.0,0.0,0.0,0.0,0.0,0.0,0.0,0.0,0.0,0.0,0.0,0.0,0.0,0.0,0.0,0.0,5.1251,5.6224,6.1839,6.5087,6.7929,6.9823,6.9316,6.5797,6.1975,6.0047,5.5953,5.2029,5.0101,4.9695,5.0101,5.1319,5.1758,5.2773,5.531,5.5919,5.7509,6.1637,6.7286,7.2259,7.5642,8.2137,8.711,8.9004,9.1643,9.3334,9.3571,9.4282,9.5026,9.577,9.7664,9.8984,9.9491,9.9965,10.0608,10.1386,10.0608,10.0608,10.1386,10.1386,10.169,10.2198,10.2401,10.2502,10.2502,10.2502,10.2502,10.2502,10.2502,10.2502,10.2502,10.2502,10.2502,10.2502,10.2502,10.2502,10.2502,0.0,0.0,0.0,0.0,0.0,0.0,0.0,2.6183,2.6811,2.752,2.761,2.761,2.761,2.761,2.761,2.761,2.761,0.0,0.0,0.0,0.0,0.0,0.0,0.0,3.0313,3.1749,3.2886,3.3634,3.4472,3.51,3.5579,3.6779,3.7808,3.859,3.8882,3.9121,0.0,0.0,0.0,0.0,0.0,0.0,4.1914,0.0,0.0,0.0,0.0,0.0,0.0,0.0,0.0,0.0,0.0,0.0,0.0,0.0,5.1758,5.6156,6.0283,6.3294,6.5155,6.4715,6.0994,5.734,5.69,5.3112,4.956,4.9086,4.9221,4.9796,5.098,5.1691,5.2875,5.531,5.5953,5.7543,6.1637,6.7015,7.1819,7.527,8.3693,8.9207,8.9207,9.188,9.3706,9.3977,9.4687,9.5432,9.6176,9.8307,9.9728,10.0202,10.0811,10.1318,10.1792,10.1318,10.1318,10.1792,10.1792,10.2096,10.2502,10.2502,10.2502,10.2502,10.2502,10.2502,0.0,10.2502,10.2502,10.2502,10.2502,10.2502,10.2502,10.2502,10.2502,10.2502,0.0,0.0,0.0,0.0,0.0,0.0,0.0,2.6123,2.6811,2.746,2.758,2.761,2.761,2.761,2.761,2.761,0.0,0.0,0.0,0.0,0.0,0.0,0.0,0.0,3.1452,3.2317,3.3634,3.5519,3.5609,3.6237,3.7404,3.8249,3.903,3.9809,4.0678,4.0687,0.0,0.0,0.0,0.0,3.827,3.9309,0.0,0.0,0.0,0.0,0.0,0.0,0.0,0.0,0.0,0.0,0.0,0.0,0.0,0.0,0.0,0.0,0.0,6.0317,6.3565,6.3497,5.9844,5.6258,5.6258,5.2536,0.0,4.9086,4.9661,5.0405,5.115,5.2503,5.3991,5.548,5.6325,5.8896,6.4918,6.6406,6.9214,7.5506,8.2137,8.6095,8.5892,9.056,9.3909,9.4654,9.5364,9.6108,9.6853,9.9018,10.0235,10.0235,10.1622,10.2434,10.2502,10.2434,10.2434,10.2502,10.2502,10.2502,10.2502,10.2502,10.2502,10.2502,10.2502,10.2502,10.2502,10.2502,10.2502,10.2502,10.2502,10.2502,10.2502,10.2502,10.2502,10.2502,0.0,0.0,0.0,0.0,0.0,0.0,0.0,0.0,0.0,0.0,2.726,2.761,2.761,2.761,2.761,0.0,0.0,0.0,0.0,0.0,0.0,0.0,0.0,0.0,3.1452,3.3664,3.504,3.5519,3.6477,3.7105,3.7404,3.8284,3.8805,3.8997,4.0502,4.0776,0.0,0.0,0.0,0.0,3.9396,4.0223,0.0,0.0,0.0,0.0,4.4316,4.4587,0.0,0.0,0.0,0.0,0.0,0.0,0.0,0.0,4.7158,4.8477,4.9898,0.0,5.3348,5.2807,5.1758,5.0845,0.0,5.0304,4.983,4.983,5.0439,5.1183,5.1928,5.2841,5.3991,5.548,5.6325,5.9099,6.5628,7.3443,7.9261,8.1393,8.6602,8.9106,8.6873,9.0865,9.3909,9.4654,9.5364,9.6108,9.6853,9.9018,10.0235,10.0235,10.1115,10.1893,10.2502,10.1893,10.1893,10.2502,10.2502,10.2502,10.2502,10.2502,10.2502,10.2502,10.2502,10.2502,10.2502,10.2502,10.2502,10.2502,10.2502,10.2502,10.2502,10.2502,10.2502,10.2502,0.0,0.0,0.0,0.0,0.0,0.0,0.0,0.0,0.0,0.0,0.0,2.723,2.758,2.761,0.0,0.0,0.0,0.0,0.0,0.0,0.0,0.0,0.0,3.1569,3.2856,3.4622,3.5938,3.6836,3.7524,3.8033,3.8332,3.8788,3.9235,3.9575,4.0312,4.0156,0.0,0.0,0.0,3.8404,3.8479,0.0,0.0,0.0,0.0,0.0,4.3775,4.4282,0.0,4.4587,4.4587,4.4587,0.0,0.0,0.0,0.0,4.6278,4.7056,4.7733,4.8748,4.9492,4.9086,4.9018,4.9086,4.9424,4.9796,5.0202,5.0541,5.1488,5.2401,5.2773,5.5716,5.7679,5.6427,6.0588,6.5459,6.9789,7.554,8.0378,8.3152,8.6602,8.8937,8.941,9.1947,9.4045,9.5127,9.5567,9.6277,9.736,9.8848,9.9863,10.0202,10.0608,10.1216,10.1995,10.1216,10.1216,10.1995,10.1995,10.2198,10.2502,10.2502,10.2502,10.2502,10.2502,10.2502,10.2502,10.2502,10.2502,10.2502,10.2502,10.2502,10.2502,10.2502,10.2502,10.2502,0.0,0.0,0.0,0.0,0.0,0.0,0.0,0.0,0.0,0.0,0.0,0.0,0.0,0.0,0.0,0.0,0.0,0.0,0.0,0.0,0.0,0.0,3.1031,3.2617,3.4592,3.54,3.6656,3.8392,3.8482,3.8841,3.9409,3.9553,4.013,4.11,4.0513,3.9752,3.881,0.0,3.6998,3.7783,3.738,0.0,0.0,0.0,0.0,0.0,0.0,0.0,0.0,4.4587,4.4587,4.4587,4.4587,0.0,0.0,0.0,0.0,0.0,4.7394,4.9018,5.0135,4.9221,4.9086,4.9323,4.9965,5.027,5.0642,5.142,5.2672,5.3923,5.4702,5.9032,6.1501,5.849,6.6373,7.3544,7.5371,7.6961,7.9397,8.3389,8.5486,8.7989,9.1406,9.2962,9.4315,9.5702,9.5905,9.6616,9.8104,9.8882,9.9627,10.0405,10.0405,10.0709,10.1386,10.0709,10.0709,10.1386,10.1487,10.1893,10.2502,10.2502,10.2502,10.2502,10.2502,10.2502,10.2502,10.2502,10.2502,10.2502,10.2502,10.2502,10.2502,10.2502,10.2502,10.2502,0.0,0.0,0.0,0.0,0.0,0.0,0.0,0.0,0.0,0.0,0.0,0.0,0.0,0.0,0.0,0.0,0.0,0.0,0.0,0.0,0.0,3.118,3.1958,3.3305,3.531,3.6507,3.7524,3.8392,3.896,3.932,3.9409,4.02,4.1362,4.2892,4.2163,4.1054,3.9806,4.0216,3.9358,3.7905,3.9082,0.0,0.0,0.0,0.0,0.0,0.0,0.0,0.0,4.4587,4.4587,4.4587,4.4587,0.0,0.0,0.0,0.0,0.0,4.6921,5.1657,5.531,5.027,4.9458,4.9965,5.0067,5.1048,5.2198,5.2976,5.3822,5.5784,6.0216,5.9268,5.9066,6.2787,7.0026,7.6386,7.9769,8.4708,8.7347,8.5621,8.8395,8.9985,8.8801,9.2218,9.489,9.5736,9.6379,9.736,9.8848,9.9627,10.0405,10.1183,10.1183,10.1284,10.1386,10.1284,10.1284,10.1386,10.1995,10.2401,10.2502,10.2502,10.2502,10.2502,10.2502,10.2502,10.2502,10.2502,10.2502,10.2502,10.2502,10.2502,10.2502,10.2502,10.2502,10.2502,0.0,0.0,0.0,0.0,0.0,0.0,0.0,0.0,0.0,0.0,0.0,0.0,0.0,0.0,0.0,0.0,0.0,0.0,0.0,0.0,3.0721,3.1988,3.3365,3.4758,3.5998,3.7285,3.8272,3.896,3.926,3.9409,3.9409,4.0309,4.1396,4.255,4.1837,4.0942,3.9959,3.9928,3.9322,3.8469,0.0,0.0,0.0,0.0,0.0,0.0,0.0,0.0,0.0,0.0,4.4587,4.4587,4.4587,0.0,0.0,0.0,0.0,0.0,4.6684,4.9864,5.3112,5.3179,5.5886,5.8626,5.9032,5.9641,5.981,5.8558,5.8896,6.0148,6.255,6.4208,6.7861,7.5946,7.6386,7.7299,8.1832,8.349,8.4606,8.5655,8.7651,8.9478,9.0865,9.3267,9.5026,9.5736,9.648,9.736,9.8442,9.9221,9.9796,10.01,10.0506,10.0777,10.0777,10.1183,10.1386,10.1386,10.169,10.2096,10.2502,10.2502,10.2502,10.2502,10.2502,10.2502,10.2502,10.2502,10.2502,10.2502,10.2502,10.2502,10.2502,10.2502,10.2502,10.2502,0.0,0.0,0.0,0.0,0.0,0.0,0.0,0.0,0.0,0.0,0.0,0.0,0.0,0.0,0.0,0.0,0.0,0.0,0.0,2.9816,3.1067,3.2647,3.4516,3.5854,3.6686,3.7823,3.8721,3.9409,3.9409,3.9481,3.9737,4.0826,4.1658,4.23,4.197,4.129,4.0458,3.9865,3.9438,3.9171,0.0,0.0,0.0,0.0,0.0,0.0,0.0,0.0,0.0,0.0,0.0,0.0,0.0,0.0,0.0,4.479,4.5365,4.6143,4.7056,4.9289,5.2334,5.6528,6.0216,6.3531,6.6203,6.6271,6.5493,6.4444,6.4681,6.5189,6.5527,6.962,7.5608,8.3795,8.0851,7.9295,8.437,8.3287,8.3219,8.667,8.7753,8.9613,9.3233,9.4417,9.5195,9.577,9.6616,9.7529,9.8476,9.9051,9.9525,9.9863,10.0438,10.0743,10.0743,10.1318,10.1589,10.1386,10.1589,10.1995,10.2502,10.2502,10.2502,10.2502,10.2502,10.2502,10.2502,10.2502,10.2502,10.2502,10.2502,10.2502,10.2502,10.2502,10.2502,10.2502,0.0,0.0,0.0,0.0,0.0,0.0,0.0,0.0,0.0,0.0,0.0,0.0,0.0,0.0,0.0,0.0,0.0,0.0,0.0,2.9589,3.0788,3.3305,3.4775,3.6094,3.7315,3.8033,3.8721,3.9409,3.9409,3.9809,4.0622,4.2332,4.3169,4.3229,4.3997,4.3504,4.2129,4.2055,4.1264,4.0007,4.0016,0.0,0.0,0.0,0.0,0.0,0.0,0.0,0.0,0.0,0.0,0.0,0.0,0.0,4.4722,4.5432,4.6143,4.7022,4.8477,5.3484,5.8558,5.9607,5.7103,5.6562,6.4918,6.4681,6.4038,6.8673,6.9654,7.0128,7.1515,7.324,7.4931,7.6352,8.0141,8.4539,8.9072,9.0121,9.0527,9.0865,9.1575,9.2421,9.347,9.489,9.5736,9.5804,9.7123,9.8544,9.9999,10.01,10.0811,10.2198,10.2299,10.2333,10.2333,10.2401,10.2096,10.1386,10.2096,10.2434,10.2502,10.2502,10.2502,10.2502,10.2502,10.2502,10.2502,10.2502,10.2502,10.2502,10.2502,10.2502,10.2502,10.2502,10.2502,10.2502,0.0,0.0,0.0,0.0,0.0,0.0,0.0,0.0,0.0,0.0,0.0,0.0,0.0,0.0,0.0,0.0,0.0,0.0,0.0,3.0247,3.1389,3.4025,3.54,3.6485,3.7375,3.8482,3.9395,4.017,4.0758,4.1162,4.1528,4.2205,4.3108,4.4064,4.335,4.298,4.2981,4.2455,4.171,4.0769,4.0762,4.0493,0.0,0.0,0.0,0.0,0.0,0.0,0.0,0.0,4.3842,4.3944,4.4418,4.4587,4.4722,4.5466,4.621,4.7124,4.8612,5.3551,5.8592,5.981,5.9573,6.1501,7.0939,7.1819,7.0838,7.1447,7.3071,7.4255,7.3849,7.8416,8.19,8.075,8.4539,8.826,8.9985,9.1237,9.1981,9.1981,9.2658,9.3436,9.4214,9.5195,9.5973,9.6447,9.7428,9.8442,9.9457,9.9965,10.0506,10.1115,10.2028,10.2299,10.1792,10.1792,10.1893,10.2096,10.2401,10.2502,10.2502,10.2502,10.2502,10.2502,10.2502,10.2502,10.2502,10.2502,10.2502,10.2502,10.2502,10.2502,10.2502,10.2502,10.2502,10.2502,0.0,0.0,0.0,0.0,0.0,0.0,0.0,0.0,0.0,0.0,0.0,0.0,0.0,0.0,0.0,0.0,0.0,0.0,3.0835,3.1134,3.2168,3.4403,3.5827,3.6776,3.7375,3.9039,4.0163,4.069,4.1853,4.2395,4.2395,4.2707,4.3469,4.4587,4.335,4.3205,4.372,4.2912,4.2167,4.1542,4.1305,4.0764,0.0,0.0,0.0,0.0,0.0,0.0,0.0,0.0,4.3403,4.3538,4.435,4.4587,4.479,4.5771,4.7394,4.9323,5.1285,5.4972,5.8998,6.2144,6.2651,6.4952,7.4695,7.5371,7.4322,7.5642,7.7367,7.8179,7.6657,8.1765,8.5587,8.3795,8.7279,9.029,9.0527,9.1643,9.2421,9.2421,9.3098,9.3876,9.462,9.5364,9.6108,9.6819,9.7563,9.8442,9.939,9.9931,10.0438,10.0912,10.1927,10.2096,10.1386,10.1589,10.1893,10.2198,10.2401,10.2502,10.2502,10.2502,10.2502,10.2502,10.2502,10.2502,10.2502,10.2502,10.2502,10.2502,10.2502,10.2502,10.2502,10.2502,10.2502,10.2502,0.0,0.0,0.0,0.0,0.0,0.0,0.0,0.0,0.0,0.0,0.0,0.0,0.0,0.0,0.0,0.0,0.0,0.0,3.147,3.2217,3.316,3.4434,3.5856,3.6809,3.7443,3.9718,4.0863,4.069,4.2458,4.3323,4.3323,4.4179,4.4587,4.4587,4.4587,4.4587,4.4519,4.3741,4.2997,4.2219,4.1508,4.0764,4.0087,0.0,0.0,0.0,0.0,0.0,0.0,0.0,4.3403,4.3538,4.4316,4.4587,4.4857,4.6346,4.9932,5.4093,5.7036,5.8457,6.0689,6.7387,6.5764,6.5053,7.4695,7.3443,7.2766,8.1663,8.2915,8.1934,8.0479,8.2644,8.4403,8.3625,8.7279,9.0459,9.1203,9.1947,9.2421,9.2421,9.3131,9.3876,9.4654,9.5364,9.6108,9.6853,9.7597,9.8645,10.0134,10.0235,10.0912,10.2434,10.2502,10.2096,10.1386,10.2096,10.2096,10.1386,10.2096,10.2502,10.2502,10.2502,10.2502,10.2502,10.2502,10.2502,10.2502,10.2502,10.2502,10.2502,10.2502,10.2502,10.2502,10.2502,10.2502,10.2502,0.0,0.0,0.0,0.0,0.0,0.0,0.0,0.0,0.0,0.0,0.0,0.0,0.0,0.0,0.0,0.0,0.0,0.0,3.2158,3.2,3.315,3.5905,3.5917,3.6938,3.9094,4.1397,4.2264,4.1593,4.335,4.3889,4.3323,4.3562,4.4006,4.4587,4.3948,4.4006,4.4553,4.435,4.347,4.2286,4.2049,4.1204,4.0087,0.0,0.0,0.0,0.0,0.0,0.0,0.0,0.0,0.0,4.3538,4.4147,4.4857,4.6346,4.7733,4.9424,5.2401,5.8355,6.3802,6.4275,6.8098,7.2496,7.5405,7.5473,7.669,8.2983,8.2441,8.0885,8.0953,8.4268,8.6399,8.464,8.7651,9.0662,9.1913,9.2286,9.2624,9.3165,9.3909,9.4654,9.5398,9.6142,9.6886,9.7631,9.8341,9.9187,10.0134,10.0709,10.1284,10.169,10.169,10.1318,10.0608,10.0811,10.1081,10.1386,10.1589,10.1995,10.2502,10.2502,10.2502,10.2502,10.2502,10.2502,10.2502,10.2502,10.2502,10.2502,10.2502,10.2502,10.2502,10.2502,10.2502,10.2502,0.0,0.0,0.0,0.0,0.0,0.0,0.0,0.0,0.0,0.0,3.0878,3.0642,0.0,0.0,0.0,0.0,0.0,0.0,3.2817,3.2757,3.3815,3.6171,3.641,3.768,4.0394,4.2045,4.2742,4.2589,4.3896,4.4327,4.3831,4.3831,4.4064,4.4587,4.4064,4.4121,4.4587,4.4587,4.3707,4.2286,4.2286,4.1407,4.0087,0.0,0.0,0.0,0.0,0.0,0.0,0.0,0.0,0.0,4.3166,4.3944,4.5297,4.8849,4.9695,5.0947,5.778,6.2821,6.6745,6.9282,7.2834,7.6251,7.8314,7.8957,8.0141,8.3862,8.4133,8.3761,8.393,8.7144,8.914,8.7211,8.9241,9.1406,9.2286,9.2692,9.3064,9.3537,9.4248,9.4992,9.5736,9.6447,9.7191,9.7935,9.8679,9.9424,10.0202,10.0709,10.1081,10.1386,10.1081,10.0709,10.0235,10.0506,10.0912,10.1386,10.169,10.2096,10.2502,10.2502,10.2502,10.2502,10.2502,10.2502,10.2502,10.2502,10.2502,10.2502,10.2502,10.2502,10.2502,10.2502,10.2502,10.2502,0.0,0.0,0.0,0.0,0.0,0.0,0.0,0.0,0.0,3.119,3.119,3.119,0.0,0.0,0.0,3.119,3.1867,3.2611,3.3355,3.4047,3.4807,3.5679,3.7213,3.8983,4.1068,4.1899,4.2699,4.3403,4.4215,4.4587,4.4587,4.4587,4.4587,4.4587,4.4587,4.4587,4.4587,4.4587,4.3741,4.2388,4.232,4.1441,4.0155,4.0121,0.0,0.0,0.0,0.0,0.0,0.0,0.0,0.0,4.3098,4.391,4.5805,5.2063,5.3754,5.6156,6.7895,6.935,6.9654,7.8483,7.8483,7.757,8.2306,8.2983,8.305,8.4539,8.7008,8.87,8.8091,9.0324,9.1812,9.0527,9.1508,9.2455,9.2522,9.3131,9.3605,9.3673,9.4349,9.5093,9.5838,9.6548,9.7258,9.7969,9.8679,9.9424,10.0202,10.0235,10.0506,10.1284,10.0608,10.0202,10.0134,10.098,10.1386,10.1386,10.213,10.2502,10.2502,10.2502,10.2502,10.2502,10.2502,10.2502,10.2502,10.2502,10.2502,10.2502,10.2502,10.2502,10.2502,10.2502,10.2502,10.2502,0.0,0.0,0.0,0.0,0.0,0.0,0.0,0.0,3.119,3.119,3.119,3.119,3.119,3.119,0.0,3.119,3.1867,3.2611,3.3355,3.3627,3.4551,3.6438,3.8504,3.98,4.0324,4.2193,4.3238,4.3403,4.4215,4.4587,4.4587,4.4587,4.4587,4.4587,4.4587,4.4587,4.4587,4.4587,4.4045,4.3132,4.2523,4.1745,4.0899,4.029,4.0087,0.0,0.0,0.0,0.0,0.0,0.0,0.0,4.2489,4.347,4.5094,4.7699,5.1251,5.5344,5.981,6.6846,7.3443,7.554,7.8517,8.1257,8.2374,8.3422,8.4573,8.6095,8.6941,8.7516,8.7922,8.9478,9.0763,9.1034,9.1846,9.2624,9.3233,9.347,9.3808,9.4383,9.5127,9.5838,9.6582,9.7326,9.7834,9.8003,9.8679,9.9424,10.0202,10.0235,10.0303,10.0506,10.0303,9.9931,9.9322,10.0675,10.1386,10.1386,10.213,10.2502,10.2502,10.2502,10.2502,10.2502,10.2502,10.2502,10.2502,10.2502,10.2502,10.2502,10.2502,10.2502,10.2502,10.2502,10.2502,10.2502,0.0,0.0,0.0,0.0,0.0,0.0,0.0,0.0,3.119,3.119,3.119,3.119,3.119,3.119,0.0,0.0,3.1529,3.2239,3.3322,3.3426,3.4466,3.6705,3.7889,3.8836,3.9546,4.1035,4.2185,4.2861,4.3639,4.4215,4.4587,4.4587,4.4587,4.4587,4.4587,4.4587,4.4587,4.4587,4.4147,4.3403,4.2997,4.2388,4.1677,4.1305,4.1136,4.1136,4.1136,0.0,0.0,0.0,0.0,0.0,0.0,0.0,4.5297,4.8917,5.0405,5.2909,6.2279,6.7523,7.1548,7.6555,7.987,8.1968,8.234,8.3016,8.42,8.6467,8.7177,8.7753,8.8869,8.9985,9.0966,9.1711,9.2489,9.3131,9.3537,9.3571,9.3842,9.462,9.5364,9.6074,9.6819,9.7563,9.8003,9.8003,9.8679,9.9424,10.0202,9.9897,9.9999,10.0777,10.01,9.9829,10.0202,10.098,10.1589,10.1893,10.2299,10.2502,10.2502,10.2502,10.2502,10.2502,10.2502,10.2502,10.2502,10.2502,10.2502,10.2502,10.2502,10.2502,10.2502,10.2502,10.2502,10.2502,0.0,0.0,0.0,0.0,0.0,0.0,0.0,0.0,0.0,3.119,3.119,3.119,3.119,3.119,3.119,0.0,0.0,0.0,3.3322,3.366,3.4607,3.6502,3.6705,3.7347,3.8565,3.958,4.0696,4.1914,4.2929,4.3741,4.4384,4.4519,4.4587,4.4587,4.4587,4.4587,4.4587,4.4587,4.4215,4.3606,4.347,4.3031,4.2489,4.2354,4.2286,4.2286,4.2286,4.2286,4.2185,4.161,0.0,0.0,0.0,0.0,4.5568,5.0676,5.0236,5.1251,6.5628,6.8301,6.935,7.9058,8.1494,8.1663,8.2441,8.2712,8.3592,8.6332,8.738,8.8294,8.9918,9.0797,9.1541,9.2286,9.3064,9.3571,9.3571,9.3571,9.3909,9.4789,9.5432,9.6142,9.6988,9.7631,9.8003,9.8003,9.8679,9.9424,10.0202,9.9627,9.9931,10.1386,10.0168,10.01,10.1386,10.1487,10.1893,10.2502,10.2502,10.2502,10.2502,10.2502,10.2502,10.2502,10.2502,10.2502,10.2502,10.2502,10.2502,10.2502,10.2502,10.2502,10.2502,10.2502,10.2502,10.2502,0.0,0.0,0.0,0.0,0.0,0.0,0.0,0.0,0.0,0.0,3.119,3.119,3.119,3.119,3.119,3.119,3.119,3.1833,3.3322,0.0,0.0,3.5757,3.6434,3.6874,3.7077,3.9073,4.0189,4.0358,4.2422,4.347,4.3606,4.4248,4.4587,4.4587,4.4587,4.4587,4.4587,4.4587,4.4519,4.435,4.3673,4.3369,4.32,4.2523,4.2286,4.2286,4.2286,4.2286,4.2286,4.2185,4.2726,0.0,0.0,0.0,4.4857,4.6312,4.9965,5.4194,5.7137,6.5053,7.4018,8.0615,8.2272,8.2441,8.3186,8.3862,8.4809,8.6569,8.6974,8.7685,8.9816,9.0797,9.1541,9.2286,9.3064,9.3571,9.3571,9.3571,9.4079,9.5499,9.5736,9.6345,9.7732,9.7935,9.8003,9.8003,9.8679,9.9424,10.0202,10.0134,10.0506,10.1386,10.1183,10.1183,10.1386,10.1995,10.2401,10.2502,10.2502,10.2502,10.2502,10.2502,10.2502,10.2502,10.2502,10.2502,10.2502,10.2502,10.2502,10.2502,10.2502,10.2502,10.2502,10.2502,10.2502,10.2502,0.0,0.0,0.0,0.0,0.0,0.0,0.0,0.0,0.0,0.0,0.0,3.119,3.119,3.119,3.136,3.1765,3.1799,3.2442,3.3931,3.5013,3.5622,3.5622,3.596,3.6332,3.6772,3.8159,3.9276,4.0087,4.1474,4.2388,4.2794,4.3132,4.3741,4.4587,4.4587,4.4587,4.4587,4.4587,4.4587,4.4553,4.4215,4.5838,4.8071,4.4823,4.5365,4.753,4.4621,4.3572,4.3504,4.3064,4.3436,4.3978,4.3538,0.0,0.0,0.0,4.7225,5.115,5.8186,6.7252,7.5879,8.0581,8.2408,8.2983,8.2915,8.3456,8.4302,8.5418,8.6332,8.7583,8.9816,9.0797,9.1541,9.2286,9.3064,9.3571,9.3571,9.3571,9.4146,9.5601,9.5804,9.6379,9.7867,9.8003,9.8003,9.8003,9.8679,9.9424,10.0202,10.0235,10.0811,10.1995,10.1589,10.1589,10.1995,10.2299,10.2502,10.2502,10.2502,10.2502,10.2502,10.2502,10.2502,10.2502,10.2502,10.2502,10.2502,10.2502,10.2502,10.2502,10.2502,10.2502,10.2502,10.2502,10.2502,10.2502,0.0,0.0,0.0,0.0,0.0,0.0,0.0,0.0,0.0,0.0,0.0,3.1765,3.1765,0.0,0.0,0.0,3.2577,3.3119,3.4404,3.5216,3.5622,3.5622,3.5622,3.5893,3.6468,3.7212,3.8261,3.9512,4.046,4.1305,4.2016,4.2185,4.2895,4.4012,4.4181,4.4384,4.4587,4.4587,4.4587,4.4688,4.5805,4.8612,5.1792,4.9018,5.0473,5.3315,4.8139,4.638,4.6244,4.435,4.4079,4.4485,4.391,4.4113,0.0,0.0,0.0,4.8003,5.866,6.6237,7.2529,7.8179,8.0547,8.1765,8.2746,8.3389,8.4065,8.5012,8.6399,8.8023,8.9884,9.0797,9.1541,9.2286,9.3064,9.3571,9.3571,9.3571,9.4079,9.5364,9.5702,9.6311,9.7597,9.7901,9.8003,9.8003,9.8848,9.9627,10.0202,10.0608,10.1318,10.2502,10.1995,10.1893,10.2502,10.2502,10.2502,10.2502,10.2502,10.2502,10.2502,10.2502,10.2502,10.2502,10.2502,10.2502,10.2502,10.2502,10.2502,10.2502,10.2502,10.2502,10.2502,10.2502,10.2502,10.2502,0.0,0.0,0.0,0.0,0.0,0.0,0.0,0.0,0.0,0.0,0.0,3.3288,3.3288,3.3288,3.3322,3.3355,3.3355,3.366,3.4438,3.5216,3.5622,3.5622,3.5622,0.0,3.569,3.6434,3.7212,3.8024,3.9478,4.0561,4.1271,4.1982,4.232,4.2455,4.3166,4.3876,4.4587,4.4587,4.4587,4.4959,4.9187,5.1048,5.1725,5.5683,5.7814,5.7983,5.2739,5.1319,5.115,4.6177,4.4553,4.4587,4.4519,4.4553,4.4587,0.0,0.0,0.0,5.4228,5.7442,6.14,7.2259,7.554,7.757,8.3219,8.4539,8.4979,8.6501,8.7955,8.9207,9.0053,9.0797,9.1541,9.2286,9.3064,9.3571,9.3571,9.3571,9.3876,9.4654,9.5364,9.6108,9.6853,9.7597,9.8003,9.8003,9.9356,10.0202,10.0235,10.1622,10.2401,10.2502,10.2502,10.2502,10.2502,10.2502,10.2502,10.2502,10.2502,10.2502,10.2502,10.2502,10.2502,10.2502,10.2502,10.2502,10.2502,10.2502,10.2502,10.2502,10.2502,10.2502,10.2502,10.2502,10.2502,10.2502,0.0,0.0,0.0,0.0,0.0,0.0,0.0,0.0,0.0,0.0,0.0,0.0,0.0,3.3423,3.3592,3.4066,3.4539,3.4945,3.5216,3.5453,3.5622,3.5622,3.5622,3.5622,3.5622,3.6366,3.7144,3.7922,3.8903,3.9783,4.0493,4.073,4.1136,4.1644,4.2861,4.3572,4.3876,4.435,4.4587,4.4959,4.9424,5.3518,5.6731,5.4972,5.8626,6.3666,5.5581,5.2841,5.2706,5.0338,4.7631,4.5229,4.4722,4.4587,4.4587,4.4587,4.5128,4.7056,5.3315,5.6427,5.9877,6.8233,7.3409,7.7029,7.9194,8.2238,8.4776,8.5317,8.6636,8.7922,8.8666,9.0154,9.1372,9.1643,9.2319,9.2827,9.2827,9.3267,9.3842,9.462,9.4924,9.5567,9.6751,9.7123,9.7495,9.7969,9.939,10.0235,10.0235,10.169,10.2502,10.2502,10.2502,10.2502,10.2502,10.2502,10.2502,10.2502,10.2502,10.2502,10.2502,10.2502,10.2502,10.2502,10.2502,10.2502,10.2502,10.2502,10.2502,10.2502,10.2502,10.2502,10.2502,10.2502,10.2502,10.2502,0.0,0.0,0.0,0.0,0.0,0.0,0.0,0.0,3.4912,3.4912,0.0,0.0,0.0,0.0,3.5013,3.525,3.5723,3.5893,3.5656,3.5622,3.5622,3.5622,3.5622,3.5622,3.5622,3.5893,3.6502,3.7516,3.8024,3.8768,3.9715,3.9952,4.0358,4.0899,4.2388,4.3166,4.347,4.4248,4.4587,4.5128,5.1352,5.531,5.7476,5.7509,6.1061,6.5189,5.8524,5.6292,5.6325,5.5277,5.2976,5.0135,4.7868,4.5974,4.4587,4.4587,4.4925,4.6278,5.0744,5.3247,5.6224,6.3193,6.8335,7.2597,7.6115,7.9938,8.3186,8.4708,8.6399,8.7786,8.826,8.9782,9.0932,9.0932,9.1541,9.215,9.2387,9.2861,9.347,9.4248,9.4552,9.5093,9.6074,9.6819,9.736,9.7597,9.9491,10.0506,10.0235,10.169,10.2502,10.2502,10.2502,10.2502,10.2502,10.2502,10.2502,10.2502,10.2502,10.2502,10.2502,10.2502,10.2502,10.2502,10.2502,10.2502,10.2502,10.2502,10.2502,10.2502,10.2502,10.2502,10.2502,10.2502,10.2502,10.2502,0.0,0.0,0.0,0.0,0.0,0.0,0.0,0.0,3.7922,3.7922,0.0,0.0,0.0,0.0,0.0,3.6874,3.6806,3.6502,3.5723,3.5656,3.5656,3.5656,3.5622,3.5622,3.5622,3.4912,3.5284,3.6772,3.6806,3.755,3.9005,3.9749,4.0087,4.0155,4.161,4.2692,4.3436,4.4248,4.4587,4.5466,5.5141,5.6461,5.3687,6.4005,6.5797,6.2685,6.1839,6.1907,6.2212,6.0825,6.0114,5.8896,5.3788,4.868,4.4621,4.4621,4.4587,4.4891,0.0,0.0,0.0,5.7002,6.0047,6.3937,7.4187,7.7841,8.031,8.4674,8.7414,8.9004,8.9004,8.9647,9.0154,9.0154,9.0797,9.1575,9.2319,9.2455,9.2759,9.3537,9.4248,9.4721,9.4755,9.6717,9.7698,9.6954,9.966,10.1014,10.0235,10.169,10.2502,10.2502,10.2502,10.2502,10.2502,10.2502,10.2502,10.2502,10.2502,10.2502,10.2502,10.2502,10.2502,10.2502,10.2502,10.2502,10.2502,10.2502,10.2502,10.2502,10.2502,10.2502,10.2502,10.2502,10.2502,10.2502,0.0,0.0,0.0,0.0,0.0,3.7347,3.755,3.8227,3.87,0.0,0.0,0.0,3.9478,3.9005,3.8396,3.7652,3.7584,3.7516,3.728,3.6772,3.6468,3.6468,3.5926,3.5622,3.5622,3.5419,3.5791,3.6772,3.7313,3.8091,3.9005,3.9749,4.0087,4.0155,4.161,4.2388,4.2692,4.4012,4.4891,4.6244,5.5953,5.9438,5.9539,6.6237,7.0128,7.1548,6.8166,6.5324,6.3565,6.5831,6.0486,5.2435,4.9932,4.7394,4.5399,4.5399,4.5026,4.4891,4.638,0.0,0.0,0.0,0.0,0.0,6.617,7.2969,7.8822,8.0581,8.4471,8.7516,8.7516,8.8125,8.8598,8.8598,9.0121,9.1575,9.2319,9.2895,9.3537,9.4315,9.4586,9.5127,9.6176,9.6853,9.7326,0.0,9.9457,10.0438,10.0235,10.169,10.2502,10.2502,10.2502,10.2502,10.2502,10.2502,10.2502,10.2502,10.2502,10.2502,10.2502,10.2502,10.2502,10.2502,10.2502,10.2502,10.2502,10.2502,10.2502,10.2502,10.2502,10.2502,10.2502,10.2502,10.2502,10.2502,0.0,0.0,3.6874,3.7212,3.7855,3.8464,3.8768,3.9445,4.002,0.0,0.0,0.0,4.1001,4.0629,4.0087,3.9343,3.9005,3.87,3.8396,3.7652,3.711,3.6806,3.6332,3.596,3.5622,3.5318,3.552,3.6299,3.7077,3.7821,3.8565,3.958,4.0087,4.0155,4.161,4.2286,4.2422,4.4248,4.5297,4.6583,5.6596,5.9776,5.9302,6.6745,7.0195,7.0973,7.0263,6.9011,6.8267,7.2022,6.5628,5.5886,5.4431,5.0574,4.6583,4.6244,4.5635,4.5365,4.6853,4.7361,4.8071,5.071,0.0,0.0,6.4478,7.0703,7.6555,8.1393,8.5046,8.738,8.738,8.7719,8.8091,8.8395,8.9545,9.0729,9.1812,9.2353,9.303,9.4112,9.4248,9.4687,9.5872,9.6514,9.7056,9.7495,9.9221,10.0337,10.0709,10.1825,10.2502,10.2502,10.2502,10.2502,10.2502,10.2502,10.2502,10.2502,10.2502,10.2502,10.2502,10.2502,10.2502,10.2502,10.2502,10.2502,10.2502,10.2502,10.2502,10.2502,10.2502,10.2502,10.2502,10.2502,10.2502,10.2502,0.0,3.6975,3.728,3.8024,3.8768,3.9478,4.0257,4.0967,4.1677,0.0,4.2489,4.2523,4.2422,4.2422,4.2117,4.1407,4.073,4.0087,3.9411,3.8599,3.7855,3.7178,3.6907,3.6468,3.5757,3.5013,3.4945,3.5622,3.64,3.7178,3.7922,3.9309,4.0054,4.0257,4.1677,4.2354,4.2557,4.4857,4.6109,4.7394,5.6968,5.8761,0.0,0.0,6.8639,6.6609,7.0635,7.2631,7.3815,7.686,7.2394,6.5189,6.2854,5.6427,4.9424,4.7564,4.6887,4.6887,4.7699,4.7428,4.7428,4.956,5.1082,0.0,6.5019,6.8842,7.2868,8.2272,8.5249,8.6129,8.6027,8.6163,8.6467,8.711,8.7786,8.8903,9.0899,9.1237,9.1846,9.3402,9.3571,9.3909,9.4755,9.6074,9.6886,9.6886,9.8882,10.0506,10.1386,10.1995,10.2401,10.2502,10.2502,10.2502,10.2502,10.2502,10.2502,10.2502,10.2502,10.2502,10.2502,10.2502,10.2502,10.2502,10.2502,10.2502,10.2502,10.2502,10.2502,10.2502,10.2502,10.2502,10.2502,10.2502,10.2502,10.2502,3.755,3.8159,3.8802,3.9546,4.029,4.1035,4.1745,4.2489,4.3031,4.3166,4.3741,4.3876,4.3267,4.32,4.2895,4.2151,4.1948,4.1813,4.1677,4.0426,3.9614,3.9478,3.7753,3.6705,3.6569,3.5791,3.5487,3.5622,3.64,3.7178,3.7922,3.8802,3.9851,4.1035,4.1914,4.2625,4.3335,4.5635,4.868,5.23,5.6156,5.9674,6.3328,6.9586,7.3375,7.5473,7.6386,7.4931,7.236,7.0669,7.0838,7.0432,6.2922,6.0926,5.9674,5.1082,5.0608,5.2131,4.8815,4.78,4.8071,4.9695,5.0304,0.0,5.5615,6.0013,6.4005,6.6643,7.1109,7.439,7.3781,7.4627,7.5473,7.5642,7.9667,8.4573,8.9715,9.0932,9.1846,9.3402,9.3571,9.4112,9.5466,9.6379,9.6886,9.6886,9.8375,9.9931,10.1284,10.1487,10.1893,10.2502,10.2502,10.2502,10.2502,10.2502,10.2502,10.2502,10.2502,10.2502,10.2502,10.2502,10.2502,10.2502,10.2502,10.2502,10.2502,10.2502,10.2502,10.2502,10.2502,10.2502,10.2502,10.2502,10.2502,10.2502,3.8294,3.8734,3.9343,4.046,4.0967,4.1576,4.2692,4.3166,4.3707,4.4451,4.5229,4.5534,4.5128,4.479,4.4418,4.4045,4.3301,4.2861,4.2861,4.1813,4.1035,4.0663,3.9208,3.8261,3.7889,3.6772,3.6366,3.6772,3.7144,3.7719,3.8464,3.9174,4.1508,4.5026,4.3132,4.435,4.7834,4.7496,4.9289,5.2807,5.8051,0.0,6.7963,7.3206,7.6589,7.8551,7.8551,7.7807,7.6589,7.5067,7.3105,7.077,6.7726,6.5019,6.1772,5.575,5.5074,5.5175,5.0304,4.8748,4.8646,4.9357,4.983,0.0,0.0,5.8863,6.2245,6.5595,6.8977,7.121,7.0804,7.1345,7.1853,7.1853,7.686,8.0885,8.1257,8.6771,9.1169,9.2319,9.2455,9.303,9.4552,9.5026,9.5702,9.6785,9.7935,9.9051,10.0202,10.098,10.1589,10.1893,10.2299,10.2502,10.2502,10.2502,10.2502,10.2502,10.2502,10.2502,10.2502,10.2502,10.2502,10.2502,10.2502,10.2502,10.2502,10.2502,10.2502,10.2502,10.2502,10.2502,10.2502,10.2502,10.2502,10.2502,3.9393,3.9411,3.9884,4.1373,4.1644,4.2083,4.3436,4.3775,4.435,4.5737,4.7056,4.78,4.7665,4.7767,4.78,4.7631,4.6616,4.5703,4.4959,4.4215,4.3673,4.3369,4.1373,4.0426,4.0696,3.8396,3.7449,3.7922,3.7922,3.8294,3.9005,3.9749,4.2794,4.7597,4.5128,4.6616,5.098,4.9898,5.1048,5.4194,0.0,6.5831,6.9214,7.4153,7.6961,7.8348,7.9228,8.0378,8.1426,8.0851,7.6183,7.0737,7.1515,6.8335,6.3497,5.937,5.8964,5.8457,5.2198,5.0101,4.9593,4.9458,4.9864,5.1623,0.0,0.0,0.0,6.5764,6.7455,6.8064,6.7929,6.8098,6.8199,6.7929,7.3003,0.0,0.0,7.987,0.0,8.7989,8.9985,9.144,9.1812,9.2252,9.3673,9.6447,9.6582,9.7191,9.8815,10.0303,10.1183,10.1386,10.2096,10.2502,10.2502,10.2502,10.2502,10.2502,10.2502,10.2502,10.2502,10.2502,10.2502,10.2502,10.2502,10.2502,10.2502,10.2502,10.2502,10.2502,10.2502,10.2502,10.2502,10.2502,10.2502,10.2502,4.1172,4.0967,4.1441,4.2895,4.3166,4.347,4.4316,4.5026,4.5737,4.6549,4.9593,5.142,5.0777,5.3619,5.5277,5.4634,5.5006,5.389,5.0541,4.9627,4.9763,5.098,4.4654,4.2895,4.6819,4.1542,3.8464,3.7922,3.7922,3.8294,3.9005,3.9749,4.117,4.3267,4.8071,4.8815,4.6819,5.2435,5.7645,0.0,6.4546,6.458,0.0,6.7557,7.1582,7.5642,7.96,8.1562,8.1866,0.0,7.7299,7.4796,6.7793,6.9992,7.2496,5.9032,6.0622,6.4613,5.4735,5.1995,5.1758,5.1116,5.1014,5.142,5.2773,0.0,5.3518,5.4194,0.0,5.6292,5.5649,0.0,0.0,5.575,0.0,0.0,6.37,6.9823,7.4931,7.6352,8.5249,8.9816,8.5993,8.7448,9.0662,9.5567,9.2928,9.3165,9.7867,9.9525,10.0709,10.1386,10.2096,10.2502,10.2502,10.2502,10.2502,10.2502,10.2502,10.2502,10.2502,10.2502,10.2502,10.2502,10.2502,10.2502,10.2502,10.2502,10.2502,10.2502,10.2502,10.2502,10.2502,10.2502,10.2502,10.2502,4.209,4.1847,4.2185,4.3234,4.3403,4.3842,4.506,4.6583,4.7733,4.8037,5.0168,5.1555,5.1251,5.2232,5.3484,5.4938,5.4938,5.4025,0.0,5.1555,5.0507,4.8545,4.506,4.3842,4.5263,4.2016,4.0324,4.046,4.002,4.0189,4.0899,4.1238,4.3572,4.7597,5.0541,5.3179,5.5683,6.0216,6.2178,0.0,0.0,6.617,0.0,7.2428,7.7096,7.9397,8.1257,8.2137,8.2205,0.0,7.7468,0.0,7.5168,7.3477,7.006,6.5087,6.4749,6.4174,5.5886,5.5852,5.7239,5.3484,5.4465,5.5649,5.2909,5.23,5.23,5.23,0.0,0.0,0.0,0.0,0.0,0.0,5.9404,0.0,0.0,0.0,7.2326,0.0,0.0,0.0,8.3761,8.9173,9.3267,9.5026,9.4485,9.5026,9.7225,9.8341,9.9491,10.0709,10.1487,10.2096,10.2502,10.2502,10.2502,10.2502,10.2502,10.2502,10.2502,10.2502,10.2502,10.2502,10.2502,10.2502,10.2502,10.2502,10.2502,10.2502,10.2502,10.2502,10.2502,10.2502,10.2502,10.2502,4.363,4.3116,4.3095,4.366,4.391,4.4621,4.6346,4.797,4.9221,4.983,5.1725,5.3044,5.3044,5.4194,5.5683,5.7476,5.8084,5.7712,0.0,5.504,5.3653,5.186,4.7733,4.6075,4.7361,4.3944,4.2185,4.2286,4.1745,4.1779,4.2286,4.2489,4.4925,4.9187,5.1555,5.548,6.052,6.4715,6.5797,6.5053,6.9586,7.0297,6.9519,7.6927,8.1122,8.3016,8.3016,8.3287,8.349,8.2441,7.8247,0.0,7.9194,7.5879,7.0263,7.0669,6.9722,6.6948,5.937,5.9945,6.1332,5.5547,5.6528,5.7915,5.4093,5.3078,5.2875,5.2672,5.2909,0.0,0.0,0.0,5.3551,5.3112,0.0,5.8727,0.0,6.1061,0.0,0.0,0.0,0.0,0.0,8.7347,9.1508,9.2218,9.4011,9.5601,9.6819,9.78,9.8781,9.9863,10.0878,10.169,10.2198,10.2401,10.2502,10.2502,10.2502,10.2502,10.2502,10.2502,10.2502,10.2502,10.2502,10.2502,10.2502,10.2502,10.2502,10.2502,10.2502,10.2502,10.2502,10.2502,10.2502,10.2502,4.6389,4.525,4.4389,4.455,4.5162,4.638,4.8578,4.8951,4.9763,5.1928,5.5378,5.7679,5.7679,6.3463,6.6779,6.5459,6.8639,6.918,6.5493,6.1873,6.2042,6.6981,5.4735,5.0845,5.7273,4.8917,4.3741,4.2286,4.2286,4.2286,4.232,4.3031,4.3504,4.3944,5.0541,5.3991,5.531,6.2618,6.8571,7.3172,7.4086,7.7401,8.1359,0.0,7.9498,8.4539,8.4539,0.0,0.0,8.2543,8.0209,0.0,0.0,0.0,7.7874,7.3578,7.5337,7.6555,6.688,6.3903,6.2212,5.6968,5.575,5.5818,5.5649,5.504,5.4329,0.0,0.0,0.0,5.142,5.1319,5.0845,4.9424,5.0541,0.0,0.0,0.0,0.0,0.0,0.0,0.0,0.0,7.8213,8.1426,0.0,8.8767,9.2319,9.665,9.8273,9.9085,9.9119,10.0574,10.1386,10.1386,10.2096,10.2502,10.2502,10.2502,10.2502,10.2502,10.2502,10.2502,10.2502,10.2502,10.2502,10.2502,10.2502,10.2502,10.2502,10.2502,10.2502,10.2502,10.2502,10.2502,10.2502,4.66,4.6011,4.56,4.5285,4.5814,4.6918,4.8707,5.071,5.2942,5.5649,5.7949,6.0114,6.211,6.4343,6.6305,0.0,0.0,6.9316,6.803,6.4444,6.2922,6.4208,5.4702,5.1116,5.4905,4.8646,4.506,4.4553,4.4045,4.3809,4.3809,4.4079,4.4451,4.5196,5.1454,5.6833,6.1704,6.9147,0.0,0.0,0.0,7.7299,8.0344,0.0,8.3186,8.5452,8.596,8.6467,0.0,8.5452,8.3016,8.075,8.1968,7.9837,7.6927,7.7435,7.6893,7.5303,0.0,0.0,7.3172,6.4478,6.4546,6.4952,5.8017,5.5852,0.0,0.0,0.0,0.0,0.0,5.2739,5.2401,5.1352,0.0,0.0,0.0,0.0,0.0,0.0,0.0,0.0,0.0,0.0,0.0,0.0,0.0,0.0,9.6108,9.7089,9.807,9.9051,10.01,10.0878,10.1386,10.2096,10.2502,10.2502,10.2502,10.2502,10.2502,10.2502,10.2502,10.2502,10.2502,10.2502,10.2502,10.2502,10.2502,10.2502,10.2502,10.2502,10.2502,10.2502,10.2502,10.2502,4.7695,4.7519,4.7109,4.5839,4.6584,4.8059,4.9893,5.2063,5.4837,0.0,5.9945,0.0,6.5019,0.0,6.7658,0.0,7.0466,7.0601,6.9553,6.7218,0.0,6.5561,5.893,5.6461,5.8998,5.2367,4.8748,4.8477,4.6143,4.4857,4.4587,4.4587,4.4993,4.5906,5.027,5.6833,6.4986,7.0567,7.4762,0.0,0.0,7.9532,0.0,0.0,8.552,8.4843,0.0,8.7854,8.8125,8.8395,8.6501,8.4471,8.6907,8.4167,8.0445,8.2408,8.146,7.9261,7.6893,7.872,0.0,7.0601,7.0635,0.0,6.1907,0.0,5.8727,0.0,0.0,0.0,0.0,0.0,5.3518,5.4871,0.0,0.0,0.0,5.1217,0.0,0.0,0.0,0.0,0.0,0.0,0.0,0.0,0.0,0.0,0.0,9.7123,9.8003,9.8679,9.9694,10.0438,10.098,10.169,10.2198,10.2502,10.2502,10.2502,10.2502,10.2502,10.2502,10.2502,10.2502,10.2502,10.2502,10.2502,10.2502,10.2502,10.2502,10.2502,10.2502,10.2502,10.2502,10.2502,4.9515,4.9625,4.8916,4.6494,4.7759,4.983,5.2029,5.3247,5.5716,6.0858,6.167,6.3193,6.6914,6.9891,7.1312,7.0635,7.3138,7.3612,7.0804,7.0466,0.0,0.0,6.7218,6.6136,6.9214,5.9708,5.4363,5.3653,4.8409,4.5432,4.4688,4.4688,4.5128,4.594,4.7361,5.4228,6.4884,6.7015,7.3172,8.1629,8.305,8.3964,8.4843,8.7922,8.6366,8.3118,8.7583,8.9647,9.0357,9.1068,9.0357,8.9173,8.9173,8.8734,8.8158,8.8125,8.8632,8.8091,8.3084,8.1765,8.0513,7.527,7.395,0.0,0.0,0.0,6.5019,0.0,0.0,0.0,0.0,0.0,0.0,0.0,0.0,0.0,0.0,0.0,0.0,0.0,0.0,0.0,0.0,0.0,0.0,0.0,0.0,0.0,0.0,9.7935,9.8442,9.807,9.9424,10.0202,10.0303,10.1014,10.1792,10.2502,10.2502,10.2502,10.2502,10.2502,10.2502,10.2502,10.2502,10.2502,10.2502,10.2502,10.2502,10.2502,10.2502,10.2502,10.2502,10.2502,10.2502,10.2502,4.9828,5.0289,5.0945,5.1457,5.103,5.1217,5.2942,5.6664,6.0554,6.4106,6.7015,7.0161,7.3916,7.4999,7.5608,7.5946,7.669,0.0,0.0,0.0,0.0,7.6995,7.0128,6.7895,7.1481,6.1501,5.6156,5.5953,5.0168,4.6955,4.6244,4.6244,4.6921,4.8173,4.8545,5.5547,6.7083,6.7658,7.439,8.4674,8.5046,8.4302,8.3422,0.0,8.7008,8.4708,8.914,9.0865,9.1034,9.1237,9.1034,9.0729,9.0729,9.0594,9.0357,8.9816,9.0154,9.0324,8.8429,8.8328,8.7482,8.2238,8.0513,7.8754,0.0,0.0,0.0,0.0,0.0,0.0,0.0,0.0,0.0,0.0,0.0,0.0,0.0,0.0,0.0,0.0,0.0,0.0,0.0,0.0,0.0,0.0,0.0,0.0,0.0,0.0,9.3842,9.8679,9.9187,9.9931,10.1081,10.1284,10.1792,10.2502,10.2502,10.2502,10.2502,10.2502,10.2502,10.2502,10.2502,10.2502,10.2502,10.2502,10.2502,10.2502,10.2502,10.2502,10.2502,10.2502,10.2502,10.2502,5.1887,5.257,5.3719,5.5293,5.6294,5.7036,5.7364,5.8545,6.1231,6.6508,6.9045,7.1751,7.5506,7.7367,7.8382,7.8483,7.8788,0.0,7.7232,0.0,0.0,7.7604,7.4424,7.3815,7.6217,6.7963,0.0,6.0689,5.504,5.071,4.7767,4.7767,4.8376,4.9492,5.0168,5.5886,6.5324,7.0229,7.6589,8.3524,8.5486,8.5892,0.0,8.8835,8.9241,8.8463,9.1271,9.2083,9.1846,9.2184,9.2083,9.1778,9.1778,9.1575,9.1203,9.0797,9.1203,9.1711,9.1271,9.1474,9.1068,8.8125,8.6839,8.4911,7.9701,7.7908,7.7266,0.0,7.4695,7.324,0.0,0.0,0.0,0.0,0.0,0.0,0.0,0.0,0.0,0.0,0.0,0.0,0.0,0.0,0.0,0.0,0.0,0.0,0.0,0.0,0.0,9.5567,9.8544,10.0371,10.0878,10.1521,10.1893,10.1995,10.2299,10.2502,10.2502,10.2502,10.2502,10.2502,10.2502,10.2502,10.2502,10.2502,10.2502,10.2502,10.2502,10.2502,10.2502,10.2502,10.2502,10.2502,5.5023,5.5676,5.6754,5.8296,6.1946,6.4528,6.4113,6.1384,6.2013,6.9459,7.0629,7.2045,7.5518,7.8718,8.0412,7.987,8.0412,7.9397,7.6149,7.9464,8.0107,7.686,7.9126,8.0784,8.1426,7.5777,7.0567,6.5967,6.0858,5.5344,4.9593,4.9593,4.9965,5.0744,5.2029,5.6325,6.3328,7.4018,7.96,8.1596,8.579,8.8192,8.941,9.0865,9.1913,9.2658,9.3436,9.33,9.2827,9.3503,9.3334,9.2861,9.2759,9.2286,9.1711,9.1508,9.1981,9.259,9.259,9.2658,9.2725,9.2725,9.215,9.0391,8.5723,8.4099,8.3592,8.3592,7.9363,7.8247,8.667,0.0,0.0,0.0,0.0,0.0,0.0,0.0,0.0,0.0,0.0,0.0,0.0,0.0,0.0,0.0,0.0,0.0,0.0,0.0,0.0,9.2387,9.7969,10.0878,10.0811,10.1724,10.2096,10.1792,10.2299,10.2502,10.2502,10.2502,10.2502,10.2502,10.2502,10.2502,10.2502,10.2502,10.2502,10.2502,10.2502,10.2502,10.2502,10.2502,10.2502,10.2502,5.8253,5.849,5.9139,6.0713,6.4327,6.8274,7.1788,7.2641,7.3982,7.7143,7.8477,8.0062,8.2259,8.2783,8.3118,8.3625,8.3761,0.0,8.2915,0.0,0.0,8.2171,8.2069,8.2103,8.2205,7.7536,7.2631,6.7523,6.2956,5.7949,5.2706,5.2706,5.3112,5.3822,5.4059,5.9911,7.0094,7.8213,8.3558,8.6873,8.9478,9.0324,9.0188,9.1677,9.2692,9.347,9.4248,9.4417,9.4315,9.4451,9.4823,9.5093,9.4485,9.4214,9.3876,9.259,9.2759,9.3368,9.3368,9.3842,9.4315,9.4315,9.374,9.2759,9.1203,9.029,8.9748,8.9748,8.8429,8.6535,8.4031,0.0,0.0,0.0,0.0,0.0,0.0,0.0,0.0,0.0,0.0,0.0,0.0,0.0,0.0,0.0,0.0,0.0,0.0,0.0,0.0,0.0,9.8612,0.0,0.0,0.0,10.1792,10.4092,10.3009,10.2502,10.2502,10.2502,10.2502,10.2502,10.2502,10.2502,10.2502,10.2502,10.2502,10.2502,10.2502,10.2502,10.2502,10.2502,10.2502,10.2502,6.086,6.108,6.2254,6.5999,6.9973,7.4405,7.9548,8.2081,8.2594,8.0415,8.0732,8.1537,8.257,8.4248,8.5249,8.5215,8.5587,8.5655,8.5249,8.5249,8.508,8.4708,8.3964,8.3558,8.3558,8.1426,7.6623,6.9079,6.7354,6.2415,5.4634,5.4634,5.4837,5.531,5.8423,6.3429,7.0094,7.8754,8.4133,8.711,9.0087,9.1575,9.2049,9.2759,9.3503,9.4282,9.5026,9.5533,9.577,9.5398,9.5499,9.5736,9.5364,9.5263,9.5127,9.4383,9.4451,9.4823,9.5195,9.4992,9.4789,9.5161,9.4721,9.4079,9.3706,9.3334,9.2962,9.2556,9.188,8.9512,8.3524,7.8145,0.0,0.0,0.0,0.0,0.0,0.0,0.0,0.0,0.0,0.0,0.0,0.0,0.0,0.0,0.0,0.0,0.0,0.0,0.0,0.0,0.0,0.0,10.2299,0.0,10.2096,10.2401,10.2502,10.2502,10.2502,10.2502,10.2502,10.2502,10.2502,10.2502,10.2502,10.2502,10.2502,10.2502,10.2502,10.2502,10.2502,10.2502,10.2502,10.2502,6.42,6.4751,6.6549,7.1945,7.646,8.0901,8.538,8.898,8.9328,8.4439,8.3354,8.3209,8.37,8.6147,8.7617,8.7008,8.7516,8.7583,8.7008,8.7211,8.711,8.6501,8.5587,8.5046,8.4877,8.5046,8.0818,7.209,7.1887,6.6745,5.7137,5.6799,5.7171,5.8287,6.3328,6.759,7.1515,0.0,8.4843,8.7482,9.0899,9.2962,9.4079,9.4214,9.4857,9.5702,9.6277,9.6954,9.7495,9.6751,9.6413,9.6244,9.6074,9.6041,9.6041,9.6041,9.5905,9.6007,9.6886,9.6176,9.5296,9.5872,9.5466,9.4924,9.4924,9.4823,9.4586,9.4146,9.33,9.0729,8.4302,8.0885,0.0,0.0,0.0,0.0,0.0,0.0,0.0,0.0,0.0,0.0,0.0,0.0,0.0,0.0,0.0,0.0,0.0,0.0,0.0,0.0,0.0,9.9187,9.9051,0.0,10.2401,10.0912,10.1995,10.2502,10.2502,10.2502,10.2502,10.2502,10.2502,10.2502,10.2502,10.2502,10.2502,10.2502,10.2502,10.2502,10.2502,10.2502,10.2502,10.2502,6.9779,7.1101,7.2936,7.7194,8.2443,8.6297,8.6811,9.151,9.4512,9.3188,9.1331,9.0493,9.1643,9.122,9.0865,9.0797,9.0831,9.0865,9.0797,8.9579,8.8835,8.8767,8.7448,8.6366,8.5689,8.6332,8.393,0.0,0.0,6.9316,6.1738,6.0351,6.1873,6.5865,6.7827,7.3274,0.0,8.4945,8.8531,9.2015,9.4417,9.5466,9.5669,9.6311,9.7461,9.8679,9.8747,9.9254,9.9796,9.9051,9.8341,9.7698,9.6988,9.6785,9.6785,9.6785,9.6311,9.6108,9.7529,9.7292,9.6683,9.6751,9.6244,9.5702,9.5702,9.5195,9.489,9.5466,9.4451,9.1846,8.6467,8.7854,8.8937,0.0,0.0,0.0,0.0,0.0,0.0,0.0,0.0,0.0,0.0,0.0,0.0,0.0,0.0,0.0,0.0,0.0,0.0,9.1169,9.1947,9.3199,9.5195,9.9457,10.2164,10.328,10.2806,10.2502,10.2502,10.2502,10.2502,10.2502,10.2502,10.2502,10.2502,10.2502,10.2502,10.2502,10.2502,10.2502,10.2502,10.2502,10.2502,10.2502,7.7414,7.8112,7.9617,8.3654,8.6628,8.9454,9.2391,9.518,9.7016,9.7163,9.4643,9.2905,9.3094,9.2029,9.1305,9.1305,9.1305,9.1305,9.1305,9.0729,9.0425,9.0425,8.9444,8.8531,8.7786,8.8497,8.6095,0.0,0.0,7.1684,6.5696,6.5053,6.7421,7.2326,7.6082,8.0242,8.4708,8.9072,9.2522,9.5161,9.6074,9.6717,9.7191,9.7935,9.8578,9.9153,9.9593,9.9965,10.0202,9.9863,9.9559,9.9221,9.8442,9.8206,9.8206,9.8206,9.7698,9.7258,9.7834,9.7461,9.6988,9.7428,9.7326,9.7225,9.7664,9.7563,9.7292,9.7157,9.5939,9.4146,9.1609,8.9782,8.9173,9.0662,0.0,0.0,0.0,0.0,0.0,0.0,0.0,0.0,0.0,0.0,0.0,0.0,0.0,0.0,0.0,0.0,0.0,9.1846,0.0,9.6853,9.8679,10.0472,10.1487,10.1589,10.2198,10.2502,10.2502,10.2502,10.2502,10.2502,10.2502,10.2502,10.2502,10.2502,10.2502,10.2502,10.2502,10.2502,10.2502,10.2502,10.2502,10.2502,8.5049,8.56,8.7031,9.1069,9.2427,9.4116,9.7566,9.8778,9.9585,10.0393,9.827,9.6171,9.4895,9.4002,9.3443,9.3443,9.3382,9.3214,9.3214,9.2415,9.1981,9.1981,9.1034,9.029,8.9748,9.0459,8.87,8.4234,8.0479,7.6217,7.1481,7.0161,7.28,7.8822,8.2746,8.596,8.8666,9.2793,9.5601,9.7225,9.7428,9.8104,9.9051,9.9559,9.9897,10.0202,10.0709,10.0912,10.0811,10.0608,10.0709,10.0709,9.9491,9.895,9.8815,9.9051,9.8713,9.8375,9.8612,9.8273,9.8003,9.8544,9.8476,9.851,9.9254,9.9254,9.895,9.8442,9.7326,9.621,9.5466,9.215,9.0696,9.4315,0.0,0.0,0.0,9.4823,0.0,0.0,8.8125,8.5892,8.4911,0.0,0.0,0.0,0.0,0.0,0.0,0.0,0.0,0.0,0.0,0.0,9.8747,10.0506,10.1081,10.0608,10.1893,10.2502,10.2502,10.2502,10.2502,10.2502,10.2502,10.2502,10.2502,10.2502,10.2502,10.2502,10.2502,10.2502,10.2502,10.2502,10.2502,10.2502,9.217,9.3602,9.5401,9.9438,10.0796,10.1384,10.1384,10.2081,10.2889,10.3696,10.3416,10.1879,9.8578,9.8491,9.8596,9.8596,9.8128,9.7779,9.7779,9.5183,9.3537,9.3537,9.2083,9.1271,9.1271,9.2015,9.1981,9.1169,8.7482,8.3727,7.9938,7.5506,7.7807,8.5689,8.6501,8.9748,9.4687,9.621,9.7292,9.807,9.8781,9.9965,10.1386,10.1386,10.1792,10.2502,10.2502,10.2502,10.2401,10.1589,10.1893,10.2096,9.9796,9.8612,9.8172,9.8882,9.9085,9.9254,9.9999,10.0202,10.0202,10.0202,9.9627,9.9288,10.0032,9.9627,9.9085,9.9085,9.8476,9.7766,9.6988,9.621,9.6176,9.7698,0.0,0.0,0.0,9.6244,0.0,8.7685,8.8869,8.9579,8.8091,0.0,0.0,0.0,0.0,0.0,0.0,0.0,0.0,9.1305,9.2083,0.0,9.2522,9.8409,10.1386,10.1386,10.2096,10.2502,10.2502,10.2502,10.2502,10.2502,10.2502,10.2502,10.2502,10.2502,10.2502,10.2502,10.2502,10.2502,10.2502,10.2502,10.2502,10.2502,9.9402,9.9842,10.0283,10.098,10.2191,10.3109,10.3109,10.4284,10.5311,10.5605,10.5534,10.4983,10.3924,10.1749,10.0185,9.9653,9.8512,9.7959,9.7959,9.6174,9.5093,9.5093,9.4146,9.3639,9.3639,9.3876,9.3876,9.3639,0.0,8.667,8.5486,8.4031,8.667,9.2624,9.2861,9.418,9.6244,9.7225,9.807,9.8848,10.0168,10.098,10.1453,10.1995,10.2299,10.2502,10.2502,10.2502,10.2502,10.2198,10.1995,10.1589,10.0878,10.0506,10.0371,10.0574,10.0303,9.9897,10.0134,10.0235,10.0337,10.0878,10.0811,10.0878,10.1622,10.1183,10.0506,9.9965,9.9694,9.9288,9.8544,9.78,9.7292,9.7258,9.665,0.0,9.6819,0.0,9.6616,9.4687,9.4654,9.4552,0.0,9.5161,0.0,0.0,0.0,0.0,0.0,0.0,0.0,0.0,9.4789,0.0,9.851,9.9897,10.0878,10.1386,10.213,10.2502,10.2502,10.2502,10.2502,10.2502,10.2502,10.2502,10.2502,10.2502,10.2502,10.2502,10.2502,10.2502,10.2502,10.2502,10.2502,10.2502,10.5018,10.5018,10.4798,10.4284,10.5091,10.5715,10.5715,10.6596,10.7404,10.7697,10.7771,10.7771,10.7771,10.5797,10.406,10.2981,10.1837,10.1188,10.1188,9.9605,9.8711,9.8711,9.7481,9.6789,9.6789,9.6537,0.0,9.5533,9.2421,9.0932,9.0932,9.0932,9.2962,9.6616,9.6616,9.7191,9.8172,9.8645,9.9288,9.9999,10.098,10.1589,10.1893,10.2299,10.2502,10.2502,10.2502,10.2502,10.2502,10.2502,10.2198,10.1792,10.1792,10.1792,10.169,10.1115,10.0811,10.0709,10.0709,10.0912,10.1216,10.169,10.1792,10.1893,10.2401,10.2096,10.1589,10.0811,10.0709,10.0405,9.966,9.9153,9.8679,9.8206,9.7664,9.7292,9.7292,9.7461,9.6853,0.0,0.0,0.0,0.0,9.506,9.4654,0.0,0.0,0.0,0.0,0.0,0.0,9.5364,9.7631,9.966,10.1386,10.0912,10.1014,10.1792,10.2299,10.2502,10.2502,10.2502,10.2502,10.2502,10.2502,10.2502,10.2502,10.2502,10.2502,10.2502,10.2502,10.2502,10.2502,10.2502,10.2502,10.2502,10.8688,10.8799,10.8799,10.8799,10.8799,10.8909,10.8909,10.8909,10.9202,10.9973,11.0083,11.0083,11.0083,11.0083,10.9496,10.7991,10.7107,10.6679,10.6679,10.4665,10.348,10.3551,10.1489,10.0327,10.0387,9.9624,9.8532,9.7022,9.6311,9.5973,9.6041,9.6041,9.6785,9.8172,9.8172,9.8916,10.0235,10.0303,10.0709,10.1386,10.1487,10.1893,10.2502,10.2502,10.2502,10.2502,10.2502,10.2502,10.2502,10.2502,10.2502,10.2502,10.2502,10.2502,10.2231,10.0811,10.0912,10.1487,10.1487,10.1995,10.2502,10.2502,10.2502,10.2502,10.2502,10.2502,10.2299,10.1589,10.1487,10.1183,10.0438,10.0303,10.0303,10.0235,9.9051,9.8172,9.8172,9.7529,9.5263,9.0425,0.0,0.0,9.0831,9.1406,9.3334,0.0,0.0,0.0,0.0,0.0,9.4755,10.0032,10.0202,10.0506,10.1386,10.1386,10.1792,10.2502,10.2502,10.2502,10.2502,10.2502,10.2502,10.2502,10.2502,10.2502,10.2502,10.2502,10.2502,10.2502,10.2502,10.2502,10.2502,10.2502,10.2502,10.2502,10.7881,10.8395,10.8799,10.8799,10.9312,10.9679,10.9679,11.0193,11.0707,11.0891,11.0891,11.0891,11.0891,11.0891,11.0781,11.0414,10.8088,10.6679,10.6679,10.4594,10.3728,10.4296,10.2705,10.1778,10.1913,10.1173,10.0155,9.8578,9.7834,9.7766,9.8307,9.8307,9.8815,9.9694,9.9694,9.9897,10.0235,10.0878,10.1183,10.1386,10.1995,10.2299,10.2502,10.2502,10.2502,10.2502,10.2502,10.2502,10.2502,10.2502,10.2502,10.2502,10.2502,10.2502,10.2401,10.2096,10.2096,10.2198,10.2198,10.2401,10.2502,10.2502,10.2502,10.2502,10.2502,10.2502,10.2502,10.2299,10.2198,10.1995,10.1284,10.1081,10.0912,10.0303,9.9931,9.9694,9.9694,9.9051,9.8341,9.7664,9.6751,9.6379,9.692,9.665,9.5195,0.0,0.0,0.0,9.3098,9.215,9.4214,10.0032,9.966,9.9999,10.1386,10.1386,10.1792,10.2502,10.2502,10.2502,10.2502,10.2502,10.2502,10.2502,10.2502,10.2502,10.2502,10.2502,10.2502,10.2502,10.2502,10.2502,10.2502,10.2502,10.2502,10.2502,10.9202,10.9606,10.99,10.99,11.0304,11.0487,11.0487,11.0891,11.1221,11.1221,11.1221,11.1221,11.1221,11.1221,11.1221,11.1221,10.9641,10.8763,10.8763,10.7617,10.7195,10.7592,10.6171,10.5143,10.4436,10.336,10.1956,10.0168,9.939,9.9221,9.9593,9.9593,9.9999,10.0709,10.0709,10.0912,10.1318,10.169,10.1893,10.1893,10.2299,10.2502,10.2502,10.2502,10.2502,10.2502,10.2502,10.2502,10.2502,10.2502,10.2502,10.2502,10.2502,10.2502,10.2502,10.2502,10.2502,10.2502,10.2502,10.2502,10.2502,10.2502,10.2502,10.2502,10.2502,10.2502,10.2502,10.2502,10.2502,10.2401,10.1995,10.1893,10.1792,10.1318,9.9254,9.8409,10.0506,9.8341,9.7495,9.9931,9.9491,9.9187,9.9559,9.9559,9.8206,9.5026,9.5127,0.0,9.5364,9.5364,9.6853,10.0134,10.0202,10.0574,10.1386,10.169,10.2096,10.2502,10.2502,10.2502,10.2502,10.2502,10.2502,10.2502,10.2502,10.2502,10.2502,10.2502,10.2502,10.2502,10.2502,10.2502,10.2502,10.2502,10.2502,10.2502,11.0891,11.1111,11.1221,11.1221,11.1221,11.1221,11.1221,11.1221,11.1221,11.1221,11.1221,11.1221,11.1221,11.1221,11.1221,11.1221,11.1221,11.1221,11.1221,11.1111,11.1111,11.1221,10.989,10.8511,10.7169,10.5628,10.3832,10.2007,10.1291,10.0793,10.0714,10.0714,10.0996,10.1589,10.1589,10.1893,10.2502,10.2502,10.2502,10.2502,10.2502,10.2502,10.2502,10.2502,10.2502,10.2502,10.2502,10.2502,10.2502,10.2502,10.2502,10.2502,10.2502,10.2502,10.2502,10.2502,10.2502,10.2502,10.2502,10.2502,10.2502,10.2502,10.2502,10.2502,10.2502,10.2502,10.2502,10.2502,10.2502,10.2502,10.2502,10.2502,10.2299,10.1622,9.8341,9.6988,10.01,9.7191,9.6176,9.9931,10.0303,10.0235,10.0235,10.0811,10.0912,10.0303,10.0811,10.0912,10.0235,10.0337,10.0405,10.0405,10.1014,10.1453,10.1589,10.2198,10.2502,10.2502,10.2502,10.2502,10.2502,10.2502,10.2502,10.2502,10.2502,10.2502,10.2502,10.2502,10.2502,10.2502,10.2502,10.2502,10.2502,10.2502,10.2502,10.2502,11.0193,11.0707,11.1221,11.1221,11.1221,11.1221,11.1221,11.1221,11.1221,11.1221,11.1221,11.1221,11.1221,11.1221,11.1221,11.1221,11.1221,11.1221,11.1221,11.0597,11.0487,11.1221,11.0311,10.953,10.8655,10.66,10.5384,10.4987,10.4249,10.3659,10.2968,10.2968,10.2795,10.2299,10.2299,10.2401,10.2502,10.2502,10.2502,10.2502,10.2502,10.2502,10.2502,10.2502,10.2502,10.2502,10.2502,10.2502,10.2502,10.2502,10.2502,10.2502,10.2502,10.2502,10.2502,10.2502,10.2502,10.2502,10.2502,10.2502,10.2502,10.2502,10.2502,10.2502,10.2502,10.2502,10.2502,10.2502,10.2502,10.2502,10.2502,10.2502,10.1284,9.7461,9.9356,10.0202,9.7089,9.8679,10.0405,10.1081,10.0608,10.0235,10.0235,10.0337,10.0337,10.0235,10.0337,10.0337,10.0235,10.0811,10.1183,10.1183,10.1284,10.169,10.2299,10.2401,10.2502,10.2502,10.2502,10.2502,10.2502,10.2502,10.2502,10.2502,10.2502,10.2502,10.2502,10.2502,10.2502,10.2502,10.2502,10.2502,10.2502,10.2502,10.2502,10.2502,11.0597,11.0891,11.1221,11.1221,11.1221,11.1221,11.1221,11.1221,11.1221,11.1221,11.1221,11.1221,11.1221,11.1221,11.1221,11.1221,11.1221,11.1221,11.1221,11.0891,11.0817,11.1221,11.0817,11.0134,10.8953,10.7201,10.6279,10.6279,10.596,10.5599,10.532,10.532,10.5155,10.4793,10.4021,10.3653,10.3563,10.2819,10.2502,10.2502,10.2502,10.2502,10.2502,10.2502,10.2502,10.2502,10.2502,10.2502,10.2502,10.2502,10.2502,10.2502,10.2502,10.2502,10.2502,10.2502,10.2502,10.2502,10.2502,10.2502,10.2502,10.2502,10.2502,10.2502,10.2502,10.2502,10.2502,10.2502,10.2502,10.2502,10.2502,10.2502,10.1825,9.9762,9.9119,9.9018,9.9356,9.8815,9.9288,10.169,10.169,10.1419,10.1419,10.1419,10.1419,10.1419,10.1419,10.1419,10.1419,10.1792,10.1995,10.1995,10.1995,10.2198,10.2502,10.2502,10.2502,10.2502,10.2502,10.2502,10.2502,10.2502,10.2502,10.2502,10.2502,10.2502,10.2502,10.2502,10.2502,10.2502,10.2502,10.2502,10.2502,10.2502,10.2502,10.2502,11.1111,11.1221,11.1221,11.1221,11.1221,11.1221,11.1221,11.1221,11.1221,11.1221,11.1221,11.1221,11.1221,11.1221,11.1221,11.1221,11.1221,11.1221,11.1221,11.1221,11.1221,11.1221,11.1221,11.07,10.9511,10.8454,10.7767,10.7767,10.7767,10.7627,10.7346,10.7346,10.7098,10.6845,10.5584,10.5041,10.5041,10.3563,10.3039,10.2947,10.2597,10.2502,10.2502,10.2502,10.2502,10.2502,10.2502,10.2502,10.2502,10.2502,10.2502,10.2502,10.2502,10.2502,10.2502,10.2502,10.2502,10.2502,10.2502,10.2502,10.2502,10.2502,10.2502,10.2502,10.2502,10.2502,10.2502,10.2502,10.2502,10.2502,10.2502,10.2502,10.2198,10.1115,9.8916,9.8206,10.0608,9.8882,9.8645,10.2096,10.2502,10.2502,10.2502,10.2502,10.2502,10.2502,10.2502,10.2502,10.2502,10.2502,10.2502,10.2502,10.2502,10.2502,10.2502,10.2502,10.2502,10.2502,10.2502,10.2502,10.2502,10.2502,10.2502,10.2502,10.2502,10.2502,10.2502,10.2502,10.2502,10.2502,10.2502,10.2502,10.2502,10.2502,10.2502,10.2502,11.1221,11.1221,11.1221,11.1221,11.1221,11.1221,11.1221,11.1221,11.1221,11.1221,11.1221,11.1221,11.1221,11.1221,11.1221,11.1221,11.1221,11.1221,11.1221,11.1221,11.1221,11.1221,11.1221,11.1059,11.097,11.0844,11.0917,11.0917,11.0917,11.0223,10.8854,10.8854,10.8113,10.681,10.6701,10.6556,10.6556,10.5076,10.4366,10.4281,10.3005,10.2502,10.2502,10.2502,10.2502,10.2502,10.2502,10.2502,10.2502,10.2502,10.2502,10.2502,10.2502,10.2502,10.2502,10.2502,10.2502,10.2502,10.2502,10.2502,10.2502,10.2502,10.2502,10.2502,10.2502,10.2502,10.2502,10.2502,10.2502,10.2502,10.2502,10.2502,10.1115,9.6954,9.9525,10.0709,9.6819,9.9593,10.213,10.2502,10.2502,10.2502,10.2502,10.2502,10.2502,10.2502,10.2502,10.2502,10.2502,10.2502,10.2502,10.2502,10.2502,10.2502,10.2502,10.2502,10.2502,10.2502,10.2502,10.2502,10.2502,10.2502,10.2502,10.2502,10.2502,10.2502,10.2502,10.2502,10.2502,10.2502,10.2502,10.2502,10.2502,10.2502,10.2502,10.2502,11.1221,11.1221,11.1221,11.1221,11.1221,11.1221,11.1221,11.1221,11.1221,11.1221,11.1221,11.1221,11.1221,11.1221,11.1221,11.1221,11.1221,11.1221,11.1221,11.1221,11.1221,11.1221,11.1221,11.1221,11.1221,11.1221,11.1221,11.1221,11.1221,11.0881,11.0352,11.0352,11.013,10.9451,10.8591,10.8251,10.801,10.5584,10.4605,10.452,10.3039,10.2502,10.2502,10.2502,10.2502,10.2502,10.2502,10.2502,10.2502,10.2502,10.2502,10.2502,10.2502,10.2502,10.2502,10.2502,10.2502,10.2502,10.2502,10.2502,10.2502,10.2502,10.2502,10.2502,10.2502,10.2502,10.2502,10.2502,10.2502,10.2502,10.2502,10.2502,10.1927,10.0202,10.1419,10.1893,10.0202,10.1419,10.2502,10.2502,10.2502,10.2502,10.2502,10.2502,10.2502,10.2502,10.2502,10.2502,10.2502,10.2502,10.2502,10.2502,10.2502,10.2502,10.2502,10.2502,10.2502,10.2502,10.2502,10.2502,10.2502,10.2502,10.2502,10.2502,10.2502,10.2502,10.2502,10.2502,10.2502,10.2502,10.2502,10.2502,10.2502,10.2502,10.2502,10.2502,11.1221,11.1221,11.1221,11.1221,11.1221,11.1221,11.1221,11.1221,11.1221,11.1221,11.1221,11.1221,11.1221,11.1221,11.1221,11.1221,11.1221,11.1221,11.1221,11.1221,11.1221,11.1221,11.1221,11.1221,11.1221,11.1221,11.1221,11.1221,11.1221,11.1221,11.1221,11.1221,11.1221,11.1221,11.0057,10.9679,10.9511,10.699,10.5698,10.5192,10.3653,10.2947,10.2502,10.2502,10.2502,10.2502,10.2502,10.2502,10.2502,10.2502,10.2502,10.2502,10.2502,10.2502,10.2502,10.2502,10.2502,10.2502,10.2502,10.2502,10.2502,10.2502,10.2502,10.2502,10.2502,10.2502,10.2502,10.2502,10.2502,10.2502,10.2502,10.2502,10.2502,10.2502,10.2502,10.2502,10.2502,10.2502,10.2502,10.2502,10.2502,10.2502,10.2502,10.2502,10.2502,10.2502,10.2502,10.2502,10.2502,10.2502,10.2502,10.2502,10.2502,10.2502,10.2502,10.2502,10.2502,10.2502,10.2502,10.2502,10.2502,10.2502,10.2502,10.2502,10.2502,10.2502,10.2502,10.2502,10.2502,10.2502,10.2502,10.2502,10.2502,10.2502,10.2502,10.2502,11.1221,11.1221,11.1221,11.1221,11.1221,11.1221,11.1221,11.1221,11.1221,11.1221,11.1221,11.1221,11.1221,11.1221,11.1221,11.1221,11.1221,11.1221,11.1221,11.1221,11.1221,11.1221,11.1221,11.1221,11.1221,11.1221,11.1221,11.1221,11.1221,11.1221,11.1221,11.1221,11.1221,11.1221,11.1221,11.1221,11.1096,10.9607,10.8251,10.6701,10.5158,10.381,10.2502,10.2502,10.2502,10.2502,10.2502,10.2502,10.2502,10.2502,10.2502,10.2502,10.2502,10.2502,10.2502,10.2502,10.2502,10.2502,10.2502,10.2502,10.2502,10.2502,10.2502,10.2502,10.2502,10.2502,10.2502,10.2502,10.2502,10.2502,10.2502,10.2502,10.2502,10.2502,10.2502,10.2502,10.2502,10.2502,10.2502,10.2502,10.2502,10.2502,10.2502,10.2502,10.2502,10.2502,10.2502,10.2502,10.2502,10.2502,10.2502,10.2502,10.2502,10.2502,10.2502,10.2502,10.2502,10.2502,10.2502,10.2502,10.2502,10.2502,10.2502,10.2502,10.2502,10.2502,10.2502,10.2502,10.2502,10.2502,10.2502,10.2502,10.2502,10.2502,10.2502,10.2502,11.1221,11.1221,11.1221,11.1221,11.1221,11.1221,11.1221,11.1221,11.1221,11.1221,11.1221,11.1221,11.1221,11.1221,11.1221,11.1221,11.1221,11.1221,11.1221,11.1221,11.1221,11.1221,11.1221,11.1221,11.1221,11.1221,11.1221,11.1221,11.1221,11.1221,11.1221,11.1221,11.1221,11.1221,11.1221,11.1221,11.1096,10.9607,10.8719,10.8077,10.5584,10.4246,10.3898,10.2947,10.2502,10.2502,10.2502,10.2502,10.2502,10.2502,10.2502,10.2502,10.2502,10.2502,10.2502,10.2502,10.2502,10.2502,10.2502,10.2502,10.2502,10.2502,10.2502,10.2502,10.2502,10.2502,10.2502,10.2502,10.2502,10.2502,10.2502,10.2502,10.2502,10.2502,10.2502,10.2502,10.2502,10.2502,10.2502,10.2502,10.2502,10.2502,10.2502,10.2502,10.2502,10.2502,10.2502,10.2502,10.2502,10.2502,10.2502,10.2502,10.2502,10.2502,10.2502,10.2502,10.2502,10.2502,10.2502,10.2502,10.2502,10.2502,10.2502,10.2502,10.2502,10.2502,10.2502,10.2502,10.2502,10.2502,10.2502,10.2502,10.2502,10.2502,10.2502,10.2502,11.1221,11.1221,11.1221,11.1221,11.1221,11.1221,11.1221,11.1221,11.1221,11.1221,11.1221,11.1221,11.1221,11.1221,11.1221,11.1221,11.1221,11.1221,11.1221,11.1221,11.1221,11.1221,11.1221,11.1221,11.1221,11.1221,11.1221,11.1221,11.1221,11.1221,11.1221,11.1221,11.1221,11.1221,11.1221,11.1221,11.1059,11.0186,10.9511,10.8818,10.7061,10.6037,10.5274,10.3898,10.3348,10.3291,10.2725,10.2502,10.2502,10.2502,10.2502,10.2502,10.2502,10.2502,10.2502,10.2502,10.2502,10.2502,10.2502,10.2502,10.2502,10.2502,10.2502,10.2502,10.2502,10.2502,10.2502,10.2502,10.2502,10.2502,10.2502,10.2502,10.2502,10.2502,10.2502,10.2502,10.2502,10.2502,10.2502,10.2502,10.2502,10.2502,10.2502,10.2502,10.2502,10.2502,10.2502,10.2502,10.2502,10.2502,10.2502,10.2502,10.2502,10.2502,10.2502,10.2502,10.2502,10.2502,10.2502,10.2502,10.2502,10.2502,10.2502,10.2502,10.2502,10.2502,10.2502,10.2502,10.2502,10.2502,10.2502,10.2502,10.2502,10.2502,10.2502,10.2502,11.1221,11.1221,11.1221,11.1221,11.1221,11.1221,11.1221,11.1221,11.1221,11.1221,11.1221,11.1221,11.1221,11.1221,11.1221,11.1221,11.1221,11.1221,11.1221,11.1221,11.1221,11.1221,11.1221,11.1221,11.1221,11.1221,11.1221,11.1221,11.1221,11.1221,11.1221,11.1221,11.1221,11.1221,11.1221,11.1221,11.1221,11.1221,11.0408,10.9221,10.9123,10.8215,10.6774,10.5424,10.4723,10.4366,10.3097,10.2597,10.2502,10.2502,10.2502,10.2502,10.2502,10.2502,10.2502,10.2502,10.2502,10.2502,10.2502,10.2502,10.2502,10.2502,10.2502,10.2502,10.2502,10.2502,10.2502,10.2502,10.2502,10.2502,10.2502,10.2502,10.2502,10.2502,10.2502,10.2502,10.2502,10.2502,10.2502,10.2502,10.2502,10.2502,10.2502,10.2502,10.2502,10.2502,10.2502,10.2502,10.2502,10.2502,10.2502,10.2502,10.2502,10.2502,10.2502,10.2502,10.2502,10.2502,10.2502,10.2502,10.2502,10.2502,10.2502,10.2502,10.2502,10.2502,10.2502,10.2502,10.2502,10.2502,10.2502,10.2502,10.2502,10.2502,10.2502,10.2502,11.1221,11.1221,11.1221,11.1221,11.1221,11.1221,11.1221,11.1221,11.1221,11.1221,11.1221,11.1221,11.1221,11.1221,11.1221,11.1221,11.1221,11.1221,11.1221,11.1221,11.1221,11.1221,11.1221,11.1221,11.1221,11.1221,11.1221,11.1221,11.1221,11.1221,11.1221,11.1221,11.1221,11.1221,11.1221,11.1221,11.1221,11.1221,11.097,11.0627,10.9451,10.8755,10.8353,10.6918,10.5584,10.4639,10.435,10.3439,10.2502,10.2502,10.2502,10.2502,10.2502,10.2502,10.2502,10.2502,10.2502,10.2502,10.2502,10.2502,10.2502,10.2502,10.2502,10.2502,10.2502,10.2502,10.2502,10.2502,10.2502,10.2502,10.2502,10.2502,10.2502,10.2502,10.2502,10.2502,10.2502,10.2502,10.2502,10.2502,10.2502,10.2502,10.2502,10.2502,10.2502,10.2502,10.2502,10.2502,10.2502,10.2502,10.2502,10.2502,10.2502,10.2502,10.2502,10.2502,10.2502,10.2502,10.2502,10.2502,10.2502,10.2502,10.2502,10.2502,10.2502,10.2502,10.2502,10.2502,10.2502,10.2502,10.2502,10.2502,10.2502,10.2502,10.2502,10.2502,11.1221,11.1221,11.1221,11.1221,11.1221,11.1221,11.1221,11.1221,11.1221,11.1221,11.1221,11.1221,11.1221,11.1221,11.1221,11.1221,11.1221,11.1221,11.1221,11.1221,11.1221,11.1221,11.1221,11.1221,11.1221,11.1221,11.1221,11.1221,11.1221,11.1221,11.1221,11.1221,11.1221,11.1221,11.1221,11.1221,11.1221,11.1221,11.1221,11.1059,11.0352,11.0057,10.9869,10.8418,10.7382,10.6591,10.5924,10.4723,10.3348,10.2691,10.2502,10.2502,10.2502,10.2502,10.2502,10.2502,10.2502,10.2502,10.2502,10.2502,10.2502,10.2502,10.2502,10.2502,10.2502,10.2502,10.2502,10.2502,10.2502,10.2502,10.2502,10.2502,10.2502,10.2502,10.2502,10.2502,10.2502,10.2502,10.2502,10.2502,10.2502,10.2502,10.2502,10.2502,10.2502,10.2502,10.2502,10.2502,10.2502,10.2502,10.2502,10.2502,10.2502,10.2502,10.2502,10.2502,10.2502,10.2502,10.2502,10.2502,10.2502,10.2502,10.2502,10.2502,10.2502,10.2502,10.2502,10.2502,10.2502,10.2502,10.2502,10.2502,10.2502,10.2502,10.2502,10.2502,11.1221,11.1221,11.1221,11.1221,11.1221,11.1221,11.1221,11.1221,11.1221,11.1221,11.1221,11.1221,11.1221,11.1221,11.1221,11.1221,11.1221,11.1221,11.1221,11.1221,11.1221,11.1221,11.1221,11.1221,11.1221,11.1221,11.1221,11.1221,11.1221,11.1221,11.1221,11.1221,11.1221,11.1221,11.1221,11.1221,11.1221,11.1221,11.1221,11.1221,11.1221,11.1221,11.1133,10.9833,10.9185,10.8818,10.7558,10.6225,10.4758,10.3314,10.2853,10.2819,10.2631,10.2502,10.2502,10.2502,10.2502,10.2502,10.2502,10.2502,10.2502,10.2502,10.2502,10.2502,10.2502,10.2502,10.2502,10.2502,10.2502,10.2502,10.2502,10.2502,10.2502,10.2502,10.2502,10.2502,10.2502,10.2502,10.2502,10.2502,10.2502,10.2502,10.2502,10.2502,10.2502,10.2502,10.2502,10.2502,10.2502,10.2502,10.2502,10.2502,10.2502,10.2502,10.2502,10.2502,10.2502,10.2502,10.2502,10.2502,10.2502,10.2502,10.2502,10.2502,10.2502,10.2502,10.2502,10.2502,10.2502,10.2502,10.2502,10.2502,10.2502,10.2502,10.2502,10.2502,11.1221,11.1221,11.1221,11.1221,11.1221,11.1221,11.1221,11.1221,11.1221,11.1221,11.1221,11.1221,11.1221,11.1221,11.1221,11.1221,11.1221,11.1221,11.1221,11.1221,11.1221,11.1221,11.1221,11.1221,11.1221,11.1221,11.1221,11.1221,11.1221,11.1221,11.1221,11.1221,11.1221,11.1221,11.1221,11.1221,11.1221,11.1221,11.1221,11.1221,11.1221,11.1221,11.1221,11.1007,11.0093,10.8989,10.8791,10.7803,10.626,10.4841,10.4281,10.4073,10.2947,10.2502,10.2502,10.2502,10.2502,10.2502,10.2502,10.2502,10.2502,10.2502,10.2502,10.2502,10.2502,10.2502,10.2502,10.2502,10.2502,10.2502,10.2502,10.2502,10.2502,10.2502,10.2502,10.2502,10.2502,10.2502,10.2502,10.2502,10.2502,10.2502,10.2502,10.2502,10.2502,10.2502,10.2502,10.2502,10.2502,10.2502,10.2502,10.2502,10.2502,10.2502,10.2502,10.2502,10.2502,10.2502,10.2502,10.2502,10.2502,10.2502,10.2502,10.2502,10.2502,10.2502,10.2502,10.2502,10.2502,10.2502,10.2502,10.2502,10.2502,10.2502,10.2502,10.2502,11.1221,11.1221,11.1221,11.1221,11.1221,11.1221,11.1221,11.1221,11.1221,11.1221,11.1221,11.1221,11.1221,11.1221,11.1221,11.1221,11.1221,11.1221,11.1221,11.1221,11.1221,11.1221,11.1221,11.1221,11.1221,11.1221,11.1221,11.1221,11.1221,11.1221,11.1221,11.1221,11.1221,11.1221,11.1221,11.1221,11.1221,11.1221,11.1221,11.1221,11.1221,11.1221,11.1221,11.1221,11.0791,11.0093,10.9318,10.8555,10.7767,10.6336,10.5776,10.5698,10.5076,10.4281,10.3687,10.3687,10.3132,10.2502,10.2502,10.2502,10.2502,10.2502,10.2502,10.2502,10.2502,10.2502,10.2502,10.2502,10.2502,10.2502,10.2502,10.2502,10.2502,10.2502,10.2502,10.2502,10.2502,10.2502,10.2502,10.2502,10.2502,10.2502,10.2502,10.2502,10.2502,10.2502,10.2502,10.2502,10.2502,10.2502,10.2502,10.2502,10.2502,10.2502,10.2502,10.2502,10.2502,10.2502,10.2502,10.2502,10.2502,10.2502,10.2502,10.2502,10.2502,10.2502,10.2502,10.2502,10.2502,10.2502,10.2502,10.2502,10.2502,10.2502,10.2502,10.2502]},{"header":{"parameterUnit":"m.s-1","parameterCategory":1,"la1":30.6,"la2":28.766,"lo1":-90.7593,"lo2":-88.6598,"dx":0.0162,"dy":0.0183,"nx":116,"ny":114,"refTime":"2022-12-10T18:00:00:Z","depth":0,"parameterNumber":3,"parameterNumberName":"V-component_of_WINDS"},"data":[0.0,0.0,0.0,0.0,0.0,0.0,0.0,0.0,0.0,0.0,0.0,0.0,0.0,0.0,0.0,0.0,0.0,0.0,0.0,0.0,0.0,0.0,0.0,0.0,0.0,0.0,0.0,0.0,0.0,0.0,0.0,0.0,0.0,0.0,0.0,0.0,0.0,0.0,0.0,0.0,0.0,0.0,0.0,0.0,0.0,0.0,0.0,0.0,0.0,0.0,0.0,0.0,0.0,0.0,0.0,0.0,0.0,0.0,0.0,0.0,0.0,0.0,0.0,0.0,0.0,0.0,0.0,0.0,0.0,0.0,0.0,0.0,0.0,0.0,0.0,0.0,0.0,0.0,0.0,0.0,0.0,0.0,0.0,0.0,0.0,0.0,0.0,0.0,0.0,0.0,0.0,0.0,0.0,0.0,0.0,0.0,0.0,0.0,0.0,0.0,0.0,0.0,0.0,0.0,0.0,0.0,0.0,0.0,0.0,0.0,0.0,0.0,0.0,0.0,0.0,0.0,0.0,0.0,0.0,0.0,0.0,0.0,0.0,0.0,0.0,0.0,0.0,0.0,0.0,0.0,0.0,0.0,0.0,0.0,0.0,0.0,0.0,0.0,0.0,0.0,0.0,0.0,0.0,0.0,0.0,0.0,0.0,0.0,0.0,0.0,0.0,0.0,0.0,0.0,0.0,0.0,0.0,0.0,0.0,0.0,0.0,0.0,0.0,0.0,0.0,0.0,0.0,0.0,0.0,0.0,0.0,0.0,0.0,0.0,0.0,0.0,0.0,0.0,0.0,0.0,0.0,0.0,0.0,0.0,0.0,0.0,0.0,0.0,0.0,0.0,0.0,0.0,0.0,0.0,0.0,0.0,0.0,0.0,0.0,0.0,0.0,0.0,0.0,0.0,0.0,0.0,0.0,0.0,0.0,0.0,0.0,0.0,0.0,0.0,0.0,0.0,0.0,0.0,0.0,0.0,0.0,0.0,0.0,0.0,0.0,0.0,0.0,0.0,0.0,0.0,0.0,0.0,0.0,0.0,0.0,0.0,0.0,0.0,0.0,0.0,0.0,0.0,0.0,0.0,0.0,0.0,0.0,0.0,0.0,0.0,0.0,0.0,0.0,0.0,0.0,0.0,0.0,0.0,0.0,0.0,0.0,0.0,0.0,0.0,0.0,0.0,0.0,0.0,0.0,0.0,0.0,0.0,0.0,0.0,0.0,0.0,0.0,0.0,0.0,0.0,0.0,0.0,0.0,0.0,0.0,0.0,0.0,0.0,0.0,0.0,0.0,0.0,0.0,0.0,0.0,0.0,0.0,0.0,0.0,0.0,0.0,0.0,0.0,0.0,0.0,0.0,0.0,0.0,0.0,0.0,0.0,0.0,0.0,0.0,0.0,0.0,0.0,0.0,0.0,0.0,0.0,0.0,0.0,0.0,0.0,0.0,0.0,0.0,0.0,0.0,0.0,0.0,0.0,0.0,0.0,0.0,0.0,0.0,0.0,0.0,0.0,0.0,0.0,0.0,0.0,0.0,0.0,0.0,0.0,0.0,0.0,0.0,0.0,0.0,0.0,0.0,0.0,0.0,0.0,0.0,0.0,0.0,0.0,0.0,0.0,0.0,0.0,0.0,0.0,0.0,0.0,0.0,0.0,0.0,0.0,0.0,0.0,0.0,0.0,0.0,0.0,0.0,0.0,0.0,0.0,0.0,0.0,0.0,0.0,0.0,0.0,0.0,0.0,0.0,0.0,0.0,0.0,0.0,0.0,0.0,0.0,0.0,0.0,0.0,0.0,0.0,0.0,0.0,0.0,0.0,0.0,0.0,0.0,0.0,0.0,0.0,0.0,0.0,0.0,0.0,0.0,0.0,0.0,0.0,0.0,0.0,0.0,0.0,0.0,0.0,0.0,0.0,0.0,0.0,0.0,0.0,0.0,0.0,0.0,0.0,0.0,0.0,0.0,0.0,0.0,0.0,0.0,0.0,0.0,0.0,0.0,0.0,0.0,0.0,0.0,0.0,0.0,0.0,0.0,0.0,0.0,0.0,0.0,0.0,0.0,0.0,0.0,0.0,0.0,0.0,0.0,0.0,0.0,0.0,0.0,0.0,0.0,0.0,0.0,0.0,0.0,0.0,0.0,0.0,0.0,0.0,0.0,0.0,0.0,0.0,0.0,0.0,0.0,0.0,0.0,0.0,0.0,0.0,0.0,0.0,0.0,0.0,0.0,0.0,0.0,0.0,0.0,0.0,0.0,0.0,0.0,0.0,0.0,0.0,0.0,0.0,0.0,0.0,0.0,0.0,0.0,0.0,0.0,0.0,0.0,0.0,0.0,0.0,0.0,0.0,0.0,0.0,0.0,0.0,0.0,0.0,0.0,0.0,0.0,0.0,0.0,0.0,0.0,0.0,0.0,0.0,0.0,0.0,0.0,0.0,0.0,0.0,0.0,0.0,0.0,0.0,0.0,0.0,0.0,0.0,0.0,0.0,0.0,0.0,0.0,0.0,0.0,0.0,0.0,0.0,0.0,0.0,0.0,0.0,0.0,0.0,0.0,0.0,0.0,0.0,0.0,0.0,0.0,0.0,0.0,0.0,0.0,0.0,0.0,0.0,0.0,0.0,0.0,0.0,0.0,0.0,0.0,0.0,0.0,0.0,0.0,0.0,0.0,0.0,0.0,0.0,0.0,0.0,0.0,0.0,0.0,0.0,0.0,0.0,0.0,0.0,0.0,0.0,0.0,0.0,0.0,0.0,0.0,0.0,0.0,0.0,0.0,0.0,0.0,0.0,0.0,0.0,0.0,0.0,0.0,0.0,0.0,0.0,0.0,0.0,0.0,0.0,0.0,0.0,0.0,0.0,0.0,0.0,0.0,0.0,0.0,0.0,0.0,0.0,0.0,0.0,0.0,0.0,0.0,0.0,0.0,0.0,0.0,0.0,0.0,0.0,0.0,0.0,0.0,0.0,0.0,0.0,0.0,0.0,0.0,0.0,0.0,0.0,0.0,0.0,0.0,0.0,0.0,0.0,0.0,0.0,0.0,0.0,0.0,0.0,0.0,0.0,0.0,0.0,0.0,0.0,0.0,0.0,0.0,0.0,0.0,0.0,0.0,0.0,0.0,0.0,0.0,0.0,0.0,0.0,0.0,0.0,0.0,0.0,0.0,0.0,0.0,0.0,0.0,0.0,0.0,0.0,0.0,0.0,0.0,0.0,0.0,0.0,0.0,0.0,0.0,0.0,0.0,0.0,0.0,0.0,0.0,0.0,0.0,0.0,0.0,0.0,0.0,0.0,0.0,0.0,0.0,0.0,0.0,0.0,0.0,0.0,0.0,0.0,0.0,0.0,0.0,0.0,0.0,0.0,0.0,0.0,0.0,0.0,0.0,0.0,0.0,0.0,0.0,0.0,0.0,0.0,0.0,0.0,0.0,0.0,0.0,0.0,0.0,0.0,0.0,0.0,0.0,0.0,0.0,0.0,0.0,0.0,0.0,0.0,0.0,0.0,0.0,0.0,0.0,0.0,0.0,0.0,0.0,0.0,0.0,0.0,0.0,0.0,0.0,0.0,0.0,0.0,0.0,0.0,0.0,0.0,0.0,0.0,0.0,0.0,0.0,0.0,0.0,0.0,0.0,0.0,0.0,0.0,0.0,0.0,0.0,0.0,0.0,0.0,0.0,0.0,0.0,0.0,0.0,0.0,0.0,0.0,0.0,0.0,0.0,0.0,0.0,0.0,0.0,0.0,0.0,0.0,0.0,0.0,0.0,0.0,0.0,0.0,0.0,0.0,0.0,0.0,0.0,0.0,0.0,0.0,0.0,0.0,0.0,0.0,0.0,0.0,0.0,0.0,0.0,0.0,0.0,0.0,0.0,0.0,0.0,0.0,0.0,0.0,0.0,0.0,0.0,0.0,0.0,0.0,0.0,0.0,0.0,0.0,0.0,0.0,0.0,0.0,0.0,0.0,0.0,0.0,0.0,0.0,0.0,0.0,0.0,0.0,0.0,0.0,0.0,0.0,0.0,0.0,0.0,0.0,0.0,0.0,0.0,0.0,0.0,0.0,0.0,0.0,0.0,0.0,0.0,0.0,0.0,0.0,0.0,0.0,0.0,0.0,0.0,0.0,0.0,0.0,0.0,0.0,0.0,0.0,0.0,0.0,0.0,0.0,0.0,0.0,0.0,0.0,0.0,0.0,0.0,0.0,0.0,0.0,0.0,0.0,0.0,0.0,0.0,0.0,0.0,0.0,0.0,0.0,0.0,0.0,0.0,0.0,0.0,0.0,0.0,0.0,0.0,0.0,0.0,0.0,0.0,0.0,0.0,0.0,0.0,0.0,0.0,0.0,0.0,0.0,0.0,0.0,0.0,0.0,0.0,0.0,0.0,0.0,0.0,0.0,0.0,0.0,0.0,0.0,0.0,0.0,0.0,0.0,0.0,0.0,0.0,0.0,0.0,0.0,0.0,0.0,0.0,0.0,0.0,0.0,0.0,0.0,0.0,0.0,0.0,0.0,0.0,0.0,0.0,0.0,0.0,0.0,0.0,0.0,0.0,0.0,0.0,0.0,0.0,0.0,0.0,0.0,0.0,0.0,0.0,0.0,0.0,0.0,0.0,0.0,0.0,0.0,0.0,0.0,0.0,0.0,0.0,0.0,0.0,0.0,0.0,0.0,0.0,0.0,0.0,0.0,0.0,0.0,0.0,0.0,0.0,0.0,0.0,0.0,0.0,0.0,0.0,0.0,0.0,0.0,0.0,0.0,0.0,0.0,0.0,0.0,0.0,0.0,0.0,0.0,0.0,0.0,0.0,0.0,0.0,0.0,0.0,0.0,0.0,0.0,0.0,0.0,0.0,0.0,0.0,0.0,0.0,0.0,0.0,0.0,0.0,0.0,0.0,0.0,0.0,0.0,0.0,0.0,0.0,0.0,0.0,0.0,0.0,0.0,0.0,0.0,0.0,0.0,0.0,0.0,0.0,0.0,0.0,0.0,0.0,0.0,0.0,0.0,0.0,0.0,0.0,0.0,0.0,0.0,0.0,0.0,0.0,0.0,0.0,0.0,0.0,0.0,0.0,0.0,0.0,0.0,0.0,0.0,0.0,0.0,0.0,0.0,0.0,0.0,0.0,0.0,0.0,0.0,0.0,0.0,0.0,0.0,0.0,0.0,0.0,0.0,0.0,0.0,0.0,0.0,0.0,0.0,0.0,0.0,0.0,0.0,0.0,0.0,0.0,0.0,0.0,0.0,0.0,0.0,0.0,0.0,0.0,0.0,0.0,0.0,0.0,0.0,0.0,0.0,0.0,0.0,0.0,0.0,0.0,0.0,0.0,0.0,0.0,0.0,0.0,0.0,0.0,0.0,0.0,0.0,0.0,0.0,0.0,0.0,0.0,0.0,0.0,0.0,0.0,0.0,0.0,0.0,0.0,0.0,0.0,0.0,0.0,0.0,0.0,0.0,0.0,0.0,0.0,0.0,0.0,0.0,0.0,0.0,0.0,0.0,0.0,0.0,0.0,0.0,0.0,0.0,0.0,0.0,0.0,0.0,0.0,0.0,0.0,0.0,0.0,0.0,0.0,0.0,0.0,0.0,0.0,0.0,0.0,0.0,0.0,0.0,0.0,0.0,0.0,0.0,0.0,0.0,0.0,0.0,0.0,0.0,0.0,0.0,0.0,0.0,0.0,0.0,0.0,0.0,0.0,0.0,0.0,0.0,0.0,0.0,0.0,0.0,0.0,0.0,0.0,0.0,0.0,0.0,0.0,0.0,0.0,0.0,0.0,0.0,0.0,0.0,0.0,0.0,0.0,0.0,0.0,0.0,0.0,0.0,0.0,0.0,0.0,0.0,0.0,0.0,0.0,0.0,0.0,0.0,0.0,0.0,0.0,0.0,0.0,0.0,0.0,0.0,0.0,0.0,0.0,0.0,0.0,0.0,0.0,0.0,0.0,0.0,0.0,0.0,0.0,0.0,0.0,0.0,0.0,0.0,0.0,0.0,0.0,0.0,0.0,0.0,0.0,0.0,0.0,0.0,0.0,0.0,0.0,0.0,0.0,0.0,0.0,0.0,0.0,0.0,0.0,0.0,0.0,0.0,0.0,0.0,-2.5976,-2.3071,0.0,0.0,0.0,0.0,0.0,0.0,0.0,0.0,0.0,0.0,0.0,0.0,0.0,0.0,0.0,0.0,0.0,0.0,0.0,0.0,0.0,0.0,0.0,-1.5266,-1.5367,-1.5643,-1.5668,0.0,0.0,0.0,0.0,0.0,0.0,0.0,0.0,0.0,-1.6783,-1.6973,-1.7497,-1.934,-2.2193,-2.0615,-1.9253,-1.8059,0.0,0.0,0.0,0.0,0.0,0.0,0.0,0.0,0.0,0.0,0.0,0.0,0.0,0.0,0.0,0.0,0.0,0.0,0.0,0.0,0.0,0.0,0.0,0.0,0.0,0.0,0.0,0.0,0.0,0.0,0.0,0.0,0.0,0.0,0.0,0.0,0.0,0.0,0.0,0.0,0.0,0.0,0.0,0.0,0.0,0.0,0.0,0.0,0.0,0.0,0.0,0.0,0.0,0.0,0.0,0.0,0.0,0.0,0.0,0.0,0.0,0.0,0.0,0.0,0.0,0.0,0.0,0.0,0.0,0.0,-2.873,-2.6953,0.0,0.0,0.0,0.0,0.0,0.0,0.0,0.0,0.0,0.0,0.0,0.0,0.0,0.0,0.0,0.0,0.0,0.0,0.0,0.0,0.0,-1.5417,-1.607,-1.6145,-1.6321,-1.6773,-1.6823,-1.6823,-1.6823,-1.6823,0.0,0.0,0.0,0.0,-1.683,-1.7023,-1.7337,-1.7803,-2.0711,-2.3045,-2.4893,-2.4631,-2.3573,-2.1655,-1.9684,0.0,0.0,0.0,0.0,0.0,0.0,0.0,0.0,0.0,0.0,0.0,0.0,0.0,0.0,0.0,0.0,0.0,0.0,0.0,0.0,0.0,0.0,0.0,0.0,0.0,0.0,0.0,0.0,0.0,0.0,0.0,0.0,0.0,0.0,0.0,0.0,0.0,0.0,0.0,0.0,0.0,0.0,0.0,0.0,0.0,0.0,0.0,0.0,0.0,0.0,0.0,0.0,0.0,0.0,0.0,0.0,0.0,0.0,0.0,0.0,0.0,0.0,0.0,-3.2038,-3.2145,-3.1602,-3.1642,-3.2695,-3.4297,-3.1797,-3.1582,-3.2734,-2.918,0.0,0.0,0.0,0.0,0.0,0.0,0.0,0.0,0.0,0.0,0.0,0.0,0.0,0.0,0.0,0.0,0.0,0.0,0.0,-1.6697,-1.7752,-1.7877,-1.7903,-1.7978,-1.7978,-1.7978,-1.7978,-1.7978,0.0,0.0,0.0,-1.8283,-1.9304,-1.7913,-1.9135,-2.3117,-2.6225,-2.7541,-2.7275,-2.7604,-2.7584,-2.7176,-2.4303,-2.1624,-1.9316,0.0,0.0,0.0,0.0,0.0,0.0,0.0,0.0,0.0,0.0,0.0,0.0,0.0,0.0,0.0,0.0,0.0,0.0,0.0,0.0,0.0,0.0,0.0,0.0,0.0,0.0,0.0,0.0,0.0,0.0,0.0,0.0,0.0,0.0,0.0,0.0,0.0,0.0,0.0,0.0,0.0,-3.0277,-3.0967,0.0,0.0,0.0,0.0,0.0,0.0,0.0,0.0,0.0,0.0,0.0,0.0,0.0,-3.1065,-3.0547,-3.2917,-3.4819,-3.6248,-3.7225,-3.8327,-3.9675,-3.8127,-3.7832,-3.8418,-3.8008,0.0,-3.3867,-3.3301,0.0,0.0,0.0,0.0,0.0,0.0,0.0,0.0,0.0,0.0,0.0,0.0,0.0,0.0,0.0,0.0,0.0,0.0,0.0,0.0,0.0,-2.079,-2.1594,-2.3175,-2.2872,-2.2407,-2.1938,-2.118,0.0,0.0,-1.9998,-2.0128,-2.0555,-2.025,-2.2083,-2.6139,-2.7743,-2.9075,-3.0215,-3.0625,-3.0703,-3.043,-2.959,-2.6816,-2.2812,-2.2812,0.0,0.0,0.0,0.0,0.0,0.0,0.0,0.0,0.0,0.0,0.0,0.0,0.0,0.0,0.0,0.0,0.0,0.0,0.0,0.0,0.0,0.0,0.0,0.0,0.0,0.0,0.0,0.0,0.0,0.0,0.0,0.0,0.0,0.0,0.0,0.0,0.0,0.0,0.0,-2.7462,-2.8688,-3.0103,-2.7323,-2.5201,0.0,0.0,0.0,0.0,0.0,0.0,0.0,0.0,0.0,-3.2754,-3.3793,-3.4812,-3.5937,-3.6562,-3.7529,-3.8708,-3.8932,-3.9485,-4.0459,-3.9849,-3.9766,-3.9961,-4.0195,-3.9453,-3.793,-3.623,-3.4434,-3.2598,0.0,0.0,0.0,0.0,-3.0254,-3.0605,0.0,0.0,0.0,0.0,0.0,0.0,0.0,0.0,0.0,0.0,0.0,0.0,-2.2297,-2.3401,-2.4883,-2.7092,-2.6724,-2.6191,-2.5695,-2.4856,-2.414,-2.3678,-2.2664,-2.2628,-2.3782,-2.4521,-2.6072,-2.832,-2.9297,-3.082,-3.2832,-3.3144,-3.3125,-3.2851,-3.3476,-3.0937,-2.623,-2.6328,-2.4824,-2.2305,0.0,0.0,0.0,0.0,0.0,0.0,0.0,0.0,0.0,0.0,0.0,0.0,0.0,0.0,0.0,0.0,0.0,0.0,0.0,0.0,0.0,0.0,0.0,0.0,0.0,0.0,0.0,0.0,0.0,0.0,0.0,0.0,0.0,0.0,0.0,0.0,0.0,-2.8268,-2.9716,-3.0441,-2.9645,-2.8146,0.0,0.0,0.0,0.0,0.0,0.0,-3.1621,-3.2772,-3.4358,-3.6465,-3.7233,-3.8398,-4.0039,-3.9512,-3.9512,-4.0059,-3.9922,-4.0039,-4.0391,-4.082,-4.1016,-4.1035,-4.1348,-4.1484,-4.1289,-3.8711,-3.7324,-3.666,-3.4922,-3.3906,-3.3457,-3.3691,-3.3926,-3.4453,0.0,0.0,0.0,0.0,0.0,0.0,0.0,0.0,0.0,0.0,0.0,-2.2347,-2.2965,-2.5008,-2.6565,-2.7218,-2.7222,-2.7423,-2.7921,-2.8349,-2.885,-2.9352,-2.5801,-2.5985,-3.0778,-3.1593,-3.1296,-3.0078,-3.2559,-3.4043,-3.457,-3.459,-3.459,-3.457,-3.4609,-3.2656,-2.9375,-2.9766,-2.8223,-2.5332,-2.3242,0.0,0.0,0.0,0.0,0.0,0.0,0.0,0.0,0.0,0.0,0.0,0.0,0.0,0.0,0.0,0.0,0.0,0.0,0.0,0.0,0.0,0.0,0.0,0.0,0.0,0.0,0.0,0.0,0.0,0.0,0.0,0.0,0.0,0.0,0.0,0.0,0.0,0.0,-3.5161,-3.7793,0.0,0.0,0.0,0.0,-3.1917,-3.2324,-3.3516,-3.5625,-3.731,-3.8712,-3.959,-4.1244,-4.1509,-4.0488,-4.0859,-4.0859,-4.0508,-4.1289,-4.168,-4.1719,-4.2148,-4.2324,-4.2344,-4.2344,-4.2363,-4.2266,-4.0898,-3.9121,-3.7226,-3.6719,-3.5234,-3.3672,-3.5723,-3.6973,-3.7969,0.0,0.0,0.0,-1.5392,-1.5869,-1.6421,-1.6974,-1.7852,-1.8957,-2.0413,-2.192,-2.4004,-2.7092,-2.875,-3.0432,-3.2416,-3.2498,-3.2225,-3.183,-3.2215,-3.1124,-2.83,-2.9577,-3.1081,-3.254,-3.2184,-3.2158,-3.2695,-3.3613,-3.4297,-3.4707,-3.4707,-3.4707,-3.4707,-3.5019,-3.4473,-3.332,-3.3476,-3.1953,-2.9394,-2.8613,-2.6289,0.0,0.0,0.0,0.0,0.0,0.0,0.0,0.0,0.0,0.0,0.0,0.0,0.0,0.0,0.0,0.0,0.0,0.0,0.0,0.0,0.0,0.0,0.0,0.0,0.0,0.0,0.0,0.0,0.0,0.0,0.0,0.0,0.0,0.0,0.0,0.0,0.0,-3.3504,-3.6575,0.0,-3.3031,-3.4161,-3.5042,-3.5152,-3.6211,-3.75,-3.8848,-3.9473,-4.0028,-4.0684,-4.1574,-4.1773,-4.1348,-4.1777,-4.2051,-4.2168,-4.2754,-4.3183,-4.3476,-4.3633,-4.3691,-4.3672,-4.3379,-4.3242,-4.3203,-4.2754,-4.1797,-4.0586,-4.043,-3.9902,-3.9336,-4.041,-4.0976,-4.1387,0.0,0.0,0.0,-1.5969,-1.6446,-1.6999,-1.7576,-1.843,-1.9761,-2.1769,-2.3326,-2.5737,-2.9654,-3.1361,-3.3219,-3.5629,-3.5187,-3.5017,-3.5261,-3.4678,-3.3125,-3.0429,-3.3116,-3.4032,-3.2696,-3.3101,-3.368,-3.4512,-3.4512,-3.4726,-3.5156,-3.5156,-3.5215,-3.5371,-3.5527,-3.5684,-3.582,-3.582,-3.4746,-3.2969,-3.2246,-3.0059,-2.6953,0.0,0.0,0.0,0.0,0.0,0.0,0.0,0.0,0.0,0.0,0.0,0.0,0.0,0.0,0.0,0.0,0.0,0.0,0.0,0.0,0.0,0.0,0.0,0.0,0.0,0.0,0.0,0.0,0.0,0.0,0.0,0.0,0.0,0.0,-3.4159,-3.6453,-3.2676,-3.696,-3.8624,-3.432,-3.6499,-3.8306,-3.834,-3.9434,-4.0391,-4.1133,-4.1172,-4.1367,-4.1797,-4.209,-4.2305,-4.2441,-4.2578,-4.2793,-4.3086,-4.3359,-4.3652,-4.3965,-4.4101,-4.416,-4.4141,-4.3848,-4.3711,-4.3711,-4.3711,-4.3359,-4.2851,-4.2851,-4.2851,-4.2891,-4.3183,-4.3379,-4.3574,0.0,0.0,-1.6522,-1.6522,-1.6999,-1.7576,-1.8129,-1.8681,-2.001,-2.2874,-2.5134,-2.757,-3.0432,-3.2667,-3.465,-3.6188,-3.5138,-3.5355,-3.7692,-3.5696,-3.4932,-3.6207,-3.6054,-3.4619,-3.174,-3.4718,-3.6065,-3.543,-3.5449,-3.5664,-3.6055,-3.6074,-3.6289,-3.668,-3.625,-3.6289,-3.668,-3.668,-3.6465,-3.5898,-3.3789,-3.2891,-3.2266,0.0,0.0,0.0,0.0,0.0,0.0,0.0,0.0,0.0,0.0,0.0,0.0,0.0,0.0,0.0,0.0,0.0,0.0,0.0,0.0,0.0,0.0,0.0,0.0,0.0,0.0,0.0,0.0,0.0,0.0,0.0,0.0,0.0,-3.1992,-3.5455,-3.7016,-3.3434,-3.989,-4.271,-3.7964,-4.0512,-4.2249,-4.1915,-4.1855,-4.2031,-4.2441,-4.2461,-4.2637,-4.3066,-4.3086,-4.3281,-4.3691,-4.3301,-4.3105,-4.3105,-4.3105,-4.3125,-4.3125,-4.3555,-4.375,-4.375,-4.375,-4.375,-4.375,-4.3769,-4.3769,-4.3769,-4.373,-4.3711,-4.3711,-4.373,-4.4023,-4.4414,-1.6522,-1.6522,-1.6522,-1.6522,-1.7325,-1.8028,-1.8179,-1.8982,-2.1016,-2.5034,-2.644,-2.8725,-3.3119,-3.4851,-3.563,-3.5379,-3.6775,-3.6972,-3.5355,-3.7093,-3.8362,-3.8666,0.0,0.0,-3.6013,-3.6093,-3.6147,-3.6328,-3.6934,-3.7129,-3.6953,-3.7266,-3.7305,-3.7129,-3.6992,-3.7012,-3.7129,-3.7129,-3.7226,-3.7324,-3.6426,-3.4922,-3.3086,0.0,0.0,0.0,0.0,0.0,0.0,0.0,0.0,0.0,0.0,0.0,0.0,0.0,0.0,0.0,0.0,0.0,0.0,0.0,0.0,0.0,0.0,0.0,0.0,0.0,0.0,0.0,0.0,0.0,0.0,0.0,-3.3691,-3.5488,-3.4473,-3.8657,-4.076,-3.7842,-4.175,-4.3606,-4.0892,-4.1993,-4.2922,-4.3125,-4.3183,-4.3223,-4.334,-4.3066,-4.2949,-4.3066,-4.3086,-4.3125,-4.3242,-4.3437,-4.3535,-4.3535,-4.3867,-4.4043,-4.4043,-4.4473,-4.4668,-4.4668,-4.4668,-4.4668,-4.4687,-4.5,-4.5137,-4.5039,-4.4082,-4.3711,-4.375,-4.4082,-4.4473,-4.4863,-1.6522,-1.6522,-1.6522,-1.6522,-1.7451,-1.8204,-1.8204,-1.9108,-2.1393,-2.5954,-2.6942,-2.9176,-3.4173,-3.5705,-3.6372,-3.6232,-3.6675,-3.6577,-3.5867,-3.6795,-3.7481,-3.7708,0.0,-3.4655,-3.7563,-3.6955,-3.6758,-3.7187,-3.7676,-3.7891,-3.7832,-3.8086,-3.8164,-3.8086,-3.7715,-3.7656,-3.7812,-3.7441,-3.7441,-3.7676,-3.7793,-3.6816,-3.5195,-3.4101,-3.291,-3.1641,-3.0332,-2.8711,-2.7226,-2.7226,0.0,0.0,0.0,0.0,0.0,0.0,0.0,0.0,0.0,0.0,0.0,0.0,0.0,0.0,0.0,0.0,0.0,0.0,0.0,0.0,0.0,0.0,0.0,0.0,-3.6484,-3.8164,-3.8086,-4.0632,-4.1887,-4.072,-4.2501,-4.3718,-4.3013,-4.3164,-4.3516,-4.3965,-4.3808,-4.3711,-4.3711,-4.3476,-4.334,-4.334,-4.334,-4.3516,-4.3887,-4.3965,-4.418,-4.4531,-4.4629,-4.4668,-4.4668,-4.4902,-4.5019,-4.5039,-4.5215,-4.5195,-4.5078,-4.5683,-4.584,-4.5625,0.0,0.0,0.0,0.0,-4.5351,-4.5527,-1.6522,-1.6522,-1.6522,-1.6522,-1.7451,-1.8204,-1.8204,-1.9108,-2.1418,-2.5963,-2.7042,-2.9277,-3.4274,-3.5855,-3.6835,-3.7367,-3.5599,-3.5551,-3.7741,-3.5771,-3.4815,-3.5396,-3.5131,-3.5644,-3.7187,-3.7363,-3.7617,-3.7988,-3.8144,-3.8398,-3.873,-3.8828,-3.9043,-3.9316,-3.8613,-3.8496,-3.8809,-3.8008,-3.7656,-3.7715,-3.8437,-3.8437,-3.7754,-3.5508,-3.4648,-3.4355,-3.2012,-3.0976,-3.0703,-3.0703,0.0,0.0,0.0,0.0,0.0,0.0,0.0,0.0,0.0,0.0,0.0,0.0,0.0,0.0,0.0,0.0,0.0,0.0,0.0,0.0,0.0,0.0,0.0,0.0,-3.959,-4.1484,-4.1953,-4.1738,-4.1797,-4.248,-4.3008,-4.3613,-4.4394,-4.4101,-4.4004,-4.4375,-4.4023,-4.3769,-4.3711,-4.375,0.0,0.0,0.0,-4.4238,-4.5019,-4.4648,-4.4844,-4.5605,-4.5254,-4.5098,-4.5098,-4.5195,-4.5273,-4.5332,-4.5781,-4.5762,-4.5527,-4.6269,-4.6367,-4.6055,-4.623,-4.6308,-4.6308,-4.6308,-4.6308,-4.625,-1.6522,-1.6522,-1.6522,-1.6522,-1.7451,-1.8204,-1.8204,-1.9108,-2.1568,-2.649,-2.7595,-2.9854,-3.4851,-3.6759,-3.6552,-3.3791,-3.5475,-3.6821,-3.7337,-3.6372,-3.6302,-3.7199,-3.6648,-3.6445,-3.6777,-3.7793,-3.8359,-3.8457,-3.9512,-3.9883,-3.9648,-4.0351,-4.0527,-4.0273,-4.0469,-4.0586,-4.0644,-4.0117,-3.9902,-3.9883,-3.9707,-3.916,-3.8437,-3.8262,-3.8203,-3.8105,-3.7266,-3.5605,-3.3828,-3.3828,-3.2402,-3.0547,-3.0059,-2.9902,0.0,0.0,0.0,0.0,0.0,0.0,0.0,0.0,0.0,0.0,0.0,0.0,0.0,0.0,0.0,0.0,0.0,0.0,0.0,-3.7637,-4.0273,-4.2461,-4.3223,-4.3594,-4.3691,-4.3476,-4.416,-4.4707,-4.4883,-4.4824,-4.4668,-4.4414,-4.4316,-4.4101,-4.373,-4.4062,-4.4258,-4.4258,-4.459,-4.4844,-4.5019,-4.4941,-4.498,-4.5156,-4.543,0.0,-4.5566,-4.625,-4.6758,-4.7109,-4.7539,-4.7871,-4.8125,-4.8301,-4.832,-4.8105,-4.6816,-4.6308,-4.6308,-4.6308,-4.6308,-4.6289,-1.6522,-1.6522,-1.6522,-1.6522,-1.7451,-1.8204,-1.8204,-1.9108,-2.1091,-2.4732,-2.5937,-2.7821,-3.1436,-3.3545,-3.408,-3.2503,-3.5084,-3.6696,-3.6429,-3.6763,-3.7429,-3.8463,-3.7591,-3.709,-3.7285,-3.8144,-3.8789,-3.9238,-4.0098,-4.0527,-4.0547,-4.1191,-4.1367,-4.1172,-4.1387,-4.1484,-4.1465,-4.1035,-4.0723,-4.0527,-4.0527,-4.0137,-3.9531,-3.9297,-3.9199,-3.9141,-3.873,-3.7871,-3.6914,-3.6719,-3.5781,-3.4512,-3.3203,-3.2793,-3.207,0.0,0.0,0.0,0.0,0.0,0.0,0.0,0.0,0.0,0.0,0.0,0.0,0.0,0.0,-3.3633,-3.5351,0.0,-3.8809,-4.0527,-4.2266,-4.3633,-4.4277,-4.457,-4.4707,-4.4687,-4.5078,-4.5351,-4.5351,-4.5156,-4.4941,-4.4726,-4.4512,-4.4394,-4.4355,-4.459,-4.4707,-4.4707,-4.4922,-4.5137,-4.5351,-4.5566,-4.5879,-4.6308,-4.6738,-4.7051,-4.7285,-4.7715,-4.8008,-4.8242,-4.8672,-4.8867,-4.8867,-4.9101,-4.9316,-4.9433,-4.8574,-4.7969,-4.7578,-4.7578,-4.7578,-4.7578,-1.6522,-1.6522,-1.6522,-1.6522,-1.7451,-1.8204,-1.8204,-1.9108,-2.0589,-2.279,-2.4029,-2.5536,-2.7846,-2.998,-3.1461,-3.2014,-3.45,-3.584,-3.5365,-3.7065,-3.8342,-3.8933,-3.7826,-3.7363,-3.7793,-3.8398,-3.9101,-3.9902,-4.0391,-4.084,-4.1191,-4.1601,-4.1836,-4.1933,-4.2012,-4.209,-4.2129,-4.1621,-4.1211,-4.0918,-4.1094,-4.0957,-4.0566,-3.9863,-3.9531,-3.9394,-3.8984,-3.9043,-3.9277,-3.8848,-3.8691,-3.832,-3.6133,-3.5176,-3.4023,-2.9883,-2.959,0.0,0.0,0.0,0.0,0.0,0.0,0.0,0.0,-3.1328,-3.2207,-3.4473,-3.5273,-3.6269,-3.8516,-3.9551,-4.0898,-4.3437,-4.4297,-4.4726,-4.5,-4.5098,-4.5273,-4.5644,-4.5605,-4.5547,-4.5547,-4.5234,-4.5019,-4.5019,-4.4707,-4.4668,-4.5,-4.5117,-4.5156,-4.5156,-4.5391,-4.5683,-4.6055,-4.6543,-4.7148,-4.7832,-4.8262,-4.8652,-4.8984,-4.9082,-4.916,-4.9258,-4.9707,-4.9687,-4.9375,-4.9746,-5.0098,-5.043,-5.0508,-5.0117,-4.9453,-4.9199,-4.9121,-4.9121,-1.6522,-1.6522,-1.6522,-1.6522,-1.7451,-1.8204,-1.8204,-1.9108,-2.0589,-2.279,-2.3703,-2.5109,-2.7821,-2.9654,-3.0909,-3.1436,-3.3571,-3.4903,-3.4899,-3.761,-3.8963,-3.8031,-3.7225,-3.6934,-3.7363,-3.8535,-3.9375,-3.9902,-4.0703,-4.1133,-4.1191,-4.1601,-4.1992,-4.2383,-4.2754,-4.3144,-4.3437,-4.2617,-4.2266,-4.2148,-4.1445,-4.1152,-4.1094,-4.0996,-4.0703,-4.0312,-3.9902,-3.9785,-3.9746,-3.9297,-3.9141,-3.9004,-3.8359,-3.6836,-3.4902,-3.2832,-3.1035,-2.9277,-2.7266,-2.8457,-3.0684,-3.2363,-3.2851,-3.3926,0.0,-3.7539,-3.7226,-3.9785,-4.0644,-4.125,-4.2305,-4.2891,-4.3437,-4.4199,-4.5,-4.541,-4.5078,-4.5351,-4.5625,-4.5664,-4.5332,-4.5098,-4.5098,-4.5058,-4.5019,-4.5019,-4.498,-4.498,-4.5019,-4.5391,-4.5605,-4.5605,-4.6699,-4.7324,-4.7363,-4.8164,-4.8613,-4.8711,-4.916,-4.9414,-4.9473,-4.9844,-5.0234,-5.0605,-5.1035,-5.1191,-5.1152,-5.1191,-5.125,-5.1328,-5.1719,-5.1816,-5.1582,-5.0449,-5.0019,-5.0019,-1.6522,-1.6522,-1.6522,-1.6522,-1.7451,-1.8204,-1.8204,-1.9108,-2.0137,-2.1066,-2.1694,-2.2498,-2.3653,-2.5862,-2.7595,-2.8448,-3.2616,-3.5326,-3.5721,-3.809,-3.9405,-3.9256,-3.738,-3.6601,-3.7285,-3.8066,-3.8926,-3.9902,-4.0508,-4.0918,-4.1191,-4.1601,-4.1894,-4.207,-4.25,-4.2793,-4.293,-4.2578,-4.2285,-4.2031,-4.168,-4.1387,-4.1172,-4.1172,-4.0273,-3.8945,-3.8535,-3.8379,0.0,-3.7871,-3.7734,-3.7695,-3.7519,-3.6855,-3.5488,-3.2226,-3.1543,-3.1934,-3.248,-3.2363,-3.2656,-3.5078,-3.5859,-3.6641,-3.8965,-3.9141,-3.9531,-4.2109,-4.3008,-4.3418,-4.3769,-4.4394,-4.4824,-4.4766,-4.5273,-4.5527,-4.5078,-4.5176,-4.5293,-4.5293,-4.5137,-4.5117,-4.5371,-4.541,-4.541,-4.541,-4.541,-4.5605,-4.6113,-4.6543,-4.6894,-4.7148,-4.791,-4.832,-4.832,-4.8945,-4.9375,-4.9629,-5.0058,-5.041,-5.0644,-5.082,-5.1133,-5.1562,-5.1992,-5.2168,-5.2168,-5.2168,-5.2168,-5.2187,-5.2383,-5.2441,-5.2383,-5.1855,-5.1641,-5.1641,-1.6522,-1.6522,-1.6572,-1.6722,-1.7551,-1.8204,-1.8204,-1.9108,-1.9811,-1.9811,-2.0162,-2.0614,-2.1066,-2.305,-2.4933,-2.6339,-3.106,-3.4395,-3.5441,-3.7234,-3.8498,-3.9418,-3.7146,-3.6309,-3.7266,-3.7715,-3.8516,-3.9707,-4.0254,-4.0684,-4.0996,-4.1426,-4.1699,-4.1816,-4.2109,-4.2324,-4.2422,-4.2305,-4.207,-4.1797,-4.168,-4.1445,-4.1113,-4.0508,-3.9297,-3.7891,-3.7578,-3.709,-3.6523,-3.6094,-3.5957,-3.5937,-3.582,-3.5449,-3.4473,-3.1445,-3.1406,-3.2851,-3.5156,-3.5059,-3.4941,-3.7539,-3.8867,-3.9648,-4.0156,-4.0723,-4.1621,-4.3359,-4.416,-4.4609,-4.4726,-4.5156,-4.543,-4.5234,-4.5371,-4.5391,-4.5078,-4.5019,-4.5078,-4.5195,-4.5195,-4.5469,-4.6133,-4.5879,-4.582,-4.6172,-4.6191,-4.6562,-4.7422,-4.7754,-4.8066,-4.8379,-4.8926,-4.9219,-4.9219,-4.9785,-5.0273,-5.0703,-5.1016,-5.1367,-5.1777,-5.1777,-5.1953,-5.2266,-5.2578,-5.2715,-5.2715,-5.2715,-5.2715,-5.2715,-5.2832,-5.2891,-5.291,-5.3027,-5.293,-5.2715,-1.6522,-1.6522,-1.6697,-1.725,-1.7827,-1.8204,-1.8204,-1.9108,-1.9811,-1.9811,-1.9811,-2.0439,-2.2096,-2.2824,-2.4079,-2.6264,-2.8599,-3.0934,-3.3173,-3.4328,-3.5569,-3.7128,-3.6062,-3.5996,-3.7266,-3.7715,-3.834,-3.9219,-4.0098,-4.0527,-4.0547,-4.0996,-4.1406,-4.1797,-4.1816,-4.2051,-4.2402,-4.1992,-4.1816,-4.1758,-4.1348,-4.1191,-4.0937,-3.8828,-3.7988,-3.793,-3.791,-3.6562,-3.4707,-3.4297,-3.416,-3.4082,-3.3652,-3.2383,-3.1113,-3.1406,-3.0625,-3.0254,-3.2832,-3.5019,-3.7187,-3.9785,-4.1992,-4.3437,-4.3047,-4.3633,-4.416,-4.3789,-4.4394,-4.5137,-4.5566,-4.5312,-4.5176,-4.5586,-4.5312,-4.5039,-4.5019,-4.5019,-4.5176,-4.5605,-4.5664,-4.6152,-4.7402,-4.6406,-4.6191,-4.7422,-4.7519,-4.7891,-4.875,-4.8808,-4.8828,-4.8848,-4.9687,-5.0137,-5.0137,-5.0957,-5.1601,-5.2031,-5.2031,-5.2266,-5.2676,-5.2676,-5.2676,-5.2695,-5.2695,-5.2715,-5.2715,-5.2715,-5.2715,-5.2754,-5.3183,-5.334,-5.3398,-5.3828,-5.3437,-5.2715,-1.6597,-1.6823,-1.7149,-1.735,-1.8129,-1.8756,-1.8756,-1.9359,-1.9811,-1.9811,-1.9811,0.0,0.0,0.0,0.0,0.0,-2.7645,-3.0094,-3.0925,-3.4275,-3.6047,-3.5569,-3.7541,-3.8166,-3.6995,-3.8366,-3.9151,-3.9199,-3.9492,-3.9805,-4.0117,-4.0547,-4.082,-4.0957,-4.125,-4.1465,-4.1582,-4.1445,-4.1387,-4.1367,-4.123,-4.0312,-3.8945,-3.8203,-3.6152,-3.3672,0.0,-3.3203,-3.2559,-3.2422,-3.2383,-3.2363,-3.2207,-3.1973,-3.1601,-3.0859,-3.0957,-3.1855,-3.4453,-3.6309,-3.8184,-4.1074,-4.2539,-4.3476,-4.4199,-4.4824,-4.5273,-4.541,-4.4531,-4.3769,-4.3926,-4.3828,-4.3691,-4.3535,-4.4609,-4.5449,-4.5449,-4.5703,-4.6035,-4.6465,-4.7012,-4.7519,-4.7949,-4.7363,-4.7344,-4.8359,-4.8418,-4.8691,-4.9277,-4.957,-4.9863,-5.0137,-5.0996,-5.1445,-5.1445,-5.1992,-5.2344,-5.25,-5.25,-5.2578,-5.2715,-5.3008,-5.3301,-5.3594,-5.3887,-5.418,-5.4433,-5.4433,-5.4433,-5.4453,-5.459,-5.4648,-5.4707,-5.5137,-5.5098,-5.4765,-1.72,-1.7426,-1.7727,-1.7928,-1.8555,0.0,0.0,0.0,0.0,0.0,0.0,0.0,0.0,0.0,0.0,0.0,0.0,-2.8097,-2.9679,-3.2184,-3.387,-3.4381,-3.627,-3.6911,-3.5936,-3.7398,-3.7888,-3.7351,-3.8286,-3.8616,-3.8535,-3.9746,-4.0293,-4.0312,-4.0586,-4.0723,-4.0664,-3.9883,-3.9824,-4.0137,-3.8906,-3.7851,-3.6875,-3.5644,-3.3457,0.0,-3.0176,-3.0,-3.0156,-3.0312,-3.0371,-3.0391,-3.0547,-3.0996,-3.1484,-3.1562,-3.2187,-3.3574,-3.6953,-3.8574,-4.0,-4.2871,-4.3906,-4.4414,-4.5098,-4.5586,-4.5937,-4.6055,-4.4473,-4.3086,-4.3086,-4.2949,-4.25,-4.1445,-4.3105,-4.457,-4.4726,-4.5117,-4.582,-4.7012,-4.7773,-4.834,-4.8652,-4.8574,-4.873,-4.9297,-4.9336,-4.959,-5.0176,-5.0625,-5.0976,-5.125,-5.1933,-5.2305,-5.2305,-5.2578,-5.2871,-5.3183,-5.3496,-5.3633,-5.3652,-5.3769,-5.4062,-5.4492,-5.4785,-5.5137,-5.5547,-5.5703,-5.5762,-5.5762,-5.5762,-5.5762,-5.5801,-5.6074,-5.6269,-5.6289,-1.8204,-1.8229,-1.8405,0.0,0.0,0.0,0.0,0.0,0.0,0.0,0.0,0.0,0.0,0.0,0.0,0.0,0.0,0.0,-2.9252,-2.8275,0.0,-3.3426,-3.2791,-3.2959,-3.4294,-3.4931,-3.4863,-3.3969,-3.6449,-3.6971,-3.5879,-3.8379,-3.9531,-3.9531,-3.9551,-3.957,-3.9434,-3.7383,-3.7207,-3.8027,-3.4746,-3.4101,-3.4766,-3.1465,-3.0137,-2.9766,-2.7734,-2.7285,-2.7695,-2.8125,-2.8359,-2.8555,-2.9101,-2.9844,-3.0996,-3.3535,-3.4316,-3.5371,-3.9941,-4.1504,-4.2461,-4.498,-4.5918,-4.6152,-4.5781,-4.6035,-4.6191,-4.5683,-4.418,-4.291,-4.2773,-4.25,-4.1621,-3.957,-4.1152,-4.2773,-4.3242,-4.3652,-4.4844,-4.7383,-4.8047,-4.8652,-4.9512,-4.998,-5.0254,-5.0273,-5.0254,-5.0605,-5.1426,-5.1855,-5.209,-5.2109,-5.2519,-5.2754,-5.2754,-5.2793,-5.3223,-5.4043,-5.4883,-5.5293,-5.5293,-5.4902,-5.4961,-5.541,-5.541,-5.5644,-5.6055,-5.6484,-5.664,-5.664,-5.664,-5.664,-5.666,-5.668,-5.6933,-5.7226,0.0,0.0,0.0,0.0,0.0,0.0,0.0,0.0,0.0,0.0,0.0,0.0,0.0,0.0,0.0,0.0,0.0,0.0,-2.5963,-2.8002,-2.9537,0.0,0.0,0.0,-3.3289,-3.5346,-3.5469,-3.3375,-3.4407,-3.4328,-3.3184,-3.4141,-3.4609,-3.4609,-3.4922,-3.5078,-3.5039,-3.4473,-3.4434,-3.4668,-3.3769,-3.2656,-3.1426,-3.0527,-2.9199,-2.7754,-2.7207,-2.709,-2.7246,-2.7676,-2.9101,-3.1113,-3.3476,-3.4355,-3.4844,-3.6465,-3.7637,-3.8809,-4.0664,-4.1953,-4.3066,-4.4394,-4.5039,-4.5488,-4.6016,-4.6465,-4.6289,-4.4551,-4.2598,-4.0586,-3.8652,-3.9531,-4.0371,-3.9805,-4.2871,-4.5566,-4.6328,-4.6523,-4.7207,-4.8828,-4.9414,-4.9883,-5.043,-5.0859,-5.125,-5.1582,-5.1289,-5.1348,-5.1894,-5.2031,-5.2226,-5.2539,-5.2969,-5.3203,-5.3203,-5.3848,-5.4121,-5.4043,-5.459,-5.5,-5.5312,-5.5195,-5.5723,-5.6719,-5.6719,-5.6973,-5.7383,-5.75,-5.7539,-5.7539,-5.7539,-5.7539,-5.7578,-5.791,-5.8125,-5.8242,0.0,0.0,0.0,0.0,0.0,0.0,0.0,0.0,0.0,0.0,0.0,0.0,0.0,0.0,0.0,0.0,0.0,0.0,0.0,-2.644,-2.7705,-2.7873,0.0,0.0,-3.1529,-3.3197,-3.3278,-3.1651,-3.3095,-3.3194,-3.2046,-3.2912,-3.3336,-3.3336,-3.3001,-3.2871,-3.2812,-3.1855,-3.1777,0.0,0.0,-2.9668,-2.9023,-2.8457,-2.75,-2.6445,-2.6445,-2.7305,-2.8633,-3.0019,-3.1699,-3.3555,-3.543,-3.6152,-3.666,-3.8516,-3.959,-4.0527,-4.2148,-4.3242,-4.4101,-4.4785,-4.541,-4.5683,-4.5039,-4.5215,-4.4844,-4.2519,-4.0332,-3.8398,-3.6934,-3.8594,-3.9863,-3.8906,-4.2695,-4.5898,-4.6387,-4.6621,-4.7441,-4.9297,-4.9902,-5.0351,-5.0762,-5.1191,-5.1621,-5.2051,-5.1855,-5.1894,-5.2324,-5.2539,-5.2754,-5.2988,-5.3418,-5.375,-5.3945,-5.4433,-5.4746,-5.4863,-5.5312,-5.5644,-5.5879,-5.5879,-5.6367,-5.7207,-5.7207,-5.7578,-5.8183,-5.8379,-5.8437,-5.8437,-5.8437,-5.8437,-5.8496,-5.8711,-5.8828,-5.8828,0.0,0.0,0.0,0.0,0.0,0.0,0.0,0.0,0.0,-1.9811,-1.9811,-1.9836,-1.9911,-2.0363,0.0,0.0,0.0,0.0,0.0,0.0,-2.5234,-2.6483,-2.7369,-2.8423,-2.9553,-3.0024,-2.9959,-2.9379,-3.167,-3.2339,-3.1318,-3.2522,-3.2996,-3.3016,-3.1838,-3.1309,-3.1191,-2.9297,-2.916,-2.9941,-2.6934,-2.6406,-2.7285,0.0,-2.5742,-2.5742,-2.5742,-2.7617,-3.0527,-3.3184,-3.4844,-3.5937,-3.6641,-3.7168,-3.7969,-4.0273,-4.0937,-4.1465,-4.3828,-4.4746,-4.5137,-4.5644,-4.6348,-4.6269,-4.373,-4.3437,-4.2891,-4.0059,-3.793,-3.6504,-3.6211,-3.8223,-3.9434,-3.7969,-4.1738,-4.5,-4.5391,-4.5781,-4.6914,-4.9336,-4.9941,-5.0371,-5.084,-5.1269,-5.1699,-5.2129,-5.2226,-5.2402,-5.2773,-5.3144,-5.3379,-5.3457,-5.3828,-5.4238,-5.4668,-5.4746,-5.5156,-5.5937,-5.6308,-5.6582,-5.6758,-5.6699,-5.6973,-5.748,-5.748,-5.791,-5.8652,-5.9004,-5.918,-5.918,-5.918,-5.918,-5.918,-5.918,-5.918,-5.918,0.0,0.0,0.0,0.0,0.0,0.0,0.0,0.0,0.0,0.0,-1.9811,-1.9987,0.0,0.0,0.0,0.0,0.0,0.0,0.0,0.0,0.0,-2.6458,-2.671,-2.7268,-2.8373,-2.848,-2.8458,-2.8208,-2.866,-2.8679,-2.8432,-2.8147,-2.7994,-2.7918,-2.7162,-2.6855,-2.6836,-2.6445,-2.6426,-2.6582,-2.5977,-2.5879,-2.6055,-2.582,0.0,0.0,-2.5742,-2.7441,-3.0137,-3.3086,-3.584,-3.8418,-4.0625,-4.1621,-4.2129,-4.293,-4.3144,-4.3418,-4.459,-4.4961,-4.5215,-4.5996,-4.6562,-4.6348,-4.4101,-4.3652,-4.2461,-3.8125,-3.6641,-3.5586,-3.3789,-3.5293,-3.75,-3.9609,-4.2187,-4.4805,-4.7305,-4.7715,-4.834,-4.9883,-5.0137,-5.0488,-5.125,-5.1719,-5.2148,-5.2558,-5.293,-5.3164,-5.3242,-5.332,-5.3535,-5.3906,-5.3984,-5.4238,-5.4668,-5.5019,-5.5449,-5.5937,-5.6015,-5.6601,-5.7637,-5.7265,-5.7734,-5.8828,-5.8828,-5.8945,-5.9062,-5.914,-5.918,-5.918,-5.918,-5.918,-5.918,-5.918,-5.918,-5.918,0.0,0.0,0.0,0.0,0.0,0.0,0.0,-2.0062,-2.0263,-2.0263,-2.0489,-2.0665,-2.0718,-2.1167,-2.1744,0.0,0.0,0.0,0.0,0.0,0.0,0.0,0.0,0.0,0.0,-2.7582,-2.7946,-2.8431,0.0,-2.9011,-2.9189,-2.8487,-2.7922,-2.732,-2.6321,-2.5605,-2.5039,-2.5039,-2.5039,-2.5078,-2.5293,-2.5391,-2.541,0.0,0.0,0.0,-2.5742,-2.7383,-2.9824,-3.1484,-3.4805,-3.8769,-4.1816,-4.2754,-4.2871,-4.3516,-4.3711,-4.3848,-4.4512,-4.4707,-4.4902,-4.5762,-4.6289,-4.5683,-4.2168,-4.1543,-4.0312,-3.5351,-3.416,-3.3691,-3.2656,-3.459,-3.6836,-3.8281,-4.1816,-4.498,-4.666,-4.7851,-4.9043,-5.0351,-5.0312,-5.0508,-5.1348,-5.1836,-5.2266,-5.2676,-5.3105,-5.3457,-5.3691,-5.3711,-5.3808,-5.4023,-5.4258,-5.457,-5.5,-5.543,-5.584,-5.6269,-5.6719,-5.7148,-5.7539,-5.7793,-5.8242,-5.8828,-5.8828,-5.8945,-5.918,-5.918,-5.918,-5.918,-5.918,-5.918,-5.918,-5.918,-5.918,-5.918,0.0,0.0,0.0,0.0,0.0,0.0,0.0,-2.0363,-2.0769,-2.0894,-2.1317,-2.1493,-2.1066,-2.1794,-2.2372,0.0,0.0,0.0,0.0,0.0,0.0,0.0,0.0,0.0,0.0,0.0,0.0,-2.8574,-2.9023,0.0,0.0,0.0,0.0,0.0,-2.6665,-2.5583,-2.4782,-2.4506,-2.4414,0.0,0.0,-2.4922,0.0,0.0,0.0,0.0,0.0,-2.7031,-2.8906,-2.998,-3.2988,-3.6914,-4.0566,-4.1797,-4.2031,-4.2793,-4.3027,-4.3223,-4.4141,-4.4473,-4.4726,-4.5488,-4.6055,-4.5156,-4.0312,-3.9492,-3.8281,-3.3086,-3.1953,-3.1934,-3.2012,-3.4043,-3.5918,-3.6562,-4.043,-4.3906,-4.5469,-4.7031,-4.873,-5.0586,-5.043,-5.0508,-5.1348,-5.1914,-5.2363,-5.2695,-5.3203,-5.3652,-5.4004,-5.4121,-5.418,-5.418,-5.459,-5.5058,-5.5566,-5.582,-5.625,-5.6875,-5.7441,-5.7637,-5.7519,-5.8203,-5.8594,-5.8652,-5.8652,-5.8887,-5.918,-5.918,-5.918,-5.918,-5.918,-5.918,-5.918,-5.918,-5.918,-5.918,0.0,0.0,0.0,0.0,0.0,0.0,0.0,-2.0693,-2.084,-2.1343,-2.1895,-2.2221,-2.2171,-2.2246,-2.2523,0.0,0.0,0.0,0.0,0.0,0.0,0.0,0.0,0.0,0.0,0.0,0.0,-2.7444,-2.7527,0.0,0.0,0.0,0.0,0.0,0.0,-2.6034,-2.5854,-2.4874,0.0,0.0,0.0,0.0,0.0,0.0,0.0,0.0,0.0,-2.5879,-2.6582,-2.9766,-3.0859,-3.1641,-3.5918,-3.8574,-4.0215,-4.0684,-4.082,-4.1348,-4.375,-4.4687,-4.5078,-4.5566,-4.6289,-4.5527,-4.0371,-3.9238,-3.7812,-3.2637,-3.1269,-3.1133,-3.1504,-3.2129,-3.3476,-3.623,-3.7422,-3.9805,-4.4961,-4.5508,-4.6719,-5.0371,-5.043,-5.0508,-5.1348,-5.2168,-5.2676,-5.2695,-5.3496,-5.3984,-5.4023,-5.4414,-5.4629,-5.4629,-5.5019,-5.5644,-5.6465,-5.6113,-5.6543,-5.7734,-5.7422,-5.7676,-5.8418,-5.8476,-5.8769,-5.9121,-5.9121,-5.9121,-5.918,-5.918,-5.918,-5.918,-5.918,-5.918,-5.918,-5.918,-5.918,-5.918,0.0,0.0,0.0,0.0,0.0,0.0,-2.0643,-2.0941,-2.1368,-2.192,-2.2472,-2.2799,-2.2799,-2.2799,-2.2899,-2.3065,0.0,0.0,0.0,0.0,0.0,0.0,0.0,0.0,0.0,0.0,-2.6494,-2.7293,-2.7656,0.0,0.0,0.0,0.0,0.0,0.0,-2.5614,-2.4344,-2.4588,0.0,0.0,0.0,0.0,0.0,0.0,0.0,0.0,0.0,0.0,-2.5996,-2.7637,-2.9082,-3.0371,-3.1328,-3.3476,-3.6269,-3.9551,-4.0703,-4.1426,-4.3769,-4.4707,-4.5137,-4.5566,-4.4746,-4.2891,-3.9258,-3.7226,-3.5019,-3.1133,-3.0215,-3.0215,-3.0644,-3.1094,-3.1953,-3.3672,-3.5625,-3.7969,-4.0976,-4.3945,-4.6562,-4.8613,-5.0098,-5.1172,-5.1758,-5.2363,-5.293,-5.3457,-5.3828,-5.4141,-5.4414,-5.459,-5.4922,-5.543,-5.5859,-5.625,-5.6582,-5.6933,-5.7226,-5.748,-5.7851,-5.8183,-5.8535,-5.8828,-5.9004,-5.918,-5.918,-5.918,-5.918,-5.918,-5.918,-5.918,-5.918,-5.918,-5.918,-5.918,-5.918,-5.918,0.0,0.0,0.0,0.0,0.0,-2.0238,-2.0869,-2.1368,-2.192,-2.2498,-2.2899,-2.3065,-2.3065,-2.3065,-2.3065,-2.3065,-2.3065,0.0,0.0,0.0,0.0,0.0,0.0,0.0,0.0,0.0,-2.6741,-2.7293,-2.7846,-2.8373,0.0,0.0,-2.7683,-2.6953,0.0,0.0,0.0,0.0,0.0,0.0,0.0,0.0,0.0,0.0,0.0,0.0,0.0,0.0,0.0,0.0,0.0,-2.8984,-2.8457,-2.9746,-3.2383,-3.7051,-3.9277,-4.0684,-4.2851,-4.4316,-4.5293,-4.5605,-4.3711,-4.1113,-3.8516,-3.582,-3.3066,-3.0156,-2.957,-2.9707,-3.0117,-3.0586,-3.1172,-3.2031,-3.4062,-3.623,-3.8281,-4.1601,-4.4512,-4.6406,-4.8105,-4.9668,-5.0996,-5.2207,-5.3223,-5.3965,-5.4141,-5.4414,-5.4844,-5.5098,-5.5508,-5.6113,-5.668,-5.7031,-5.7168,-5.7637,-5.7793,-5.7617,-5.8242,-5.8535,-5.8535,-5.9004,-5.918,-5.918,-5.918,-5.918,-5.918,-5.918,-5.918,-5.918,-5.918,-5.918,-5.918,-5.918,-5.918,-5.918,0.0,0.0,0.0,0.0,0.0,0.0,-2.1393,-2.1945,-2.2498,-2.299,-2.3065,-2.3065,-2.3065,-2.3065,-2.3065,-2.3065,-2.3065,0.0,0.0,0.0,0.0,0.0,0.0,0.0,0.0,0.0,-2.6741,-2.7293,-2.7846,-2.8373,-2.8875,-2.8343,-2.8084,-2.8004,0.0,0.0,0.0,0.0,0.0,0.0,0.0,0.0,0.0,0.0,0.0,0.0,0.0,0.0,0.0,0.0,0.0,0.0,0.0,-2.832,-2.9023,-3.248,-3.5605,-3.8437,-4.0625,-4.3398,-4.5664,-4.5683,-4.3711,-4.1113,-3.8516,-3.5586,-3.2695,-3.0098,-2.957,-2.9707,-3.0117,-3.0586,-3.1172,-3.2031,-3.2539,-3.418,-3.8027,-3.8242,-3.959,-4.3887,-4.4043,-4.5137,-4.8555,-5.1601,-5.3535,-5.4004,-5.4433,-5.4863,-5.5273,-5.6094,-5.6562,-5.6582,-5.7402,-5.8086,-5.8535,-5.8086,-5.8086,-5.8535,-5.8535,-5.8535,-5.8535,-5.9004,-5.918,-5.918,-5.918,-5.918,-5.918,-5.918,-5.918,-5.918,-5.918,-5.918,-5.918,-5.918,-5.918,-5.918,0.0,0.0,0.0,0.0,0.0,0.0,0.0,-2.197,-2.2498,-2.299,-2.3065,-2.3065,-2.3065,-2.3065,-2.3065,-2.3065,-2.3065,0.0,0.0,0.0,0.0,0.0,0.0,0.0,0.0,-2.6264,-2.7118,-2.7293,-2.8222,-2.875,-2.8875,-2.8343,-2.7683,-2.6953,-2.6295,-2.5546,0.0,0.0,0.0,0.0,0.0,0.0,0.0,0.0,0.0,0.0,0.0,0.0,0.0,0.0,0.0,0.0,0.0,0.0,0.0,-2.959,-3.2461,-3.5703,-3.7578,-3.9219,-4.0312,-4.0019,-3.7988,-3.5781,-3.4668,-3.2305,-3.0039,-2.8926,-2.8691,-2.8926,-2.9629,-2.9883,-3.0469,-3.1934,-3.2285,-3.3203,-3.5586,-3.8848,-4.1719,-4.3672,-4.7422,-5.0293,-5.1387,-5.291,-5.3887,-5.4023,-5.4433,-5.4863,-5.5293,-5.6387,-5.7148,-5.7441,-5.7715,-5.8086,-5.8535,-5.8086,-5.8086,-5.8535,-5.8535,-5.8711,-5.9004,-5.9121,-5.918,-5.918,-5.918,-5.918,-5.918,-5.918,-5.918,-5.918,-5.918,-5.918,-5.918,-5.918,-5.918,-5.918,0.0,0.0,0.0,0.0,0.0,0.0,0.0,-2.197,-2.2498,-2.299,-2.3065,-2.3065,-2.3065,-2.3065,-2.3065,-2.3065,-2.3065,0.0,0.0,0.0,0.0,0.0,0.0,0.0,-2.5435,-2.664,-2.7595,-2.8222,-2.8925,-2.9453,-2.9854,-2.9124,-2.8104,-2.7021,-2.6598,-2.5894,0.0,0.0,0.0,0.0,0.0,0.0,-2.4199,0.0,0.0,0.0,0.0,0.0,0.0,0.0,0.0,0.0,0.0,0.0,0.0,0.0,-2.9883,-3.2422,-3.4805,-3.6543,-3.7617,-3.7363,-3.5215,-3.3105,-3.2851,-3.0664,-2.8613,-2.834,-2.8418,-2.875,-2.9434,-2.9844,-3.0527,-3.1934,-3.2305,-3.3223,-3.5586,-3.8691,-4.1465,-4.3457,-4.832,-5.1504,-5.1504,-5.3047,-5.4101,-5.4258,-5.4668,-5.5098,-5.5527,-5.6758,-5.7578,-5.7851,-5.8203,-5.8496,-5.8769,-5.8496,-5.8496,-5.8769,-5.8769,-5.8945,-5.918,-5.918,-5.918,-5.918,-5.918,-5.918,0.0,-5.918,-5.918,-5.918,-5.918,-5.918,-5.918,-5.918,-5.918,-5.918,0.0,0.0,0.0,0.0,0.0,0.0,0.0,-2.192,-2.2498,-2.294,-2.304,-2.3065,-2.3065,-2.3065,-2.3065,-2.3065,0.0,0.0,0.0,0.0,0.0,0.0,0.0,0.0,-2.6508,-2.7118,-2.8222,-2.9804,-2.988,-3.0407,-3.1386,-3.0288,-2.9145,-2.8004,-2.6797,-2.592,0.0,0.0,0.0,0.0,-2.2768,-2.2695,0.0,0.0,0.0,0.0,0.0,0.0,0.0,0.0,0.0,0.0,0.0,0.0,0.0,0.0,0.0,0.0,0.0,-3.4824,-3.6699,-3.666,-3.4551,-3.248,-3.248,-3.0332,0.0,-2.834,-2.8672,-2.9101,-2.9531,-3.0312,-3.1172,-3.2031,-3.2519,-3.4004,-3.748,-3.834,-3.9961,-4.3594,-4.7422,-4.9707,-4.959,-5.2285,-5.4219,-5.4648,-5.5058,-5.5488,-5.5918,-5.7168,-5.7871,-5.7871,-5.8672,-5.914,-5.918,-5.914,-5.914,-5.918,-5.918,-5.918,-5.918,-5.918,-5.918,-5.918,-5.918,-5.918,-5.918,-5.918,-5.918,-5.918,-5.918,-5.918,-5.918,-5.918,-5.918,-5.918,0.0,0.0,0.0,0.0,0.0,0.0,0.0,0.0,0.0,0.0,-2.2874,-2.3065,-2.3065,-2.3065,-2.3065,0.0,0.0,0.0,0.0,0.0,0.0,0.0,0.0,0.0,-2.6508,-2.8247,-2.9402,-2.9804,-3.0608,-3.1135,-3.1386,-3.0181,-2.9508,-2.9253,-2.7062,-2.5853,0.0,0.0,0.0,0.0,-2.3322,-2.3223,0.0,0.0,0.0,0.0,-2.5586,-2.5742,0.0,0.0,0.0,0.0,0.0,0.0,0.0,0.0,-2.7226,-2.7988,-2.8809,0.0,-3.0801,-3.0488,-2.9883,-2.9355,0.0,-2.9043,-2.8769,-2.8769,-2.9121,-2.9551,-2.998,-3.0508,-3.1172,-3.2031,-3.2519,-3.4121,-3.7891,-4.2402,-4.5762,-4.6992,-5.0,-5.1445,-5.0156,-5.2461,-5.4219,-5.4648,-5.5058,-5.5488,-5.5918,-5.7168,-5.7871,-5.7871,-5.8379,-5.8828,-5.918,-5.8828,-5.8828,-5.918,-5.918,-5.918,-5.918,-5.918,-5.918,-5.918,-5.918,-5.918,-5.918,-5.918,-5.918,-5.918,-5.918,-5.918,-5.918,-5.918,-5.918,-5.918,0.0,0.0,0.0,0.0,0.0,0.0,0.0,0.0,0.0,0.0,0.0,-2.2849,-2.304,-2.3065,0.0,0.0,0.0,0.0,0.0,0.0,0.0,0.0,0.0,-2.649,-2.757,-2.9051,-3.0156,-3.0909,-3.1486,-3.1913,-3.2164,-3.1551,-3.093,-3.0367,-2.7965,-2.7086,0.0,0.0,0.0,-2.5419,-2.3928,0.0,0.0,0.0,0.0,0.0,-2.5273,-2.5566,0.0,-2.5742,-2.5742,-2.5742,0.0,0.0,0.0,0.0,-2.6719,-2.7168,-2.7559,-2.8144,-2.8574,-2.834,-2.8301,-2.834,-2.8535,-2.875,-2.8984,-2.918,-2.9726,-3.0254,-3.0469,-3.2168,-3.3301,-3.2578,-3.498,-3.7793,-4.0293,-4.3613,-4.6406,-4.8008,-5.0,-5.1348,-5.1621,-5.3086,-5.4297,-5.4922,-5.5176,-5.5586,-5.6211,-5.707,-5.7656,-5.7851,-5.8086,-5.8437,-5.8887,-5.8437,-5.8437,-5.8887,-5.8887,-5.9004,-5.918,-5.918,-5.918,-5.918,-5.918,-5.918,-5.918,-5.918,-5.918,-5.918,-5.918,-5.918,-5.918,-5.918,-5.918,-5.918,0.0,0.0,0.0,0.0,0.0,0.0,0.0,0.0,0.0,0.0,0.0,0.0,0.0,0.0,0.0,0.0,0.0,0.0,0.0,0.0,0.0,0.0,-2.6038,-2.7369,-2.9026,-2.9704,-3.0758,-3.2215,-3.229,-3.2591,-3.3068,-3.2896,-3.2064,-3.0551,-2.8632,-2.8355,-2.9113,0.0,-2.5547,-2.6333,-2.4275,0.0,0.0,0.0,0.0,0.0,0.0,0.0,0.0,-2.5742,-2.5742,-2.5742,-2.5742,0.0,0.0,0.0,0.0,0.0,-2.7363,-2.8301,-2.8945,-2.8418,-2.834,-2.8476,-2.8848,-2.9023,-2.9238,-2.9687,-3.041,-3.1133,-3.1582,-3.4082,-3.5508,-3.3769,-3.832,-4.2461,-4.3516,-4.4433,-4.584,-4.8144,-4.9355,-5.0801,-5.2773,-5.3672,-5.4453,-5.5254,-5.5371,-5.5781,-5.664,-5.709,-5.7519,-5.7969,-5.7969,-5.8144,-5.8535,-5.8144,-5.8144,-5.8535,-5.8594,-5.8828,-5.918,-5.918,-5.918,-5.918,-5.918,-5.918,-5.918,-5.918,-5.918,-5.918,-5.918,-5.918,-5.918,-5.918,-5.918,-5.918,0.0,0.0,0.0,0.0,0.0,0.0,0.0,0.0,0.0,0.0,0.0,0.0,0.0,0.0,0.0,0.0,0.0,0.0,0.0,0.0,0.0,-2.6163,-2.6816,-2.7946,-2.9628,-3.0633,-3.1486,-3.2215,-3.2692,-3.2993,-3.3068,-3.1977,-3.0328,-2.8121,-2.7381,-2.7431,-2.7872,-2.513,-2.4953,-2.6295,-2.4067,0.0,0.0,0.0,0.0,0.0,0.0,0.0,0.0,-2.5742,-2.5742,-2.5742,-2.5742,0.0,0.0,0.0,0.0,0.0,-2.709,-2.9824,-3.1934,-2.9023,-2.8555,-2.8848,-2.8906,-2.9473,-3.0137,-3.0586,-3.1074,-3.2207,-3.4766,-3.4219,-3.4101,-3.625,-4.043,-4.4101,-4.6055,-4.8906,-5.043,-4.9433,-5.1035,-5.1953,-5.1269,-5.3242,-5.4785,-5.5273,-5.5644,-5.6211,-5.707,-5.7519,-5.7969,-5.8418,-5.8418,-5.8476,-5.8535,-5.8476,-5.8476,-5.8535,-5.8887,-5.9121,-5.918,-5.918,-5.918,-5.918,-5.918,-5.918,-5.918,-5.918,-5.918,-5.918,-5.918,-5.918,-5.918,-5.918,-5.918,-5.918,0.0,0.0,0.0,0.0,0.0,0.0,0.0,0.0,0.0,0.0,0.0,0.0,0.0,0.0,0.0,0.0,0.0,0.0,0.0,0.0,-2.4878,-2.6841,-2.7261,-2.8272,-3.0206,-3.1286,-3.2114,-3.2692,-3.2943,-3.3068,-3.3068,-3.1777,-3.0214,-2.8566,-2.8087,-2.7876,-2.772,-2.6302,-2.5658,-2.5462,0.0,0.0,0.0,0.0,0.0,0.0,0.0,0.0,0.0,0.0,-2.5742,-2.5742,-2.5742,0.0,0.0,0.0,0.0,0.0,-2.6953,-2.8789,-3.0664,-3.0703,-3.2266,-3.3848,-3.4082,-3.4434,-3.4531,-3.3809,-3.4004,-3.4726,-3.6113,-3.707,-3.918,-4.3848,-4.4101,-4.4629,-4.7246,-4.8203,-4.8848,-4.9453,-5.0605,-5.166,-5.2461,-5.3848,-5.4863,-5.5273,-5.5703,-5.6211,-5.6836,-5.7285,-5.7617,-5.7793,-5.8027,-5.8183,-5.8183,-5.8418,-5.8535,-5.8535,-5.8711,-5.8945,-5.918,-5.918,-5.918,-5.918,-5.918,-5.918,-5.918,-5.918,-5.918,-5.918,-5.918,-5.918,-5.918,-5.918,-5.918,-5.918,0.0,0.0,0.0,0.0,0.0,0.0,0.0,0.0,0.0,0.0,0.0,0.0,0.0,0.0,0.0,0.0,0.0,0.0,0.0,-2.3823,-2.4822,-2.7394,-2.7826,-2.8905,-3.0783,-3.1738,-3.2491,-3.3068,-3.3068,-3.2982,-3.2612,-3.1045,-2.9852,-2.8936,-2.8309,-2.785,-2.7547,-2.6889,-2.598,-2.4955,0.0,0.0,0.0,0.0,0.0,0.0,0.0,0.0,0.0,0.0,0.0,0.0,0.0,0.0,0.0,-2.5859,-2.6191,-2.6641,-2.7168,-2.8457,-3.0215,-3.2637,-3.4766,-3.668,-3.8223,-3.8262,-3.7812,-3.7207,-3.7344,-3.7637,-3.7832,-4.0195,-4.3652,-4.8379,-4.668,-4.5781,-4.8711,-4.8086,-4.8047,-5.0039,-5.0664,-5.1738,-5.3828,-5.4512,-5.4961,-5.5293,-5.5781,-5.6308,-5.6855,-5.7187,-5.7461,-5.7656,-5.7988,-5.8164,-5.8164,-5.8496,-5.8652,-5.8535,-5.8652,-5.8887,-5.918,-5.918,-5.918,-5.918,-5.918,-5.918,-5.918,-5.918,-5.918,-5.918,-5.918,-5.918,-5.918,-5.918,-5.918,-5.918,0.0,0.0,0.0,0.0,0.0,0.0,0.0,0.0,0.0,0.0,0.0,0.0,0.0,0.0,0.0,0.0,0.0,0.0,0.0,-2.4718,-2.572,-2.7946,-2.905,-3.0152,-3.1311,-3.1913,-3.2491,-3.3068,-3.3068,-3.2525,-3.1311,-2.8958,-2.7767,-2.7673,-2.6436,-2.6269,-2.671,-2.5269,-2.4916,-2.5242,-2.3807,0.0,0.0,0.0,0.0,0.0,0.0,0.0,0.0,0.0,0.0,0.0,0.0,0.0,-2.582,-2.623,-2.6641,-2.7148,-2.7988,-3.0879,-3.3809,-3.4414,-3.2969,-3.2656,-3.748,-3.7344,-3.6973,-3.9648,-4.0215,-4.0488,-4.1289,-4.2285,-4.3262,-4.4082,-4.6269,-4.8808,-5.1426,-5.2031,-5.2266,-5.2461,-5.2871,-5.3359,-5.3965,-5.4785,-5.5273,-5.5312,-5.6074,-5.6894,-5.7734,-5.7793,-5.8203,-5.9004,-5.9062,-5.9082,-5.9082,-5.9121,-5.8945,-5.8535,-5.8945,-5.914,-5.918,-5.918,-5.918,-5.918,-5.918,-5.918,-5.918,-5.918,-5.918,-5.918,-5.918,-5.918,-5.918,-5.918,-5.918,-5.918,0.0,0.0,0.0,0.0,0.0,0.0,0.0,0.0,0.0,0.0,0.0,0.0,0.0,0.0,0.0,0.0,0.0,0.0,0.0,-2.3845,-2.4856,-2.7065,-2.8285,-2.9677,-3.1361,-3.229,-3.2475,-3.1952,-3.1134,-3.0598,-3.0033,-2.9143,-2.7861,-2.6476,-2.7484,-2.7118,-2.5698,-2.5889,-2.531,-2.4375,-2.3772,-2.3379,0.0,0.0,0.0,0.0,0.0,0.0,0.0,0.0,-2.5312,-2.5371,-2.5644,-2.5742,-2.582,-2.625,-2.668,-2.7207,-2.8066,-3.0918,-3.3828,-3.4531,-3.4394,-3.5508,-4.0957,-4.1465,-4.0898,-4.125,-4.2187,-4.2871,-4.2637,-4.5273,-4.7285,-4.6621,-4.8808,-5.0957,-5.1953,-5.2676,-5.3105,-5.3105,-5.3496,-5.3945,-5.4394,-5.4961,-5.541,-5.5683,-5.625,-5.6836,-5.7422,-5.7715,-5.8027,-5.8379,-5.8906,-5.9062,-5.8769,-5.8769,-5.8828,-5.8945,-5.9121,-5.918,-5.918,-5.918,-5.918,-5.918,-5.918,-5.918,-5.918,-5.918,-5.918,-5.918,-5.918,-5.918,-5.918,-5.918,-5.918,-5.918,0.0,0.0,0.0,0.0,0.0,0.0,0.0,0.0,0.0,0.0,0.0,0.0,0.0,0.0,0.0,0.0,0.0,0.0,-2.2817,-2.3461,-2.4683,-2.6518,-2.7615,-2.9253,-3.1361,-3.1613,-3.152,-3.1223,-2.9579,-2.8866,-2.8866,-2.8402,-2.7295,-2.5742,-2.7484,-2.7128,-2.5369,-2.604,-2.5462,-2.3984,-2.3848,-2.3535,0.0,0.0,0.0,0.0,0.0,0.0,0.0,0.0,-2.5059,-2.5137,-2.5605,-2.5742,-2.5859,-2.6426,-2.7363,-2.8476,-2.9609,-3.1738,-3.4062,-3.5879,-3.6172,-3.75,-4.3125,-4.3516,-4.291,-4.3672,-4.4668,-4.5137,-4.4258,-4.7207,-4.9414,-4.8379,-5.0391,-5.2129,-5.2266,-5.291,-5.3359,-5.3359,-5.375,-5.4199,-5.4629,-5.5058,-5.5488,-5.5898,-5.6328,-5.6836,-5.7383,-5.7695,-5.7988,-5.8262,-5.8848,-5.8945,-5.8535,-5.8652,-5.8828,-5.9004,-5.9121,-5.918,-5.918,-5.918,-5.918,-5.918,-5.918,-5.918,-5.918,-5.918,-5.918,-5.918,-5.918,-5.918,-5.918,-5.918,-5.918,-5.918,0.0,0.0,0.0,0.0,0.0,0.0,0.0,0.0,0.0,0.0,0.0,0.0,0.0,0.0,0.0,0.0,0.0,0.0,-2.1933,-2.3839,-2.5444,-2.6542,-2.7513,-2.9149,-3.1279,-2.9659,-2.9553,-3.1223,-2.8773,-2.76,-2.76,-2.6284,-2.5742,-2.5742,-2.5742,-2.5742,-2.5703,-2.5254,-2.4824,-2.4375,-2.3965,-2.3535,-2.3144,0.0,0.0,0.0,0.0,0.0,0.0,0.0,-2.5059,-2.5137,-2.5586,-2.5742,-2.5898,-2.6758,-2.8828,-3.123,-3.293,-3.375,-3.5039,-3.8906,-3.7969,-3.7559,-4.3125,-4.2402,-4.2012,-4.7148,-4.7871,-4.7305,-4.6465,-4.7715,-4.873,-4.8281,-5.0391,-5.2226,-5.2656,-5.3086,-5.3359,-5.3359,-5.3769,-5.4199,-5.4648,-5.5058,-5.5488,-5.5918,-5.6348,-5.6953,-5.7812,-5.7871,-5.8262,-5.914,-5.918,-5.8945,-5.8535,-5.8945,-5.8945,-5.8535,-5.8945,-5.918,-5.918,-5.918,-5.918,-5.918,-5.918,-5.918,-5.918,-5.918,-5.918,-5.918,-5.918,-5.918,-5.918,-5.918,-5.918,-5.918,0.0,0.0,0.0,0.0,0.0,0.0,0.0,0.0,0.0,0.0,0.0,0.0,0.0,0.0,0.0,0.0,0.0,0.0,-2.0983,-2.3143,-2.4418,-2.4447,-2.6456,-2.7962,-2.8928,-2.8318,-2.8642,-2.9943,-2.7484,-2.6764,-2.76,-2.722,-2.6572,-2.5742,-2.6668,-2.6572,-2.5723,-2.5605,-2.5098,-2.4414,-2.4277,-2.3789,-2.3144,0.0,0.0,0.0,0.0,0.0,0.0,0.0,0.0,0.0,-2.5137,-2.5488,-2.5898,-2.6758,-2.7559,-2.8535,-3.0254,-3.3691,-3.6836,-3.7109,-3.9316,-4.1855,-4.3535,-4.3574,-4.4277,-4.791,-4.7598,-4.6699,-4.6738,-4.8652,-4.9883,-4.8867,-5.0605,-5.2344,-5.3066,-5.3281,-5.3476,-5.3789,-5.4219,-5.4648,-5.5078,-5.5508,-5.5937,-5.6367,-5.6777,-5.7265,-5.7812,-5.8144,-5.8476,-5.8711,-5.8711,-5.8496,-5.8086,-5.8203,-5.8359,-5.8535,-5.8652,-5.8887,-5.918,-5.918,-5.918,-5.918,-5.918,-5.918,-5.918,-5.918,-5.918,-5.918,-5.918,-5.918,-5.918,-5.918,-5.918,-5.918,0.0,0.0,0.0,0.0,0.0,0.0,0.0,0.0,0.0,0.0,-1.8462,-1.8777,0.0,0.0,0.0,0.0,0.0,0.0,-2.0012,-2.2199,-2.335,-2.3266,-2.5024,-2.614,-2.6232,-2.6915,-2.7492,-2.7657,-2.6376,-2.611,-2.686,-2.686,-2.6476,-2.5742,-2.6476,-2.638,-2.5742,-2.5742,-2.5234,-2.4414,-2.4414,-2.3906,-2.3144,0.0,0.0,0.0,0.0,0.0,0.0,0.0,0.0,0.0,-2.4922,-2.5371,-2.6152,-2.8203,-2.8691,-2.9414,-3.3359,-3.6269,-3.8535,-4.0,-4.2051,-4.4023,-4.5215,-4.5586,-4.6269,-4.8418,-4.8574,-4.8359,-4.8457,-5.0312,-5.1465,-5.0351,-5.1523,-5.2773,-5.3281,-5.3516,-5.373,-5.4004,-5.4414,-5.4844,-5.5273,-5.5683,-5.6113,-5.6543,-5.6973,-5.7402,-5.7851,-5.8144,-5.8359,-5.8535,-5.8359,-5.8144,-5.7871,-5.8027,-5.8262,-5.8535,-5.8711,-5.8945,-5.918,-5.918,-5.918,-5.918,-5.918,-5.918,-5.918,-5.918,-5.918,-5.918,-5.918,-5.918,-5.918,-5.918,-5.918,-5.918,0.0,0.0,0.0,0.0,0.0,0.0,0.0,0.0,0.0,-1.8008,-1.8008,-1.8008,0.0,0.0,0.0,-1.8008,-1.8398,-1.8828,-1.9258,-2.1069,-2.2282,-2.273,-2.3594,-2.4006,-2.3711,-2.5676,-2.6166,-2.5059,-2.5527,-2.5742,-2.5742,-2.5742,-2.5742,-2.5742,-2.5742,-2.5742,-2.5742,-2.5742,-2.5254,-2.4473,-2.4434,-2.3926,-2.3184,-2.3164,0.0,0.0,0.0,0.0,0.0,0.0,0.0,0.0,-2.4883,-2.5352,-2.6445,-3.0059,-3.1035,-3.2422,-3.9199,-4.0039,-4.0215,-4.5312,-4.5312,-4.4785,-4.7519,-4.791,-4.7949,-4.8808,-5.0234,-5.1211,-5.0859,-5.2148,-5.3008,-5.2266,-5.2832,-5.3379,-5.3418,-5.3769,-5.4043,-5.4082,-5.4473,-5.4902,-5.5332,-5.5742,-5.6152,-5.6562,-5.6973,-5.7402,-5.7851,-5.7871,-5.8027,-5.8476,-5.8086,-5.7851,-5.7812,-5.8301,-5.8535,-5.8535,-5.8965,-5.918,-5.918,-5.918,-5.918,-5.918,-5.918,-5.918,-5.918,-5.918,-5.918,-5.918,-5.918,-5.918,-5.918,-5.918,-5.918,-5.918,0.0,0.0,0.0,0.0,0.0,0.0,0.0,0.0,-1.8008,-1.8008,-1.8008,-1.8008,-1.8008,-1.8008,0.0,-1.8008,-1.8398,-1.8828,-1.9258,-2.0708,-2.159,-2.1571,-2.2681,-2.3327,-2.3281,-2.473,-2.5342,-2.5059,-2.5527,-2.5742,-2.5742,-2.5742,-2.5742,-2.5742,-2.5742,-2.5742,-2.5742,-2.5742,-2.543,-2.4902,-2.4551,-2.4102,-2.3613,-2.3262,-2.3144,0.0,0.0,0.0,0.0,0.0,0.0,0.0,-2.4531,-2.5098,-2.6035,-2.7539,-2.959,-3.1953,-3.4531,-3.8594,-4.2402,-4.3613,-4.5332,-4.6914,-4.7558,-4.8164,-4.8828,-4.9707,-5.0195,-5.0527,-5.0762,-5.166,-5.2402,-5.2558,-5.3027,-5.3476,-5.3828,-5.3965,-5.416,-5.4492,-5.4922,-5.5332,-5.5762,-5.6191,-5.6484,-5.6582,-5.6973,-5.7402,-5.7851,-5.7871,-5.791,-5.8027,-5.791,-5.7695,-5.7344,-5.8125,-5.8535,-5.8535,-5.8965,-5.918,-5.918,-5.918,-5.918,-5.918,-5.918,-5.918,-5.918,-5.918,-5.918,-5.918,-5.918,-5.918,-5.918,-5.918,-5.918,-5.918,0.0,0.0,0.0,0.0,0.0,0.0,0.0,0.0,-1.8008,-1.8008,-1.8008,-1.8008,-1.8008,-1.8008,0.0,0.0,-1.8203,-1.8613,-1.9238,-1.9985,-2.0607,-2.1191,-2.1875,-2.2422,-2.2832,-2.3691,-2.4355,-2.4746,-2.5195,-2.5527,-2.5742,-2.5742,-2.5742,-2.5742,-2.5742,-2.5742,-2.5742,-2.5742,-2.5488,-2.5059,-2.4824,-2.4473,-2.4062,-2.3848,-2.375,-2.375,-2.375,0.0,0.0,0.0,0.0,0.0,0.0,0.0,-2.6152,-2.8242,-2.9101,-3.0547,-3.5957,-3.8984,-4.1308,-4.4199,-4.6113,-4.7324,-4.7539,-4.793,-4.8613,-4.9922,-5.0332,-5.0664,-5.1308,-5.1953,-5.2519,-5.2949,-5.3398,-5.3769,-5.4004,-5.4023,-5.418,-5.4629,-5.5058,-5.5469,-5.5898,-5.6328,-5.6582,-5.6582,-5.6973,-5.7402,-5.7851,-5.7676,-5.7734,-5.8183,-5.7793,-5.7637,-5.7851,-5.8301,-5.8652,-5.8828,-5.9062,-5.918,-5.918,-5.918,-5.918,-5.918,-5.918,-5.918,-5.918,-5.918,-5.918,-5.918,-5.918,-5.918,-5.918,-5.918,-5.918,-5.918,0.0,0.0,0.0,0.0,0.0,0.0,0.0,0.0,0.0,-1.8008,-1.8008,-1.8008,-1.8008,-1.8008,-1.8008,0.0,0.0,0.0,-1.9238,-1.9434,-1.998,-2.1074,-2.1191,-2.1562,-2.2266,-2.2852,-2.3496,-2.4199,-2.4785,-2.5254,-2.5625,-2.5703,-2.5742,-2.5742,-2.5742,-2.5742,-2.5742,-2.5742,-2.5527,-2.5176,-2.5098,-2.4844,-2.4531,-2.4453,-2.4414,-2.4414,-2.4414,-2.4414,-2.4355,-2.4023,0.0,0.0,0.0,0.0,-2.6309,-2.9258,-2.9004,-2.959,-3.7891,-3.9434,-4.0039,-4.5644,-4.7051,-4.7148,-4.7598,-4.7754,-4.8262,-4.9844,-5.0449,-5.0976,-5.1914,-5.2422,-5.2851,-5.3281,-5.373,-5.4023,-5.4023,-5.4023,-5.4219,-5.4726,-5.5098,-5.5508,-5.5996,-5.6367,-5.6582,-5.6582,-5.6973,-5.7402,-5.7851,-5.7519,-5.7695,-5.8535,-5.7832,-5.7793,-5.8535,-5.8594,-5.8828,-5.918,-5.918,-5.918,-5.918,-5.918,-5.918,-5.918,-5.918,-5.918,-5.918,-5.918,-5.918,-5.918,-5.918,-5.918,-5.918,-5.918,-5.918,-5.918,0.0,0.0,0.0,0.0,0.0,0.0,0.0,0.0,0.0,0.0,-1.8008,-1.8008,-1.8008,-1.8008,-1.8008,-1.8008,-1.8008,-1.8379,-1.9238,0.0,0.0,-2.0644,-2.1035,-2.1289,-2.1406,-2.2559,-2.3203,-2.3301,-2.4492,-2.5098,-2.5176,-2.5547,-2.5742,-2.5742,-2.5742,-2.5742,-2.5742,-2.5742,-2.5703,-2.5605,-2.5215,-2.5039,-2.4941,-2.4551,-2.4414,-2.4414,-2.4414,-2.4414,-2.4414,-2.4355,-2.4668,0.0,0.0,0.0,-2.5898,-2.6738,-2.8848,-3.1289,-3.2988,-3.7559,-4.2734,-4.6543,-4.75,-4.7598,-4.8027,-4.8418,-4.8965,-4.998,-5.0215,-5.0625,-5.1855,-5.2422,-5.2851,-5.3281,-5.373,-5.4023,-5.4023,-5.4023,-5.4316,-5.5137,-5.5273,-5.5625,-5.6426,-5.6543,-5.6582,-5.6582,-5.6973,-5.7402,-5.7851,-5.7812,-5.8027,-5.8535,-5.8418,-5.8418,-5.8535,-5.8887,-5.9121,-5.918,-5.918,-5.918,-5.918,-5.918,-5.918,-5.918,-5.918,-5.918,-5.918,-5.918,-5.918,-5.918,-5.918,-5.918,-5.918,-5.918,-5.918,-5.918,0.0,0.0,0.0,0.0,0.0,0.0,0.0,0.0,0.0,0.0,0.0,-1.8008,-1.8008,-1.8008,-1.8105,-1.834,-1.8359,-1.873,-1.959,-2.0215,-2.0566,-2.0566,-2.0762,-2.0977,-2.123,-2.2031,-2.2676,-2.3144,-2.3945,-2.4473,-2.4707,-2.4902,-2.5254,-2.5742,-2.5742,-2.5742,-2.5742,-2.5742,-2.5742,-2.5723,-2.5527,-2.6465,-2.7754,-2.5879,-2.6191,-2.7441,-2.5762,-2.5156,-2.5117,-2.4863,-2.5078,-2.5391,-2.5137,0.0,0.0,0.0,-2.7266,-2.9531,-3.3594,-3.8828,-4.3808,-4.6523,-4.7578,-4.791,-4.7871,-4.8183,-4.8672,-4.9316,-4.9844,-5.0566,-5.1855,-5.2422,-5.2851,-5.3281,-5.373,-5.4023,-5.4023,-5.4023,-5.4355,-5.5195,-5.5312,-5.5644,-5.6504,-5.6582,-5.6582,-5.6582,-5.6973,-5.7402,-5.7851,-5.7871,-5.8203,-5.8887,-5.8652,-5.8652,-5.8887,-5.9062,-5.918,-5.918,-5.918,-5.918,-5.918,-5.918,-5.918,-5.918,-5.918,-5.918,-5.918,-5.918,-5.918,-5.918,-5.918,-5.918,-5.918,-5.918,-5.918,-5.918,0.0,0.0,0.0,0.0,0.0,0.0,0.0,0.0,0.0,0.0,0.0,-1.834,-1.834,0.0,0.0,0.0,-1.8809,-1.9121,-1.9863,-2.0332,-2.0566,-2.0566,-2.0566,-2.0723,-2.1055,-2.1484,-2.209,-2.2812,-2.3359,-2.3848,-2.4258,-2.4355,-2.4766,-2.541,-2.5508,-2.5625,-2.5742,-2.5742,-2.5742,-2.5801,-2.6445,-2.8066,-2.9902,-2.8301,-2.9141,-3.0781,-2.7793,-2.6777,-2.6699,-2.5605,-2.5449,-2.5684,-2.5352,-2.5469,0.0,0.0,0.0,-2.7715,-3.3867,-3.8242,-4.1875,-4.5137,-4.6504,-4.7207,-4.7773,-4.8144,-4.8535,-4.9082,-4.9883,-5.082,-5.1894,-5.2422,-5.2851,-5.3281,-5.373,-5.4023,-5.4023,-5.4023,-5.4316,-5.5058,-5.5254,-5.5605,-5.6348,-5.6523,-5.6582,-5.6582,-5.707,-5.7519,-5.7851,-5.8086,-5.8496,-5.918,-5.8887,-5.8828,-5.918,-5.918,-5.918,-5.918,-5.918,-5.918,-5.918,-5.918,-5.918,-5.918,-5.918,-5.918,-5.918,-5.918,-5.918,-5.918,-5.918,-5.918,-5.918,-5.918,-5.918,-5.918,0.0,0.0,0.0,0.0,0.0,0.0,0.0,0.0,0.0,0.0,0.0,-1.9219,-1.9219,-1.9219,-1.9238,-1.9258,-1.9258,-1.9434,-1.9883,-2.0332,-2.0566,-2.0566,-2.0566,0.0,-2.0605,-2.1035,-2.1484,-2.1953,-2.2793,-2.3418,-2.3828,-2.4238,-2.4434,-2.4512,-2.4922,-2.5332,-2.5742,-2.5742,-2.5742,-2.5957,-2.8398,-2.9473,-2.9863,-3.2148,-3.3379,-3.3476,-3.0449,-2.9629,-2.9531,-2.666,-2.5723,-2.5742,-2.5703,-2.5723,-2.5742,0.0,0.0,0.0,-3.1309,-3.3164,-3.5449,-4.1719,-4.3613,-4.4785,-4.8047,-4.8808,-4.9062,-4.9941,-5.0781,-5.1504,-5.1992,-5.2422,-5.2851,-5.3281,-5.373,-5.4023,-5.4023,-5.4023,-5.4199,-5.4648,-5.5058,-5.5488,-5.5918,-5.6348,-5.6582,-5.6582,-5.7363,-5.7851,-5.7871,-5.8672,-5.9121,-5.918,-5.918,-5.918,-5.918,-5.918,-5.918,-5.918,-5.918,-5.918,-5.918,-5.918,-5.918,-5.918,-5.918,-5.918,-5.918,-5.918,-5.918,-5.918,-5.918,-5.918,-5.918,-5.918,-5.918,-5.918,0.0,0.0,0.0,0.0,0.0,0.0,0.0,0.0,0.0,0.0,0.0,0.0,0.0,-1.9297,-1.9394,-1.9668,-1.9941,-2.0176,-2.0332,-2.0469,-2.0566,-2.0566,-2.0566,-2.0566,-2.0566,-2.0996,-2.1445,-2.1894,-2.2461,-2.2969,-2.3379,-2.3516,-2.375,-2.4043,-2.4746,-2.5156,-2.5332,-2.5605,-2.5742,-2.5957,-2.8535,-3.0898,-3.2754,-3.1738,-3.3848,-3.6758,-3.209,-3.0508,-3.043,-2.9062,-2.75,-2.6113,-2.582,-2.5742,-2.5742,-2.5742,-2.6055,-2.7168,-3.0781,-3.2578,-3.457,-3.9394,-4.2383,-4.4473,-4.5723,-4.748,-4.8945,-4.9258,-5.0019,-5.0762,-5.1191,-5.2051,-5.2754,-5.291,-5.3301,-5.3594,-5.3594,-5.3848,-5.418,-5.4629,-5.4805,-5.5176,-5.5859,-5.6074,-5.6289,-5.6562,-5.7383,-5.7871,-5.7871,-5.8711,-5.918,-5.918,-5.918,-5.918,-5.918,-5.918,-5.918,-5.918,-5.918,-5.918,-5.918,-5.918,-5.918,-5.918,-5.918,-5.918,-5.918,-5.918,-5.918,-5.918,-5.918,-5.918,-5.918,-5.918,-5.918,-5.918,0.0,0.0,0.0,0.0,0.0,0.0,0.0,0.0,-2.0156,-2.0156,0.0,0.0,0.0,0.0,-2.0215,-2.0352,-2.0625,-2.0723,-2.0586,-2.0566,-2.0566,-2.0566,-2.0566,-2.0566,-2.0566,-2.0723,-2.1074,-2.166,-2.1953,-2.2383,-2.293,-2.3066,-2.3301,-2.3613,-2.4473,-2.4922,-2.5098,-2.5547,-2.5742,-2.6055,-2.9648,-3.1934,-3.3184,-3.3203,-3.5254,-3.7637,-3.3789,-3.25,-3.2519,-3.1914,-3.0586,-2.8945,-2.7637,-2.6543,-2.5742,-2.5742,-2.5937,-2.6719,-2.9297,-3.0742,-3.2461,-3.6484,-3.9453,-4.1914,-4.3945,-4.6152,-4.8027,-4.8906,-4.9883,-5.0683,-5.0957,-5.1836,-5.25,-5.25,-5.2851,-5.3203,-5.334,-5.3613,-5.3965,-5.4414,-5.459,-5.4902,-5.5469,-5.5898,-5.6211,-5.6348,-5.7441,-5.8027,-5.7871,-5.8711,-5.918,-5.918,-5.918,-5.918,-5.918,-5.918,-5.918,-5.918,-5.918,-5.918,-5.918,-5.918,-5.918,-5.918,-5.918,-5.918,-5.918,-5.918,-5.918,-5.918,-5.918,-5.918,-5.918,-5.918,-5.918,-5.918,0.0,0.0,0.0,0.0,0.0,0.0,0.0,0.0,-2.1894,-2.1894,0.0,0.0,0.0,0.0,0.0,-2.1289,-2.125,-2.1074,-2.0625,-2.0586,-2.0586,-2.0586,-2.0566,-2.0566,-2.0566,-2.0156,-2.0371,-2.123,-2.125,-2.168,-2.2519,-2.2949,-2.3144,-2.3184,-2.4023,-2.4648,-2.5078,-2.5547,-2.5742,-2.625,-3.1836,-3.2598,-3.0996,-3.6953,-3.7988,-3.6191,-3.5703,-3.5742,-3.5918,-3.5117,-3.4707,-3.4004,-3.1055,-2.8105,-2.5762,-2.5762,-2.5742,-2.5918,0.0,0.0,0.0,-3.291,-3.4668,-3.6914,-4.2832,-4.4941,-4.6367,-4.8887,-5.0469,-5.1387,-5.1387,-5.1758,-5.2051,-5.2051,-5.2422,-5.2871,-5.3301,-5.3379,-5.3555,-5.4004,-5.4414,-5.4687,-5.4707,-5.584,-5.6406,-5.5976,-5.7539,-5.832,-5.7871,-5.8711,-5.918,-5.918,-5.918,-5.918,-5.918,-5.918,-5.918,-5.918,-5.918,-5.918,-5.918,-5.918,-5.918,-5.918,-5.918,-5.918,-5.918,-5.918,-5.918,-5.918,-5.918,-5.918,-5.918,-5.918,-5.918,-5.918,0.0,0.0,0.0,0.0,0.0,-2.1562,-2.168,-2.207,-2.2344,0.0,0.0,0.0,-2.2793,-2.2519,-2.2168,-2.1738,-2.1699,-2.166,-2.1523,-2.123,-2.1055,-2.1055,-2.0742,-2.0566,-2.0566,-2.0449,-2.0664,-2.123,-2.1543,-2.1992,-2.2519,-2.2949,-2.3144,-2.3184,-2.4023,-2.4473,-2.4648,-2.541,-2.5918,-2.6699,-3.2305,-3.4316,-3.4375,-3.8242,-4.0488,-4.1308,-3.9355,-3.7715,-3.6699,-3.8008,-3.4922,-3.0273,-2.8828,-2.7363,-2.6211,-2.6211,-2.5996,-2.5918,-2.6777,0.0,0.0,0.0,0.0,0.0,-3.8203,-4.2129,-4.5508,-4.6523,-4.8769,-5.0527,-5.0527,-5.0879,-5.1152,-5.1152,-5.2031,-5.2871,-5.3301,-5.3633,-5.4004,-5.4453,-5.4609,-5.4922,-5.5527,-5.5918,-5.6191,0.0,-5.7422,-5.7988,-5.7871,-5.8711,-5.918,-5.918,-5.918,-5.918,-5.918,-5.918,-5.918,-5.918,-5.918,-5.918,-5.918,-5.918,-5.918,-5.918,-5.918,-5.918,-5.918,-5.918,-5.918,-5.918,-5.918,-5.918,-5.918,-5.918,-5.918,-5.918,0.0,0.0,-2.1289,-2.1484,-2.1855,-2.2207,-2.2383,-2.2773,-2.3105,0.0,0.0,0.0,-2.3672,-2.3457,-2.3144,-2.2715,-2.2519,-2.2344,-2.2168,-2.1738,-2.1426,-2.125,-2.0977,-2.0762,-2.0566,-2.0391,-2.0508,-2.0957,-2.1406,-2.1836,-2.2266,-2.2852,-2.3144,-2.3184,-2.4023,-2.4414,-2.4492,-2.5547,-2.6152,-2.6894,-3.2676,-3.4512,-3.4238,-3.8535,-4.0527,-4.0976,-4.0566,-3.9844,-3.9414,-4.1582,-3.7891,-3.2266,-3.1426,-2.9199,-2.6894,-2.6699,-2.6348,-2.6191,-2.7051,-2.7344,-2.7754,-2.9277,0.0,0.0,-3.7226,-4.082,-4.4199,-4.6992,-4.9101,-5.0449,-5.0449,-5.0644,-5.0859,-5.1035,-5.1699,-5.2383,-5.3008,-5.332,-5.3711,-5.4336,-5.4414,-5.4668,-5.5351,-5.5723,-5.6035,-5.6289,-5.7285,-5.793,-5.8144,-5.8789,-5.918,-5.918,-5.918,-5.918,-5.918,-5.918,-5.918,-5.918,-5.918,-5.918,-5.918,-5.918,-5.918,-5.918,-5.918,-5.918,-5.918,-5.918,-5.918,-5.918,-5.918,-5.918,-5.918,-5.918,-5.918,-5.918,0.0,-2.1348,-2.1523,-2.1953,-2.2383,-2.2793,-2.3242,-2.3652,-2.4062,0.0,-2.4531,-2.4551,-2.4492,-2.4492,-2.4316,-2.3906,-2.3516,-2.3144,-2.2754,-2.2285,-2.1855,-2.1465,-2.1309,-2.1055,-2.0644,-2.0215,-2.0176,-2.0566,-2.1016,-2.1465,-2.1894,-2.2695,-2.3125,-2.3242,-2.4062,-2.4453,-2.457,-2.5898,-2.6621,-2.7363,-3.2891,-3.3926,0.0,0.0,-3.9629,-3.8457,-4.0781,-4.1933,-4.2617,-4.4375,-4.1797,-3.7637,-3.6289,-3.2578,-2.8535,-2.7461,-2.707,-2.707,-2.7539,-2.7383,-2.7383,-2.8613,-2.9492,0.0,-3.7539,-3.9746,-4.207,-4.75,-4.9219,-4.9726,-4.9668,-4.9746,-4.9922,-5.0293,-5.0683,-5.1328,-5.248,-5.2676,-5.3027,-5.3926,-5.4023,-5.4219,-5.4707,-5.5469,-5.5937,-5.5937,-5.709,-5.8027,-5.8535,-5.8887,-5.9121,-5.918,-5.918,-5.918,-5.918,-5.918,-5.918,-5.918,-5.918,-5.918,-5.918,-5.918,-5.918,-5.918,-5.918,-5.918,-5.918,-5.918,-5.918,-5.918,-5.918,-5.918,-5.918,-5.918,-5.918,-5.918,-2.168,-2.2031,-2.2402,-2.2832,-2.3262,-2.3691,-2.4102,-2.4531,-2.4844,-2.4922,-2.5254,-2.5332,-2.498,-2.4941,-2.4766,-2.4336,-2.4219,-2.4141,-2.4062,-2.334,-2.2871,-2.2793,-2.1797,-2.1191,-2.1113,-2.0664,-2.0488,-2.0566,-2.1016,-2.1465,-2.1894,-2.2402,-2.3008,-2.3691,-2.4199,-2.4609,-2.5019,-2.6348,-2.8105,-3.0195,-3.2422,-3.4453,-3.6562,-4.0176,-4.2363,-4.3574,-4.4101,-4.3262,-4.1777,-4.0801,-4.0898,-4.0664,-3.6328,-3.5176,-3.4453,-2.9492,-2.9219,-3.0098,-2.8184,-2.7598,-2.7754,-2.8691,-2.9043,0.0,-3.2109,-3.4648,-3.6953,-3.8476,-4.1055,-4.2949,-4.2598,-4.3086,-4.3574,-4.3672,-4.5996,-4.8828,-5.1797,-5.25,-5.3027,-5.3926,-5.4023,-5.4336,-5.5117,-5.5644,-5.5937,-5.5937,-5.6797,-5.7695,-5.8476,-5.8594,-5.8828,-5.918,-5.918,-5.918,-5.918,-5.918,-5.918,-5.918,-5.918,-5.918,-5.918,-5.918,-5.918,-5.918,-5.918,-5.918,-5.918,-5.918,-5.918,-5.918,-5.918,-5.918,-5.918,-5.918,-5.918,-5.918,-2.2109,-2.2363,-2.2715,-2.3359,-2.3652,-2.4004,-2.4648,-2.4922,-2.5234,-2.5664,-2.6113,-2.6289,-2.6055,-2.5859,-2.5644,-2.543,-2.5,-2.4746,-2.4746,-2.4141,-2.3691,-2.3477,-2.2637,-2.209,-2.1875,-2.123,-2.0996,-2.123,-2.1445,-2.1777,-2.2207,-2.2617,-2.3965,-2.5996,-2.4902,-2.5605,-2.7617,-2.7422,-2.8457,-3.0488,-3.3516,0.0,-3.9238,-4.2266,-4.4219,-4.5351,-4.5351,-4.4922,-4.4219,-4.334,-4.2207,-4.0859,-3.9101,-3.7539,-3.5664,-3.2187,-3.1797,-3.1855,-2.9043,-2.8144,-2.8086,-2.8496,-2.8769,0.0,0.0,-3.3984,-3.5937,-3.7871,-3.9824,-4.1113,-4.0879,-4.1191,-4.1484,-4.1484,-4.4375,-4.6699,-4.6914,-5.0098,-5.2637,-5.3301,-5.3379,-5.3711,-5.459,-5.4863,-5.5254,-5.5879,-5.6543,-5.7187,-5.7851,-5.8301,-5.8652,-5.8828,-5.9062,-5.918,-5.918,-5.918,-5.918,-5.918,-5.918,-5.918,-5.918,-5.918,-5.918,-5.918,-5.918,-5.918,-5.918,-5.918,-5.918,-5.918,-5.918,-5.918,-5.918,-5.918,-5.918,-5.918,-2.2629,-2.2754,-2.3027,-2.3887,-2.4043,-2.4297,-2.5078,-2.5273,-2.5605,-2.6406,-2.7168,-2.7598,-2.7519,-2.7578,-2.7598,-2.75,-2.6914,-2.6387,-2.5957,-2.5527,-2.5215,-2.5039,-2.3887,-2.334,-2.3496,-2.2168,-2.1621,-2.1894,-2.1894,-2.2109,-2.2519,-2.2949,-2.4707,-2.748,-2.6055,-2.6914,-2.9434,-2.8809,-2.9473,-3.1289,0.0,-3.8008,-3.9961,-4.2812,-4.4433,-4.5234,-4.5742,-4.6406,-4.7012,-4.668,-4.3984,-4.084,-4.1289,-3.9453,-3.666,-3.4277,-3.4043,-3.375,-3.0137,-2.8926,-2.8633,-2.8555,-2.8789,-2.9805,0.0,0.0,0.0,-3.7969,-3.8945,-3.9297,-3.9219,-3.9316,-3.9375,-3.9219,-4.2148,0.0,0.0,-4.6113,0.0,-5.0801,-5.1953,-5.2793,-5.3008,-5.3262,-5.4082,-5.5683,-5.5762,-5.6113,-5.7051,-5.791,-5.8418,-5.8535,-5.8945,-5.918,-5.918,-5.918,-5.918,-5.918,-5.918,-5.918,-5.918,-5.918,-5.918,-5.918,-5.918,-5.918,-5.918,-5.918,-5.918,-5.918,-5.918,-5.918,-5.918,-5.918,-5.918,-5.918,-2.3531,-2.3652,-2.3926,-2.4766,-2.4922,-2.5098,-2.5586,-2.5996,-2.6406,-2.6875,-2.8633,-2.9687,-2.9316,-3.0957,-3.1914,-3.1543,-3.1758,-3.1113,-2.918,-2.8652,-2.873,-2.9434,-2.5781,-2.4766,-2.7031,-2.3984,-2.2207,-2.1894,-2.1894,-2.2109,-2.2519,-2.2949,-2.3769,-2.498,-2.7754,-2.8184,-2.7031,-3.0273,-3.3281,0.0,-3.7266,-3.7285,0.0,-3.9004,-4.1328,-4.3672,-4.5957,-4.709,-4.7266,0.0,-4.4629,-4.3183,-3.9141,-4.041,-4.1855,-3.4082,-3.5,-3.7305,-3.1601,-3.0019,-2.9883,-2.9512,-2.9453,-2.9687,-3.0469,0.0,-3.0898,-3.1289,0.0,-3.25,-3.2129,0.0,0.0,-3.2187,0.0,0.0,-3.6777,-4.0312,-4.3262,-4.4082,-4.9219,-5.1855,-4.9648,-5.0488,-5.2344,-5.5176,-5.3652,-5.3789,-5.6504,-5.7461,-5.8144,-5.8535,-5.8945,-5.918,-5.918,-5.918,-5.918,-5.918,-5.918,-5.918,-5.918,-5.918,-5.918,-5.918,-5.918,-5.918,-5.918,-5.918,-5.918,-5.918,-5.918,-5.918,-5.918,-5.918,-5.918,-5.918,-2.3813,-2.416,-2.4355,-2.4961,-2.5059,-2.5312,-2.6016,-2.6894,-2.7559,-2.7734,-2.8965,-2.9766,-2.959,-3.0156,-3.0879,-3.1719,-3.1719,-3.1191,0.0,-2.9766,-2.916,-2.8027,-2.6016,-2.5312,-2.6133,-2.4258,-2.3281,-2.3359,-2.3105,-2.3203,-2.3613,-2.3809,-2.5156,-2.748,-2.918,-3.0703,-3.2148,-3.4766,-3.5898,0.0,0.0,-3.8203,0.0,-4.1816,-4.4512,-4.584,-4.6914,-4.7422,-4.7461,0.0,-4.4726,0.0,-4.3398,-4.2422,-4.0449,-3.7578,-3.7383,-3.7051,-3.2266,-3.2246,-3.3047,-3.0879,-3.1445,-3.2129,-3.0547,-3.0195,-3.0195,-3.0195,0.0,0.0,0.0,0.0,0.0,0.0,-3.4297,0.0,0.0,0.0,-4.1758,0.0,0.0,0.0,-4.8359,-5.1484,-5.3848,-5.4863,-5.4551,-5.4863,-5.6133,-5.6777,-5.7441,-5.8144,-5.8594,-5.8945,-5.918,-5.918,-5.918,-5.918,-5.918,-5.918,-5.918,-5.918,-5.918,-5.918,-5.918,-5.918,-5.918,-5.918,-5.918,-5.918,-5.918,-5.918,-5.918,-5.918,-5.918,-5.918,-2.3198,-2.39,-2.4258,-2.5081,-2.5352,-2.5762,-2.6758,-2.7695,-2.8418,-2.8769,-2.9863,-3.0625,-3.0625,-3.1289,-3.2148,-3.3184,-3.3535,-3.332,0.0,-3.1777,-3.0976,-2.9941,-2.7559,-2.6602,-2.7344,-2.5371,-2.4355,-2.4414,-2.4102,-2.4121,-2.4414,-2.4531,-2.5937,-2.8398,-2.9766,-3.2031,-3.4941,-3.7363,-3.7988,-3.7559,-4.0176,-4.0586,-4.0137,-4.4414,-4.6836,-4.793,-4.793,-4.8086,-4.8203,-4.7598,-4.5176,0.0,-4.5723,-4.3808,-4.0566,-4.0801,-4.0254,-3.8652,-3.4277,-3.4609,-3.541,-3.207,-3.2637,-3.3437,-3.123,-3.0644,-3.0527,-3.041,-3.0547,0.0,0.0,0.0,-3.0918,-3.0664,0.0,-3.3906,0.0,-3.5254,0.0,0.0,0.0,0.0,0.0,-5.043,-5.2832,-5.3242,-5.4277,-5.5195,-5.5898,-5.6465,-5.7031,-5.7656,-5.8242,-5.8711,-5.9004,-5.9121,-5.918,-5.918,-5.918,-5.918,-5.918,-5.918,-5.918,-5.918,-5.918,-5.918,-5.918,-5.918,-5.918,-5.918,-5.918,-5.918,-5.918,-5.918,-5.918,-5.918,-2.1508,-2.2438,-2.3602,-2.5334,-2.6074,-2.6777,-2.8047,-2.8262,-2.873,-2.998,-3.1973,-3.3301,-3.3301,-3.6641,-3.8555,-3.7793,-3.9629,-3.9941,-3.7812,-3.5723,-3.582,-3.8672,-3.1601,-2.9355,-3.3066,-2.8242,-2.5254,-2.4414,-2.4414,-2.4414,-2.4434,-2.4844,-2.5117,-2.5371,-2.918,-3.1172,-3.1934,-3.6152,-3.959,-4.2246,-4.2773,-4.4687,-4.6973,0.0,-4.5898,-4.8808,-4.8808,0.0,0.0,-4.7656,-4.6308,0.0,0.0,0.0,-4.4961,-4.248,-4.3496,-4.4199,-3.8613,-3.6894,-3.5918,-3.2891,-3.2187,-3.2226,-3.2129,-3.1777,-3.1367,0.0,0.0,0.0,-2.9687,-2.9629,-2.9355,-2.8535,-2.918,0.0,0.0,0.0,0.0,0.0,0.0,0.0,0.0,-4.5156,-4.7012,0.0,-5.125,-5.3301,-5.5801,-5.6738,-5.7207,-5.7226,-5.8066,-5.8535,-5.8535,-5.8945,-5.918,-5.918,-5.918,-5.918,-5.918,-5.918,-5.918,-5.918,-5.918,-5.918,-5.918,-5.918,-5.918,-5.918,-5.918,-5.918,-5.918,-5.918,-5.918,-5.918,-2.1237,-2.1946,-2.2611,-2.4079,-2.4746,-2.574,-2.798,-2.9277,-3.0566,-3.2129,-3.3457,-3.4707,-3.5859,-3.7148,-3.8281,0.0,0.0,-4.0019,-3.9277,-3.7207,-3.6328,-3.707,-3.1582,-2.9512,-3.1699,-2.8086,-2.6016,-2.5723,-2.543,-2.5293,-2.5293,-2.5449,-2.5664,-2.6094,-2.9707,-3.2812,-3.5625,-3.9922,0.0,0.0,0.0,-4.4629,-4.6387,0.0,-4.8027,-4.9336,-4.9629,-4.9922,0.0,-4.9336,-4.793,-4.6621,-4.7324,-4.6094,-4.4414,-4.4707,-4.4394,-4.3476,0.0,0.0,-4.2246,-3.7226,-3.7266,-3.75,-3.3496,-3.2246,0.0,0.0,0.0,0.0,0.0,-3.0449,-3.0254,-2.9648,0.0,0.0,0.0,0.0,0.0,0.0,0.0,0.0,0.0,0.0,0.0,0.0,0.0,0.0,-5.5488,-5.6055,-5.6621,-5.7187,-5.7793,-5.8242,-5.8535,-5.8945,-5.918,-5.918,-5.918,-5.918,-5.918,-5.918,-5.918,-5.918,-5.918,-5.918,-5.918,-5.918,-5.918,-5.918,-5.918,-5.918,-5.918,-5.918,-5.918,-5.918,-2.0,-2.0416,-2.1345,-2.4117,-2.5293,-2.6503,-2.8661,-3.0059,-3.166,0.0,-3.4609,0.0,-3.7539,0.0,-3.9062,0.0,-4.0684,-4.0762,-4.0156,-3.8809,0.0,-3.7851,-3.4023,-3.2598,-3.4062,-3.0234,-2.8144,-2.7988,-2.6641,-2.5898,-2.5742,-2.5742,-2.5977,-2.6504,-2.9023,-3.2812,-3.7519,-4.0742,-4.3164,0.0,0.0,-4.5918,0.0,0.0,-4.9375,-4.8984,0.0,-5.0723,-5.0879,-5.1035,-4.9941,-4.8769,-5.0176,-4.8594,-4.6445,-4.7578,-4.7031,-4.5762,-4.4394,-4.5449,0.0,-4.0762,-4.0781,0.0,-3.5742,0.0,-3.3906,0.0,0.0,0.0,0.0,0.0,-3.0898,-3.168,0.0,0.0,0.0,-2.957,0.0,0.0,0.0,0.0,0.0,0.0,0.0,0.0,0.0,0.0,0.0,-5.6074,-5.6582,-5.6973,-5.7558,-5.7988,-5.8301,-5.8711,-5.9004,-5.918,-5.918,-5.918,-5.918,-5.918,-5.918,-5.918,-5.918,-5.918,-5.918,-5.918,-5.918,-5.918,-5.918,-5.918,-5.918,-5.918,-5.918,-5.918,-1.8144,-1.8185,-2.0012,-2.5376,-2.7435,-2.8769,-3.0039,-3.0742,-3.2168,-3.5137,-3.5605,-3.6484,-3.8633,-4.0351,-4.1172,-4.0781,-4.2226,-4.25,-4.0879,-4.0684,0.0,0.0,-3.8809,-3.8184,-3.9961,-3.4473,-3.1387,-3.0976,-2.7949,-2.623,-2.5801,-2.5801,-2.6055,-2.6523,-2.7344,-3.1309,-3.7461,-3.8691,-4.2246,-4.7129,-4.7949,-4.8476,-4.8984,-5.0762,-4.9863,-4.7988,-5.0566,-5.1758,-5.2168,-5.2578,-5.2168,-5.1484,-5.1484,-5.123,-5.0898,-5.0879,-5.1172,-5.0859,-4.7969,-4.7207,-4.6484,-4.3457,-4.2695,0.0,0.0,0.0,-3.7539,0.0,0.0,0.0,0.0,0.0,0.0,0.0,0.0,0.0,0.0,0.0,0.0,0.0,0.0,0.0,0.0,0.0,0.0,0.0,0.0,0.0,0.0,-5.6543,-5.6836,-5.6621,-5.7402,-5.7851,-5.791,-5.832,-5.8769,-5.918,-5.918,-5.918,-5.918,-5.918,-5.918,-5.918,-5.918,-5.918,-5.918,-5.918,-5.918,-5.918,-5.918,-5.918,-5.918,-5.918,-5.918,-5.918,-1.9628,-2.1088,-2.2815,-2.4682,-2.7419,-2.957,-3.0566,-3.2715,-3.4961,-3.7012,-3.8691,-4.0508,-4.2676,-4.3301,-4.3652,-4.3848,-4.4277,0.0,0.0,0.0,0.0,-4.4453,-4.0488,-3.9199,-4.1269,-3.5508,-3.2422,-3.2305,-2.8965,-2.7109,-2.6699,-2.6699,-2.709,-2.7812,-2.8027,-3.207,-3.873,-3.9062,-4.2949,-4.8887,-4.9101,-4.8672,-4.8164,0.0,-5.0234,-4.8906,-5.1465,-5.2461,-5.2558,-5.2676,-5.2558,-5.2383,-5.2383,-5.2305,-5.2168,-5.1855,-5.2051,-5.2148,-5.1055,-5.0996,-5.0508,-4.748,-4.6484,-4.5469,0.0,0.0,0.0,0.0,0.0,0.0,0.0,0.0,0.0,0.0,0.0,0.0,0.0,0.0,0.0,0.0,0.0,0.0,0.0,0.0,0.0,0.0,0.0,0.0,0.0,0.0,-5.418,-5.6973,-5.7265,-5.7695,-5.8359,-5.8476,-5.8769,-5.918,-5.918,-5.918,-5.918,-5.918,-5.918,-5.918,-5.918,-5.918,-5.918,-5.918,-5.918,-5.918,-5.918,-5.918,-5.918,-5.918,-5.918,-5.918,-2.0047,-2.191,-2.3497,-2.4186,-2.7153,-2.985,-3.1471,-3.3123,-3.5351,-3.8398,-3.9863,-4.1426,-4.3594,-4.4668,-4.5254,-4.5312,-4.5488,0.0,-4.459,0.0,0.0,-4.4805,-4.2969,-4.2617,-4.4004,-3.9238,0.0,-3.5039,-3.1777,-2.9277,-2.7578,-2.7578,-2.793,-2.8574,-2.8965,-3.2266,-3.7715,-4.0547,-4.4219,-4.8223,-4.9355,-4.959,0.0,-5.1289,-5.1523,-5.1074,-5.2695,-5.3164,-5.3027,-5.3223,-5.3164,-5.2988,-5.2988,-5.2871,-5.2656,-5.2422,-5.2656,-5.2949,-5.2695,-5.2812,-5.2578,-5.0879,-5.0137,-4.9023,-4.6016,-4.498,-4.4609,0.0,-4.3125,-4.2285,0.0,0.0,0.0,0.0,0.0,0.0,0.0,0.0,0.0,0.0,0.0,0.0,0.0,0.0,0.0,0.0,0.0,0.0,0.0,0.0,0.0,-5.5176,-5.6894,-5.7949,-5.8242,-5.8613,-5.8828,-5.8887,-5.9062,-5.918,-5.918,-5.918,-5.918,-5.918,-5.918,-5.918,-5.918,-5.918,-5.918,-5.918,-5.918,-5.918,-5.918,-5.918,-5.918,-5.918,-2.0027,-2.1512,-2.293,-2.3701,-2.6614,-2.9748,-3.2141,-3.3155,-3.5085,-3.8899,-4.0164,-4.1386,-4.2944,-4.5219,-4.6426,-4.6113,-4.6426,-4.584,-4.3965,-4.5879,-4.625,-4.4375,-4.5683,-4.6641,-4.7012,-4.375,-4.0742,-3.8086,-3.5137,-3.1953,-2.8633,-2.8633,-2.8848,-2.9297,-3.0039,-3.2519,-3.6562,-4.2734,-4.5957,-4.7109,-4.9531,-5.0918,-5.1621,-5.2461,-5.3066,-5.3496,-5.3945,-5.3867,-5.3594,-5.3984,-5.3887,-5.3613,-5.3555,-5.3281,-5.2949,-5.2832,-5.3105,-5.3457,-5.3457,-5.3496,-5.3535,-5.3535,-5.3203,-5.2187,-4.9492,-4.8555,-4.8262,-4.8262,-4.582,-4.5176,-5.0039,0.0,0.0,0.0,0.0,0.0,0.0,0.0,0.0,0.0,0.0,0.0,0.0,0.0,0.0,0.0,0.0,0.0,0.0,0.0,0.0,-5.334,-5.6562,-5.8242,-5.8203,-5.873,-5.8945,-5.8769,-5.9062,-5.918,-5.918,-5.918,-5.918,-5.918,-5.918,-5.918,-5.918,-5.918,-5.918,-5.918,-5.918,-5.918,-5.918,-5.918,-5.918,-5.918,-2.1203,-2.1578,-2.1964,-2.2549,-2.5664,-2.8805,-3.1215,-3.5429,-3.7899,-3.6795,-4.1947,-4.5067,-4.3738,-4.6124,-4.7988,-4.8281,-4.8359,0.0,-4.7871,0.0,0.0,-4.7441,-4.7383,-4.7402,-4.7461,-4.4766,-4.1933,-3.8984,-3.6348,-3.3457,-3.043,-3.043,-3.0664,-3.1074,-3.1211,-3.459,-4.0469,-4.5156,-4.8242,-5.0156,-5.166,-5.2148,-5.207,-5.293,-5.3516,-5.3965,-5.4414,-5.4512,-5.4453,-5.4531,-5.4746,-5.4902,-5.4551,-5.4394,-5.4199,-5.3457,-5.3555,-5.3906,-5.3906,-5.418,-5.4453,-5.4453,-5.4121,-5.3555,-5.2656,-5.2129,-5.1816,-5.1816,-5.1055,-4.9961,-4.8516,0.0,0.0,0.0,0.0,0.0,0.0,0.0,0.0,0.0,0.0,0.0,0.0,0.0,0.0,0.0,0.0,0.0,0.0,0.0,0.0,0.0,-5.6933,0.0,0.0,0.0,-5.8769,-6.0098,-5.9473,-5.918,-5.918,-5.918,-5.918,-5.918,-5.918,-5.918,-5.918,-5.918,-5.918,-5.918,-5.918,-5.918,-5.918,-5.918,-5.918,-5.918,-2.2151,-2.2231,-2.2659,-2.4022,-2.6336,-2.8748,-3.0935,-3.5265,-3.8514,-3.9004,-4.2026,-4.4501,-4.5299,-4.7665,-4.9219,-4.9199,-4.9414,-4.9453,-4.9219,-4.9219,-4.9121,-4.8906,-4.8476,-4.8242,-4.8242,-4.7012,-4.4238,-3.9883,-3.8887,-3.6035,-3.1543,-3.1543,-3.166,-3.1934,-3.373,-3.6621,-4.0469,-4.5469,-4.8574,-5.0293,-5.2012,-5.2871,-5.3144,-5.3555,-5.3984,-5.4433,-5.4863,-5.5156,-5.5293,-5.5078,-5.5137,-5.5273,-5.5058,-5.5,-5.4922,-5.4492,-5.4531,-5.4746,-5.4961,-5.4844,-5.4726,-5.4941,-5.4687,-5.4316,-5.4101,-5.3887,-5.3672,-5.3437,-5.3047,-5.168,-4.8223,-4.5117,0.0,0.0,0.0,0.0,0.0,0.0,0.0,0.0,0.0,0.0,0.0,0.0,0.0,0.0,0.0,0.0,0.0,0.0,0.0,0.0,0.0,0.0,-5.9062,0.0,-5.8945,-5.9121,-5.918,-5.918,-5.918,-5.918,-5.918,-5.918,-5.918,-5.918,-5.918,-5.918,-5.918,-5.918,-5.918,-5.918,-5.918,-5.918,-5.918,-5.918,-2.3367,-2.3567,-2.4222,-2.6186,-2.7829,-2.9446,-3.1076,-3.4379,-3.7688,-3.9824,-4.1786,-4.3779,-4.5919,-4.8988,-5.0586,-5.0234,-5.0527,-5.0566,-5.0234,-5.0351,-5.0293,-4.9941,-4.9414,-4.9101,-4.9004,-4.9101,-4.666,-4.1621,-4.1504,-3.8535,-3.2988,-3.2793,-3.3008,-3.3652,-3.6562,-3.9023,-4.1289,0.0,-4.8984,-5.0508,-5.248,-5.3672,-5.4316,-5.4394,-5.4765,-5.5254,-5.5586,-5.5976,-5.6289,-5.5859,-5.5664,-5.5566,-5.5469,-5.5449,-5.5449,-5.5449,-5.5371,-5.543,-5.5937,-5.5527,-5.5019,-5.5351,-5.5117,-5.4805,-5.4805,-5.4746,-5.4609,-5.4355,-5.3867,-5.2383,-4.8672,-4.6699,0.0,0.0,0.0,0.0,0.0,0.0,0.0,0.0,0.0,0.0,0.0,0.0,0.0,0.0,0.0,0.0,0.0,0.0,0.0,0.0,0.0,-5.7265,-5.7187,0.0,-5.9121,-5.8262,-5.8887,-5.918,-5.918,-5.918,-5.918,-5.918,-5.918,-5.918,-5.918,-5.918,-5.918,-5.918,-5.918,-5.918,-5.918,-5.918,-5.918,-5.918,-2.5398,-2.5879,-2.6547,-2.8096,-3.0007,-3.141,-3.1597,-3.3533,-3.5102,-3.5074,-4.1863,-4.6108,-4.3957,-4.9014,-5.2461,-5.2422,-5.2441,-5.2461,-5.2422,-5.1719,-5.1289,-5.125,-5.0488,-4.9863,-4.9473,-4.9844,-4.8457,0.0,0.0,-4.0019,-3.5644,-3.4844,-3.5723,-3.8027,-3.916,-4.2305,0.0,-4.9043,-5.1113,-5.3125,-5.4512,-5.5117,-5.5234,-5.5605,-5.6269,-5.6973,-5.7012,-5.7305,-5.7617,-5.7187,-5.6777,-5.6406,-5.5996,-5.5879,-5.5879,-5.5879,-5.5605,-5.5488,-5.6308,-5.6172,-5.582,-5.5859,-5.5566,-5.5254,-5.5254,-5.4961,-5.4785,-5.5117,-5.4531,-5.3027,-4.9922,-5.0723,-5.1348,0.0,0.0,0.0,0.0,0.0,0.0,0.0,0.0,0.0,0.0,0.0,0.0,0.0,0.0,0.0,0.0,0.0,0.0,-5.2637,-5.3086,-5.3808,-5.4961,-5.7422,-5.8984,-5.9629,-5.9355,-5.918,-5.918,-5.918,-5.918,-5.918,-5.918,-5.918,-5.918,-5.918,-5.918,-5.918,-5.918,-5.918,-5.918,-5.918,-5.918,-5.918,-2.8177,-2.843,-2.8978,-3.0448,-3.153,-3.2559,-3.3627,-3.4643,-3.5311,-3.5364,-4.1152,-4.5564,-4.6415,-5.0228,-5.2715,-5.2715,-5.2715,-5.2715,-5.2715,-5.2383,-5.2207,-5.2207,-5.1641,-5.1113,-5.0683,-5.1094,-4.9707,0.0,0.0,-4.1387,-3.793,-3.7559,-3.8926,-4.1758,-4.3926,-4.6328,-4.8906,-5.1426,-5.3418,-5.4941,-5.5469,-5.584,-5.6113,-5.6543,-5.6914,-5.7246,-5.75,-5.7715,-5.7851,-5.7656,-5.748,-5.7285,-5.6836,-5.6699,-5.6699,-5.6699,-5.6406,-5.6152,-5.6484,-5.6269,-5.5996,-5.625,-5.6191,-5.6133,-5.6387,-5.6328,-5.6172,-5.6094,-5.539,-5.4355,-5.2891,-5.1836,-5.1484,-5.2344,0.0,0.0,0.0,0.0,0.0,0.0,0.0,0.0,0.0,0.0,0.0,0.0,0.0,0.0,0.0,0.0,0.0,-5.3027,0.0,-5.5918,-5.6973,-5.8008,-5.8594,-5.8652,-5.9004,-5.918,-5.918,-5.918,-5.918,-5.918,-5.918,-5.918,-5.918,-5.918,-5.918,-5.918,-5.918,-5.918,-5.918,-5.918,-5.918,-5.918,-3.0955,-3.1156,-3.1677,-3.3146,-3.3641,-3.4255,-3.5511,-3.5952,-3.6246,-3.654,-4.0705,-4.4335,-4.6027,-4.8934,-5.0735,-5.0735,-5.1497,-5.2202,-5.2202,-5.282,-5.3105,-5.3105,-5.2558,-5.2129,-5.1816,-5.2226,-5.1211,-4.8633,-4.6465,-4.4004,-4.1269,-4.0508,-4.2031,-4.5508,-4.7773,-4.9629,-5.1191,-5.3574,-5.5195,-5.6133,-5.625,-5.664,-5.7187,-5.748,-5.7676,-5.7851,-5.8144,-5.8262,-5.8203,-5.8086,-5.8144,-5.8144,-5.7441,-5.7129,-5.7051,-5.7187,-5.6992,-5.6797,-5.6933,-5.6738,-5.6582,-5.6894,-5.6855,-5.6875,-5.7305,-5.7305,-5.7129,-5.6836,-5.6191,-5.5547,-5.5117,-5.3203,-5.2363,-5.4453,0.0,0.0,0.0,-5.4746,0.0,0.0,-5.0879,-4.959,-4.9023,0.0,0.0,0.0,0.0,0.0,0.0,0.0,0.0,0.0,0.0,0.0,-5.7012,-5.8027,-5.8359,-5.8086,-5.8828,-5.918,-5.918,-5.918,-5.918,-5.918,-5.918,-5.918,-5.918,-5.918,-5.918,-5.918,-5.918,-5.918,-5.918,-5.918,-5.918,-5.918,-3.3547,-3.4068,-3.4723,-3.6193,-3.6687,-3.6901,-3.6901,-3.7155,-3.7448,-3.7742,-4.0476,-4.22,-4.1084,-4.3851,-4.5976,-4.5976,-4.8925,-5.09,-5.09,-5.2761,-5.4004,-5.4004,-5.3164,-5.2695,-5.2695,-5.3125,-5.3105,-5.2637,-5.0508,-4.834,-4.6152,-4.3594,-4.4922,-4.9473,-4.9941,-5.1816,-5.4668,-5.5547,-5.6172,-5.6621,-5.7031,-5.7715,-5.8535,-5.8535,-5.8769,-5.918,-5.918,-5.918,-5.9121,-5.8652,-5.8828,-5.8945,-5.7617,-5.6933,-5.668,-5.709,-5.7207,-5.7305,-5.7734,-5.7851,-5.7851,-5.7851,-5.7519,-5.7324,-5.7754,-5.7519,-5.7207,-5.7207,-5.6855,-5.6445,-5.5996,-5.5547,-5.5527,-5.6406,0.0,0.0,0.0,-5.5566,0.0,-5.0625,-5.1308,-5.1719,-5.0859,0.0,0.0,0.0,0.0,0.0,0.0,0.0,0.0,-5.2715,-5.3164,0.0,-5.3418,-5.6816,-5.8535,-5.8535,-5.8945,-5.918,-5.918,-5.918,-5.918,-5.918,-5.918,-5.918,-5.918,-5.918,-5.918,-5.918,-5.918,-5.918,-5.918,-5.918,-5.918,-5.918,-3.6179,-3.634,-3.65,-3.6754,-3.7195,-3.7529,-3.7529,-3.7956,-3.833,-3.8437,-3.9195,-3.9775,-3.9373,-4.3715,-4.6451,-4.6205,-4.9117,-5.0723,-5.0723,-5.331,-5.4902,-5.4902,-5.4355,-5.4062,-5.4062,-5.4199,-5.4199,-5.4062,0.0,-5.0039,-4.9355,-4.8516,-5.0039,-5.3476,-5.3613,-5.4375,-5.5566,-5.6133,-5.6621,-5.707,-5.7832,-5.8301,-5.8574,-5.8887,-5.9062,-5.918,-5.918,-5.918,-5.918,-5.9004,-5.8887,-5.8652,-5.8242,-5.8027,-5.7949,-5.8066,-5.791,-5.7676,-5.7812,-5.7871,-5.793,-5.8242,-5.8203,-5.8242,-5.8672,-5.8418,-5.8027,-5.7715,-5.7558,-5.7324,-5.6894,-5.6465,-5.6172,-5.6152,-5.5801,0.0,-5.5898,0.0,-5.5781,-5.4668,-5.4648,-5.459,0.0,-5.4941,0.0,0.0,0.0,0.0,0.0,0.0,0.0,0.0,-5.4726,0.0,-5.6875,-5.7676,-5.8242,-5.8535,-5.8965,-5.918,-5.918,-5.918,-5.918,-5.918,-5.918,-5.918,-5.918,-5.918,-5.918,-5.918,-5.918,-5.918,-5.918,-5.918,-5.918,-5.918,-3.8223,-3.8223,-3.8143,-3.7956,-3.825,-3.8477,-3.8477,-3.8798,-3.9092,-3.9199,-3.9225,-3.9225,-3.9225,-4.2209,-4.4171,-4.3713,-4.641,-4.8264,-4.8264,-5.1025,-5.2485,-5.2485,-5.3203,-5.3651,-5.3651,-5.4897,0.0,-5.5156,-5.3359,-5.25,-5.25,-5.25,-5.3672,-5.5781,-5.5781,-5.6113,-5.668,-5.6953,-5.7324,-5.7734,-5.8301,-5.8652,-5.8828,-5.9062,-5.918,-5.918,-5.918,-5.918,-5.918,-5.918,-5.9004,-5.8769,-5.8769,-5.8769,-5.8711,-5.8379,-5.8203,-5.8144,-5.8144,-5.8262,-5.8437,-5.8711,-5.8769,-5.8828,-5.9121,-5.8945,-5.8652,-5.8203,-5.8144,-5.7969,-5.7539,-5.7246,-5.6973,-5.6699,-5.6387,-5.6172,-5.6172,-5.6269,-5.5918,0.0,0.0,0.0,0.0,-5.4883,-5.4648,0.0,0.0,0.0,0.0,0.0,0.0,-5.5058,-5.6367,-5.7539,-5.8535,-5.8262,-5.832,-5.8769,-5.9062,-5.918,-5.918,-5.918,-5.918,-5.918,-5.918,-5.918,-5.918,-5.918,-5.918,-5.918,-5.918,-5.918,-5.918,-5.918,-5.918,-5.918,-3.9559,-3.9599,-3.9599,-3.9599,-3.9599,-3.964,-3.964,-3.964,-3.9746,-4.0027,-4.0067,-4.0067,-4.0067,-4.0067,-3.9853,-3.9306,-4.219,-4.4188,-4.4188,-4.66,-4.7979,-4.8012,-5.0324,-5.1672,-5.198,-5.5223,-5.6601,-5.6015,-5.5605,-5.541,-5.5449,-5.5449,-5.5879,-5.668,-5.668,-5.7109,-5.7871,-5.791,-5.8144,-5.8535,-5.8594,-5.8828,-5.918,-5.918,-5.918,-5.918,-5.918,-5.918,-5.918,-5.918,-5.918,-5.918,-5.918,-5.918,-5.9023,-5.8203,-5.8262,-5.8594,-5.8594,-5.8887,-5.918,-5.918,-5.918,-5.918,-5.918,-5.918,-5.9062,-5.8652,-5.8594,-5.8418,-5.7988,-5.791,-5.791,-5.7871,-5.7187,-5.668,-5.668,-5.6308,-5.5,-5.2207,0.0,0.0,-5.2441,-5.2773,-5.3887,0.0,0.0,0.0,0.0,0.0,-5.4707,-5.7754,-5.7851,-5.8027,-5.8535,-5.8535,-5.8769,-5.918,-5.918,-5.918,-5.918,-5.918,-5.918,-5.918,-5.918,-5.918,-5.918,-5.918,-5.918,-5.918,-5.918,-5.918,-5.918,-5.918,-5.918,-5.918,-3.9265,-3.9452,-3.9599,-3.9599,-3.9786,-3.992,-3.992,-4.0107,-4.0294,-4.0361,-4.0361,-4.0361,-4.0361,-4.0361,-4.0321,-4.0187,-4.2577,-4.4188,-4.4188,-4.6568,-4.8094,-4.8357,-4.8439,-4.9916,-5.2771,-5.3512,-5.4663,-5.6914,-5.6484,-5.6445,-5.6758,-5.6758,-5.7051,-5.7558,-5.7558,-5.7676,-5.7871,-5.8242,-5.8418,-5.8535,-5.8887,-5.9062,-5.918,-5.918,-5.918,-5.918,-5.918,-5.918,-5.918,-5.918,-5.918,-5.918,-5.918,-5.918,-5.9121,-5.8945,-5.8945,-5.9004,-5.9004,-5.9121,-5.918,-5.918,-5.918,-5.918,-5.918,-5.918,-5.918,-5.9062,-5.9004,-5.8887,-5.8476,-5.8359,-5.8262,-5.791,-5.7695,-5.7558,-5.7558,-5.7187,-5.6777,-5.6387,-5.5859,-5.5644,-5.5957,-5.5801,-5.4961,0.0,0.0,0.0,-5.375,-5.3203,-5.4394,-5.7754,-5.7539,-5.7734,-5.8535,-5.8535,-5.8769,-5.918,-5.918,-5.918,-5.918,-5.918,-5.918,-5.918,-5.918,-5.918,-5.918,-5.918,-5.918,-5.918,-5.918,-5.918,-5.918,-5.918,-5.918,-5.918,-3.9746,-3.9893,-4.0,-4.0,-4.0147,-4.0214,-4.0214,-4.0361,-4.0481,-4.0481,-4.0481,-4.0481,-4.0481,-4.0481,-4.0481,-4.0481,-4.1813,-4.2569,-4.2569,-4.3754,-4.4676,-4.4841,-4.5889,-4.7916,-5.1502,-5.2949,-5.4783,-5.7832,-5.7383,-5.7285,-5.75,-5.75,-5.7734,-5.8144,-5.8144,-5.8262,-5.8496,-5.8711,-5.8828,-5.8828,-5.9062,-5.918,-5.918,-5.918,-5.918,-5.918,-5.918,-5.918,-5.918,-5.918,-5.918,-5.918,-5.918,-5.918,-5.918,-5.918,-5.918,-5.918,-5.918,-5.918,-5.918,-5.918,-5.918,-5.918,-5.918,-5.918,-5.918,-5.918,-5.918,-5.9121,-5.8887,-5.8828,-5.8769,-5.8496,-5.7305,-5.6816,-5.8027,-5.6777,-5.6289,-5.7695,-5.7441,-5.7265,-5.748,-5.748,-5.6699,-5.4863,-5.4922,0.0,-5.5058,-5.5058,-5.5918,-5.7812,-5.7851,-5.8066,-5.8535,-5.8711,-5.8945,-5.918,-5.918,-5.918,-5.918,-5.918,-5.918,-5.918,-5.918,-5.918,-5.918,-5.918,-5.918,-5.918,-5.918,-5.918,-5.918,-5.918,-5.918,-5.918,-4.0361,-4.0441,-4.0481,-4.0481,-4.0481,-4.0481,-4.0481,-4.0481,-4.0481,-4.0481,-4.0481,-4.0481,-4.0481,-4.0481,-4.0481,-4.0481,-4.0481,-4.0481,-4.0481,-4.0441,-4.0441,-4.0481,-4.301,-4.5781,-4.9122,-5.209,-5.4918,-5.7127,-5.6726,-5.6736,-5.7272,-5.7272,-5.7724,-5.8652,-5.8652,-5.8828,-5.918,-5.918,-5.918,-5.918,-5.918,-5.918,-5.918,-5.918,-5.918,-5.918,-5.918,-5.918,-5.918,-5.918,-5.918,-5.918,-5.918,-5.918,-5.918,-5.918,-5.918,-5.918,-5.918,-5.918,-5.918,-5.918,-5.918,-5.918,-5.918,-5.918,-5.918,-5.918,-5.918,-5.918,-5.918,-5.918,-5.9062,-5.8672,-5.6777,-5.5996,-5.7793,-5.6113,-5.5527,-5.7695,-5.791,-5.7871,-5.7871,-5.8203,-5.8262,-5.791,-5.8203,-5.8262,-5.7871,-5.793,-5.7969,-5.7969,-5.832,-5.8574,-5.8652,-5.9004,-5.918,-5.918,-5.918,-5.918,-5.918,-5.918,-5.918,-5.918,-5.918,-5.918,-5.918,-5.918,-5.918,-5.918,-5.918,-5.918,-5.918,-5.918,-5.918,-5.918,-4.0107,-4.0294,-4.0481,-4.0481,-4.0481,-4.0481,-4.0481,-4.0481,-4.0481,-4.0481,-4.0481,-4.0481,-4.0481,-4.0481,-4.0481,-4.0481,-4.0481,-4.0481,-4.0481,-4.0254,-4.0214,-4.0481,-4.0696,-4.2319,-4.5842,-4.8581,-5.0265,-5.064,-5.0284,-5.14,-5.4461,-5.4461,-5.6104,-5.9062,-5.9062,-5.9121,-5.918,-5.918,-5.918,-5.918,-5.918,-5.918,-5.918,-5.918,-5.918,-5.918,-5.918,-5.918,-5.918,-5.918,-5.918,-5.918,-5.918,-5.918,-5.918,-5.918,-5.918,-5.918,-5.918,-5.918,-5.918,-5.918,-5.918,-5.918,-5.918,-5.918,-5.918,-5.918,-5.918,-5.918,-5.918,-5.918,-5.8476,-5.6269,-5.7363,-5.7851,-5.6055,-5.6973,-5.7969,-5.8359,-5.8086,-5.7871,-5.7871,-5.793,-5.793,-5.7871,-5.793,-5.793,-5.7871,-5.8203,-5.8418,-5.8418,-5.8476,-5.8711,-5.9062,-5.9121,-5.918,-5.918,-5.918,-5.918,-5.918,-5.918,-5.918,-5.918,-5.918,-5.918,-5.918,-5.918,-5.918,-5.918,-5.918,-5.918,-5.918,-5.918,-5.918,-5.918,-4.0254,-4.0361,-4.0481,-4.0481,-4.0481,-4.0481,-4.0481,-4.0481,-4.0481,-4.0481,-4.0481,-4.0481,-4.0481,-4.0481,-4.0481,-4.0481,-4.0481,-4.0481,-4.0481,-4.0361,-4.0334,-4.0481,-4.0334,-4.1726,-4.513,-4.801,-4.9558,-4.9558,-4.941,-5.0086,-5.1653,-5.1653,-5.2428,-5.4261,-5.5892,-5.6572,-5.6817,-5.8469,-5.918,-5.918,-5.918,-5.918,-5.918,-5.918,-5.918,-5.918,-5.918,-5.918,-5.918,-5.918,-5.918,-5.918,-5.918,-5.918,-5.918,-5.918,-5.918,-5.918,-5.918,-5.918,-5.918,-5.918,-5.918,-5.918,-5.918,-5.918,-5.918,-5.918,-5.918,-5.918,-5.918,-5.918,-5.8789,-5.7598,-5.7226,-5.7168,-5.7363,-5.7051,-5.7324,-5.8711,-5.8711,-5.8555,-5.8555,-5.8555,-5.8555,-5.8555,-5.8555,-5.8555,-5.8555,-5.8769,-5.8887,-5.8887,-5.8887,-5.9004,-5.918,-5.918,-5.918,-5.918,-5.918,-5.918,-5.918,-5.918,-5.918,-5.918,-5.918,-5.918,-5.918,-5.918,-5.918,-5.918,-5.918,-5.918,-5.918,-5.918,-5.918,-5.918,-4.0441,-4.0481,-4.0481,-4.0481,-4.0481,-4.0481,-4.0481,-4.0481,-4.0481,-4.0481,-4.0481,-4.0481,-4.0481,-4.0481,-4.0481,-4.0481,-4.0481,-4.0481,-4.0481,-4.0481,-4.0481,-4.0481,-4.0481,-4.1664,-4.3968,-4.6315,-4.7699,-4.7699,-4.7699,-4.7919,-4.8638,-4.8638,-4.909,-4.9823,-5.2355,-5.3521,-5.3521,-5.6817,-5.8,-5.8244,-5.8936,-5.918,-5.918,-5.918,-5.918,-5.918,-5.918,-5.918,-5.918,-5.918,-5.918,-5.918,-5.918,-5.918,-5.918,-5.918,-5.918,-5.918,-5.918,-5.918,-5.918,-5.918,-5.918,-5.918,-5.918,-5.918,-5.918,-5.918,-5.918,-5.918,-5.918,-5.918,-5.9004,-5.8379,-5.7109,-5.6699,-5.8086,-5.709,-5.6953,-5.8945,-5.918,-5.918,-5.918,-5.918,-5.918,-5.918,-5.918,-5.918,-5.918,-5.918,-5.918,-5.918,-5.918,-5.918,-5.918,-5.918,-5.918,-5.918,-5.918,-5.918,-5.918,-5.918,-5.918,-5.918,-5.918,-5.918,-5.918,-5.918,-5.918,-5.918,-5.918,-5.918,-5.918,-5.918,-5.918,-5.918,-4.0481,-4.0481,-4.0481,-4.0481,-4.0481,-4.0481,-4.0481,-4.0481,-4.0481,-4.0481,-4.0481,-4.0481,-4.0481,-4.0481,-4.0481,-4.0481,-4.0481,-4.0481,-4.0481,-4.0481,-4.0481,-4.0481,-4.0481,-4.0697,-4.0939,-4.1167,-4.1195,-4.1195,-4.1195,-4.2587,-4.5367,-4.5367,-4.7009,-4.9806,-5.0039,-5.0255,-5.0255,-5.3539,-5.491,-5.5155,-5.7981,-5.918,-5.918,-5.918,-5.918,-5.918,-5.918,-5.918,-5.918,-5.918,-5.918,-5.918,-5.918,-5.918,-5.918,-5.918,-5.918,-5.918,-5.918,-5.918,-5.918,-5.918,-5.918,-5.918,-5.918,-5.918,-5.918,-5.918,-5.918,-5.918,-5.918,-5.918,-5.8379,-5.5976,-5.7461,-5.8144,-5.5898,-5.75,-5.8965,-5.918,-5.918,-5.918,-5.918,-5.918,-5.918,-5.918,-5.918,-5.918,-5.918,-5.918,-5.918,-5.918,-5.918,-5.918,-5.918,-5.918,-5.918,-5.918,-5.918,-5.918,-5.918,-5.918,-5.918,-5.918,-5.918,-5.918,-5.918,-5.918,-5.918,-5.918,-5.918,-5.918,-5.918,-5.918,-5.918,-5.918,-4.0481,-4.0481,-4.0481,-4.0481,-4.0481,-4.0481,-4.0481,-4.0481,-4.0481,-4.0481,-4.0481,-4.0481,-4.0481,-4.0481,-4.0481,-4.0481,-4.0481,-4.0481,-4.0481,-4.0481,-4.0481,-4.0481,-4.0481,-4.0481,-4.0481,-4.0481,-4.0481,-4.0481,-4.0481,-4.1181,-4.236,-4.236,-4.2827,-4.4221,-4.6094,-4.6788,-4.7244,-5.2355,-5.4454,-5.47,-5.8,-5.918,-5.918,-5.918,-5.918,-5.918,-5.918,-5.918,-5.918,-5.918,-5.918,-5.918,-5.918,-5.918,-5.918,-5.918,-5.918,-5.918,-5.918,-5.918,-5.918,-5.918,-5.918,-5.918,-5.918,-5.918,-5.918,-5.918,-5.918,-5.918,-5.918,-5.918,-5.8848,-5.7851,-5.8555,-5.8828,-5.7851,-5.8555,-5.918,-5.918,-5.918,-5.918,-5.918,-5.918,-5.918,-5.918,-5.918,-5.918,-5.918,-5.918,-5.918,-5.918,-5.918,-5.918,-5.918,-5.918,-5.918,-5.918,-5.918,-5.918,-5.918,-5.918,-5.918,-5.918,-5.918,-5.918,-5.918,-5.918,-5.918,-5.918,-5.918,-5.918,-5.918,-5.918,-5.918,-5.918,-4.0481,-4.0481,-4.0481,-4.0481,-4.0481,-4.0481,-4.0481,-4.0481,-4.0481,-4.0481,-4.0481,-4.0481,-4.0481,-4.0481,-4.0481,-4.0481,-4.0481,-4.0481,-4.0481,-4.0481,-4.0481,-4.0481,-4.0481,-4.0481,-4.0481,-4.0481,-4.0481,-4.0481,-4.0481,-4.0481,-4.0481,-4.0481,-4.0481,-4.0481,-4.2799,-4.3758,-4.3968,-4.9323,-5.2124,-5.3309,-5.6572,-5.8244,-5.918,-5.918,-5.918,-5.918,-5.918,-5.918,-5.918,-5.918,-5.918,-5.918,-5.918,-5.918,-5.918,-5.918,-5.918,-5.918,-5.918,-5.918,-5.918,-5.918,-5.918,-5.918,-5.918,-5.918,-5.918,-5.918,-5.918,-5.918,-5.918,-5.918,-5.918,-5.918,-5.918,-5.918,-5.918,-5.918,-5.918,-5.918,-5.918,-5.918,-5.918,-5.918,-5.918,-5.918,-5.918,-5.918,-5.918,-5.918,-5.918,-5.918,-5.918,-5.918,-5.918,-5.918,-5.918,-5.918,-5.918,-5.918,-5.918,-5.918,-5.918,-5.918,-5.918,-5.918,-5.918,-5.918,-5.918,-5.918,-5.918,-5.918,-5.918,-5.918,-5.918,-5.918,-4.0481,-4.0481,-4.0481,-4.0481,-4.0481,-4.0481,-4.0481,-4.0481,-4.0481,-4.0481,-4.0481,-4.0481,-4.0481,-4.0481,-4.0481,-4.0481,-4.0481,-4.0481,-4.0481,-4.0481,-4.0481,-4.0481,-4.0481,-4.0481,-4.0481,-4.0481,-4.0481,-4.0481,-4.0481,-4.0481,-4.0481,-4.0481,-4.0481,-4.0481,-4.0481,-4.0481,-4.071,-4.3729,-4.6788,-5.0039,-5.3292,-5.6364,-5.918,-5.918,-5.918,-5.918,-5.918,-5.918,-5.918,-5.918,-5.918,-5.918,-5.918,-5.918,-5.918,-5.918,-5.918,-5.918,-5.918,-5.918,-5.918,-5.918,-5.918,-5.918,-5.918,-5.918,-5.918,-5.918,-5.918,-5.918,-5.918,-5.918,-5.918,-5.918,-5.918,-5.918,-5.918,-5.918,-5.918,-5.918,-5.918,-5.918,-5.918,-5.918,-5.918,-5.918,-5.918,-5.918,-5.918,-5.918,-5.918,-5.918,-5.918,-5.918,-5.918,-5.918,-5.918,-5.918,-5.918,-5.918,-5.918,-5.918,-5.918,-5.918,-5.918,-5.918,-5.918,-5.918,-5.918,-5.918,-5.918,-5.918,-5.918,-5.918,-5.918,-5.918,-4.0481,-4.0481,-4.0481,-4.0481,-4.0481,-4.0481,-4.0481,-4.0481,-4.0481,-4.0481,-4.0481,-4.0481,-4.0481,-4.0481,-4.0481,-4.0481,-4.0481,-4.0481,-4.0481,-4.0481,-4.0481,-4.0481,-4.0481,-4.0481,-4.0481,-4.0481,-4.0481,-4.0481,-4.0481,-4.0481,-4.0481,-4.0481,-4.0481,-4.0481,-4.0481,-4.0481,-4.071,-4.3729,-4.5589,-4.6993,-5.2355,-5.5137,-5.6119,-5.8244,-5.918,-5.918,-5.918,-5.918,-5.918,-5.918,-5.918,-5.918,-5.918,-5.918,-5.918,-5.918,-5.918,-5.918,-5.918,-5.918,-5.918,-5.918,-5.918,-5.918,-5.918,-5.918,-5.918,-5.918,-5.918,-5.918,-5.918,-5.918,-5.918,-5.918,-5.918,-5.918,-5.918,-5.918,-5.918,-5.918,-5.918,-5.918,-5.918,-5.918,-5.918,-5.918,-5.918,-5.918,-5.918,-5.918,-5.918,-5.918,-5.918,-5.918,-5.918,-5.918,-5.918,-5.918,-5.918,-5.918,-5.918,-5.918,-5.918,-5.918,-5.918,-5.918,-5.918,-5.918,-5.918,-5.918,-5.918,-5.918,-5.918,-5.918,-5.918,-5.918,-4.0481,-4.0481,-4.0481,-4.0481,-4.0481,-4.0481,-4.0481,-4.0481,-4.0481,-4.0481,-4.0481,-4.0481,-4.0481,-4.0481,-4.0481,-4.0481,-4.0481,-4.0481,-4.0481,-4.0481,-4.0481,-4.0481,-4.0481,-4.0481,-4.0481,-4.0481,-4.0481,-4.0481,-4.0481,-4.0481,-4.0481,-4.0481,-4.0481,-4.0481,-4.0481,-4.0481,-4.0697,-4.2573,-4.3968,-4.5352,-4.9356,-5.1431,-5.3062,-5.6119,-5.7287,-5.755,-5.8712,-5.918,-5.918,-5.918,-5.918,-5.918,-5.918,-5.918,-5.918,-5.918,-5.918,-5.918,-5.918,-5.918,-5.918,-5.918,-5.918,-5.918,-5.918,-5.918,-5.918,-5.918,-5.918,-5.918,-5.918,-5.918,-5.918,-5.918,-5.918,-5.918,-5.918,-5.918,-5.918,-5.918,-5.918,-5.918,-5.918,-5.918,-5.918,-5.918,-5.918,-5.918,-5.918,-5.918,-5.918,-5.918,-5.918,-5.918,-5.918,-5.918,-5.918,-5.918,-5.918,-5.918,-5.918,-5.918,-5.918,-5.918,-5.918,-5.918,-5.918,-5.918,-5.918,-5.918,-5.918,-5.918,-5.918,-5.918,-5.918,-5.918,-4.0481,-4.0481,-4.0481,-4.0481,-4.0481,-4.0481,-4.0481,-4.0481,-4.0481,-4.0481,-4.0481,-4.0481,-4.0481,-4.0481,-4.0481,-4.0481,-4.0481,-4.0481,-4.0481,-4.0481,-4.0481,-4.0481,-4.0481,-4.0481,-4.0481,-4.0481,-4.0481,-4.0481,-4.0481,-4.0481,-4.0481,-4.0481,-4.0481,-4.0481,-4.0481,-4.0481,-4.0481,-4.0481,-4.2105,-4.4683,-4.4922,-4.6773,-4.979,-5.285,-5.4225,-5.491,-5.7737,-5.8936,-5.918,-5.918,-5.918,-5.918,-5.918,-5.918,-5.918,-5.918,-5.918,-5.918,-5.918,-5.918,-5.918,-5.918,-5.918,-5.918,-5.918,-5.918,-5.918,-5.918,-5.918,-5.918,-5.918,-5.918,-5.918,-5.918,-5.918,-5.918,-5.918,-5.918,-5.918,-5.918,-5.918,-5.918,-5.918,-5.918,-5.918,-5.918,-5.918,-5.918,-5.918,-5.918,-5.918,-5.918,-5.918,-5.918,-5.918,-5.918,-5.918,-5.918,-5.918,-5.918,-5.918,-5.918,-5.918,-5.918,-5.918,-5.918,-5.918,-5.918,-5.918,-5.918,-5.918,-5.918,-5.918,-5.918,-5.918,-5.918,-4.0481,-4.0481,-4.0481,-4.0481,-4.0481,-4.0481,-4.0481,-4.0481,-4.0481,-4.0481,-4.0481,-4.0481,-4.0481,-4.0481,-4.0481,-4.0481,-4.0481,-4.0481,-4.0481,-4.0481,-4.0481,-4.0481,-4.0481,-4.0481,-4.0481,-4.0481,-4.0481,-4.0481,-4.0481,-4.0481,-4.0481,-4.0481,-4.0481,-4.0481,-4.0481,-4.0481,-4.0481,-4.0481,-4.0939,-4.1637,-4.4221,-4.5605,-4.6552,-4.9573,-5.2355,-5.4472,-5.5192,-5.7042,-5.918,-5.918,-5.918,-5.918,-5.918,-5.918,-5.918,-5.918,-5.918,-5.918,-5.918,-5.918,-5.918,-5.918,-5.918,-5.918,-5.918,-5.918,-5.918,-5.918,-5.918,-5.918,-5.918,-5.918,-5.918,-5.918,-5.918,-5.918,-5.918,-5.918,-5.918,-5.918,-5.918,-5.918,-5.918,-5.918,-5.918,-5.918,-5.918,-5.918,-5.918,-5.918,-5.918,-5.918,-5.918,-5.918,-5.918,-5.918,-5.918,-5.918,-5.918,-5.918,-5.918,-5.918,-5.918,-5.918,-5.918,-5.918,-5.918,-5.918,-5.918,-5.918,-5.918,-5.918,-5.918,-5.918,-5.918,-5.918,-4.0481,-4.0481,-4.0481,-4.0481,-4.0481,-4.0481,-4.0481,-4.0481,-4.0481,-4.0481,-4.0481,-4.0481,-4.0481,-4.0481,-4.0481,-4.0481,-4.0481,-4.0481,-4.0481,-4.0481,-4.0481,-4.0481,-4.0481,-4.0481,-4.0481,-4.0481,-4.0481,-4.0481,-4.0481,-4.0481,-4.0481,-4.0481,-4.0481,-4.0481,-4.0481,-4.0481,-4.0481,-4.0481,-4.0481,-4.0697,-4.236,-4.2799,-4.3279,-4.63,-4.8654,-5.0272,-5.1663,-5.4225,-5.7287,-5.8693,-5.918,-5.918,-5.918,-5.918,-5.918,-5.918,-5.918,-5.918,-5.918,-5.918,-5.918,-5.918,-5.918,-5.918,-5.918,-5.918,-5.918,-5.918,-5.918,-5.918,-5.918,-5.918,-5.918,-5.918,-5.918,-5.918,-5.918,-5.918,-5.918,-5.918,-5.918,-5.918,-5.918,-5.918,-5.918,-5.918,-5.918,-5.918,-5.918,-5.918,-5.918,-5.918,-5.918,-5.918,-5.918,-5.918,-5.918,-5.918,-5.918,-5.918,-5.918,-5.918,-5.918,-5.918,-5.918,-5.918,-5.918,-5.918,-5.918,-5.918,-5.918,-5.918,-5.918,-5.918,-5.918,-5.918,-4.0481,-4.0481,-4.0481,-4.0481,-4.0481,-4.0481,-4.0481,-4.0481,-4.0481,-4.0481,-4.0481,-4.0481,-4.0481,-4.0481,-4.0481,-4.0481,-4.0481,-4.0481,-4.0481,-4.0481,-4.0481,-4.0481,-4.0481,-4.0481,-4.0481,-4.0481,-4.0481,-4.0481,-4.0481,-4.0481,-4.0481,-4.0481,-4.0481,-4.0481,-4.0481,-4.0481,-4.0481,-4.0481,-4.0481,-4.0481,-4.0481,-4.0481,-4.0724,-4.3264,-4.4669,-4.5352,-4.8169,-5.0951,-5.4243,-5.7268,-5.8488,-5.8469,-5.8956,-5.918,-5.918,-5.918,-5.918,-5.918,-5.918,-5.918,-5.918,-5.918,-5.918,-5.918,-5.918,-5.918,-5.918,-5.918,-5.918,-5.918,-5.918,-5.918,-5.918,-5.918,-5.918,-5.918,-5.918,-5.918,-5.918,-5.918,-5.918,-5.918,-5.918,-5.918,-5.918,-5.918,-5.918,-5.918,-5.918,-5.918,-5.918,-5.918,-5.918,-5.918,-5.918,-5.918,-5.918,-5.918,-5.918,-5.918,-5.918,-5.918,-5.918,-5.918,-5.918,-5.918,-5.918,-5.918,-5.918,-5.918,-5.918,-5.918,-5.918,-5.918,-5.918,-5.918,-4.0481,-4.0481,-4.0481,-4.0481,-4.0481,-4.0481,-4.0481,-4.0481,-4.0481,-4.0481,-4.0481,-4.0481,-4.0481,-4.0481,-4.0481,-4.0481,-4.0481,-4.0481,-4.0481,-4.0481,-4.0481,-4.0481,-4.0481,-4.0481,-4.0481,-4.0481,-4.0481,-4.0481,-4.0481,-4.0481,-4.0481,-4.0481,-4.0481,-4.0481,-4.0481,-4.0481,-4.0481,-4.0481,-4.0481,-4.0481,-4.0481,-4.0481,-4.0481,-4.0953,-4.2813,-4.5145,-4.562,-4.7715,-5.0968,-5.3997,-5.5155,-5.5628,-5.8244,-5.918,-5.918,-5.918,-5.918,-5.918,-5.918,-5.918,-5.918,-5.918,-5.918,-5.918,-5.918,-5.918,-5.918,-5.918,-5.918,-5.918,-5.918,-5.918,-5.918,-5.918,-5.918,-5.918,-5.918,-5.918,-5.918,-5.918,-5.918,-5.918,-5.918,-5.918,-5.918,-5.918,-5.918,-5.918,-5.918,-5.918,-5.918,-5.918,-5.918,-5.918,-5.918,-5.918,-5.918,-5.918,-5.918,-5.918,-5.918,-5.918,-5.918,-5.918,-5.918,-5.918,-5.918,-5.918,-5.918,-5.918,-5.918,-5.918,-5.918,-5.918,-5.918,-5.918,-4.0481,-4.0481,-4.0481,-4.0481,-4.0481,-4.0481,-4.0481,-4.0481,-4.0481,-4.0481,-4.0481,-4.0481,-4.0481,-4.0481,-4.0481,-4.0481,-4.0481,-4.0481,-4.0481,-4.0481,-4.0481,-4.0481,-4.0481,-4.0481,-4.0481,-4.0481,-4.0481,-4.0481,-4.0481,-4.0481,-4.0481,-4.0481,-4.0481,-4.0481,-4.0481,-4.0481,-4.0481,-4.0481,-4.0481,-4.0481,-4.0481,-4.0481,-4.0481,-4.0481,-4.1423,-4.2813,-4.4445,-4.6079,-4.7699,-5.0719,-5.1876,-5.2124,-5.3539,-5.5155,-5.6591,-5.6591,-5.7756,-5.918,-5.918,-5.918,-5.918,-5.918,-5.918,-5.918,-5.918,-5.918,-5.918,-5.918,-5.918,-5.918,-5.918,-5.918,-5.918,-5.918,-5.918,-5.918,-5.918,-5.918,-5.918,-5.918,-5.918,-5.918,-5.918,-5.918,-5.918,-5.918,-5.918,-5.918,-5.918,-5.918,-5.918,-5.918,-5.918,-5.918,-5.918,-5.918,-5.918,-5.918,-5.918,-5.918,-5.918,-5.918,-5.918,-5.918,-5.918,-5.918,-5.918,-5.918,-5.918,-5.918,-5.918,-5.918,-5.918,-5.918,-5.918,-5.918]}]]